[[{"header":{"parameterUnit":"m.s-1","parameterCategory":1,"la1":30.6,"la2":28.766,"lo1":-90.7593,"lo2":-88.6598,"dy":0.0162,"dx":0.0183,"nx":116,"ny":114,"refTime":"2023-06-27T06:00:00:Z","depth":0,"parameterNumber":2,"parameterNumberName":"U-component_of_WINDS"},"data":[0.0,0.0,0.0,0.0,0.0,0.0,0.0,0.0,0.0,0.0,0.0,0.0,0.0,0.0,0.0,0.0,0.0,0.0,0.0,0.0,0.0,0.0,0.0,0.0,0.0,0.0,0.0,0.0,0.0,0.0,0.0,0.0,0.0,0.0,0.0,0.0,0.0,0.0,0.0,0.0,0.0,0.0,0.0,0.0,0.0,0.0,0.0,0.0,0.0,0.0,0.0,0.0,0.0,0.0,0.0,0.0,0.0,0.0,0.0,0.0,0.0,0.0,0.0,0.0,0.0,0.0,0.0,0.0,0.0,0.0,0.0,0.0,0.0,0.0,0.0,0.0,0.0,0.0,0.0,0.0,0.0,0.0,0.0,0.0,0.0,0.0,0.0,0.0,0.0,0.0,0.0,0.0,0.0,0.0,0.0,0.0,0.0,0.0,0.0,0.0,0.0,0.0,0.0,0.0,0.0,0.0,0.0,0.0,0.0,0.0,0.0,0.0,0.0,0.0,0.0,0.0,0.0,0.0,0.0,0.0,0.0,0.0,0.0,0.0,0.0,0.0,0.0,0.0,0.0,0.0,0.0,0.0,0.0,0.0,0.0,0.0,0.0,0.0,0.0,0.0,0.0,0.0,0.0,0.0,0.0,0.0,0.0,0.0,0.0,0.0,0.0,0.0,0.0,0.0,0.0,0.0,0.0,0.0,0.0,0.0,0.0,0.0,0.0,0.0,0.0,0.0,0.0,0.0,0.0,0.0,0.0,0.0,0.0,0.0,0.0,0.0,0.0,0.0,0.0,0.0,0.0,0.0,0.0,0.0,0.0,0.0,0.0,0.0,0.0,0.0,0.0,0.0,0.0,0.0,0.0,0.0,0.0,0.0,0.0,0.0,0.0,0.0,0.0,0.0,0.0,0.0,0.0,0.0,0.0,0.0,0.0,0.0,0.0,0.0,0.0,0.0,0.0,0.0,0.0,0.0,0.0,0.0,0.0,0.0,0.0,0.0,0.0,0.0,0.0,0.0,0.0,0.0,0.0,0.0,0.0,0.0,0.0,0.0,0.0,0.0,0.0,0.0,0.0,0.0,0.0,0.0,0.0,0.0,0.0,0.0,0.0,0.0,0.0,0.0,0.0,0.0,0.0,0.0,0.0,0.0,0.0,0.0,0.0,0.0,0.0,0.0,0.0,0.0,0.0,0.0,0.0,0.0,0.0,0.0,0.0,0.0,0.0,0.0,0.0,0.0,0.0,0.0,0.0,0.0,0.0,0.0,0.0,0.0,0.0,0.0,0.0,0.0,0.0,0.0,0.0,0.0,0.0,0.0,0.0,0.0,0.0,0.0,0.0,0.0,0.0,0.0,0.0,0.0,0.0,0.0,0.0,0.0,0.0,0.0,0.0,0.0,0.0,0.0,0.0,0.0,0.0,0.0,0.0,0.0,0.0,0.0,0.0,0.0,0.0,0.0,0.0,0.0,0.0,0.0,0.0,0.0,0.0,0.0,0.0,0.0,0.0,0.0,0.0,0.0,0.0,0.0,0.0,0.0,0.0,0.0,0.0,0.0,0.0,0.0,0.0,0.0,0.0,0.0,0.0,0.0,0.0,0.0,0.0,0.0,0.0,0.0,0.0,0.0,0.0,0.0,0.0,0.0,0.0,0.0,0.0,0.0,0.0,0.0,0.0,0.0,0.0,0.0,0.0,0.0,0.0,0.0,0.0,0.0,0.0,0.0,0.0,0.0,0.0,0.0,0.0,0.0,0.0,0.0,0.0,0.0,0.0,0.0,0.0,0.0,0.0,0.0,0.0,0.0,0.0,0.0,0.0,0.0,0.0,0.0,0.0,0.0,0.0,0.0,0.0,0.0,0.0,0.0,0.0,0.0,0.0,0.0,0.0,0.0,0.0,0.0,0.0,0.0,0.0,0.0,0.0,0.0,0.0,0.0,0.0,0.0,0.0,0.0,0.0,0.0,0.0,0.0,0.0,0.0,0.0,0.0,0.0,0.0,0.0,0.0,0.0,0.0,0.0,0.0,0.0,0.0,0.0,0.0,0.0,0.0,0.0,0.0,0.0,0.0,0.0,0.0,0.0,0.0,0.0,0.0,0.0,0.0,0.0,0.0,0.0,0.0,0.0,0.0,0.0,0.0,0.0,0.0,0.0,0.0,0.0,0.0,0.0,0.0,0.0,0.0,0.0,0.0,0.0,0.0,0.0,0.0,0.0,0.0,0.0,0.0,0.0,0.0,0.0,0.0,0.0,0.0,0.0,0.0,0.0,0.0,0.0,0.0,0.0,0.0,0.0,0.0,0.0,0.0,0.0,0.0,0.0,0.0,0.0,0.0,0.0,0.0,0.0,0.0,0.0,0.0,0.0,0.0,0.0,0.0,0.0,0.0,0.0,0.0,0.0,0.0,0.0,0.0,0.0,0.0,0.0,0.0,0.0,0.0,0.0,0.0,0.0,0.0,0.0,0.0,0.0,0.0,0.0,0.0,0.0,0.0,0.0,0.0,0.0,0.0,0.0,0.0,0.0,0.0,0.0,0.0,0.0,0.0,0.0,0.0,0.0,0.0,0.0,0.0,0.0,0.0,0.0,0.0,0.0,0.0,0.0,0.0,0.0,0.0,0.0,0.0,0.0,0.0,0.0,0.0,0.0,0.0,0.0,0.0,0.0,0.0,0.0,0.0,0.0,0.0,0.0,0.0,0.0,0.0,0.0,0.0,0.0,0.0,0.0,0.0,0.0,0.0,0.0,0.0,0.0,0.0,0.0,0.0,0.0,0.0,0.0,0.0,0.0,0.0,0.0,0.0,0.0,0.0,0.0,0.0,0.0,0.0,0.0,0.0,0.0,0.0,0.0,0.0,0.0,0.0,0.0,0.0,0.0,0.0,0.0,0.0,0.0,0.0,0.0,0.0,0.0,0.0,0.0,0.0,0.0,0.0,0.0,0.0,0.0,0.0,0.0,0.0,0.0,0.0,0.0,0.0,0.0,0.0,0.0,0.0,0.0,0.0,0.0,0.0,0.0,0.0,0.0,0.0,0.0,0.0,0.0,0.0,0.0,0.0,0.0,0.0,0.0,0.0,0.0,0.0,0.0,0.0,0.0,0.0,0.0,0.0,0.0,0.0,0.0,0.0,0.0,0.0,0.0,0.0,0.0,0.0,0.0,0.0,0.0,0.0,0.0,0.0,0.0,0.0,0.0,0.0,0.0,0.0,0.0,0.0,0.0,0.0,0.0,0.0,0.0,0.0,0.0,0.0,0.0,0.0,0.0,0.0,0.0,0.0,0.0,0.0,0.0,0.0,0.0,0.0,0.0,0.0,0.0,0.0,0.0,0.0,0.0,0.0,0.0,0.0,0.0,0.0,0.0,0.0,0.0,0.0,0.0,0.0,0.0,0.0,0.0,0.0,0.0,0.0,0.0,0.0,0.0,0.0,0.0,0.0,0.0,0.0,0.0,0.0,0.0,0.0,0.0,0.0,0.0,0.0,0.0,0.0,0.0,0.0,0.0,0.0,0.0,0.0,0.0,0.0,0.0,0.0,0.0,0.0,0.0,0.0,0.0,0.0,0.0,0.0,0.0,0.0,0.0,0.0,0.0,0.0,0.0,0.0,0.0,0.0,0.0,0.0,0.0,0.0,0.0,0.0,0.0,0.0,0.0,0.0,0.0,0.0,0.0,0.0,0.0,0.0,0.0,0.0,0.0,0.0,0.0,0.0,0.0,0.0,0.0,0.0,0.0,0.0,0.0,0.0,0.0,0.0,0.0,0.0,0.0,0.0,0.0,0.0,0.0,0.0,0.0,0.0,0.0,0.0,0.0,0.0,0.0,0.0,0.0,0.0,0.0,0.0,0.0,0.0,0.0,0.0,0.0,0.0,0.0,0.0,0.0,0.0,0.0,0.0,0.0,0.0,0.0,0.0,0.0,0.0,0.0,0.0,0.0,0.0,0.0,0.0,0.0,0.0,0.0,0.0,0.0,0.0,0.0,0.0,0.0,0.0,0.0,0.0,0.0,0.0,0.0,0.0,0.0,0.0,0.0,0.0,0.0,0.0,0.0,0.0,0.0,0.0,0.0,0.0,0.0,0.0,0.0,0.0,0.0,0.0,0.0,0.0,0.0,0.0,0.0,0.0,0.0,0.0,0.0,0.0,0.0,0.0,0.0,0.0,0.0,0.0,0.0,0.0,0.0,0.0,0.0,0.0,0.0,0.0,0.0,0.0,0.0,0.0,0.0,0.0,0.0,0.0,0.0,0.0,0.0,0.0,0.0,0.0,0.0,0.0,0.0,0.0,0.0,0.0,0.0,0.0,0.0,0.0,0.0,0.0,0.0,0.0,0.0,0.0,0.0,0.0,0.0,0.0,0.0,0.0,0.0,0.0,0.0,0.0,0.0,0.0,0.0,0.0,0.0,0.0,0.0,0.0,0.0,0.0,0.0,0.0,0.0,0.0,0.0,0.0,0.0,0.0,0.0,0.0,0.0,0.0,0.0,0.0,0.0,0.0,0.0,0.0,0.0,0.0,0.0,0.0,0.0,0.0,0.0,0.0,0.0,0.0,0.0,0.0,0.0,0.0,0.0,0.0,0.0,0.0,0.0,0.0,0.0,0.0,0.0,0.0,0.0,0.0,0.0,0.0,0.0,0.0,0.0,0.0,0.0,0.0,0.0,0.0,0.0,0.0,0.0,0.0,0.0,0.0,0.0,0.0,0.0,0.0,0.0,0.0,0.0,0.0,0.0,0.0,0.0,0.0,0.0,0.0,0.0,0.0,0.0,0.0,0.0,0.0,0.0,0.0,0.0,0.0,0.0,0.0,0.0,0.0,0.0,0.0,0.0,0.0,0.0,0.0,0.0,0.0,0.0,0.0,0.0,0.0,0.0,0.0,0.0,0.0,0.0,0.0,0.0,0.0,0.0,0.0,0.0,0.0,0.0,0.0,0.0,0.0,0.0,0.0,0.0,0.0,0.0,0.0,0.0,0.0,0.0,0.0,0.0,0.0,0.0,0.0,0.0,0.0,0.0,0.0,0.0,0.0,0.0,0.0,0.0,0.0,0.0,0.0,0.0,0.0,0.0,0.0,0.0,0.0,0.0,0.0,0.0,0.0,0.0,0.0,0.0,0.0,0.0,0.0,0.0,0.0,0.0,0.0,0.0,0.0,0.0,0.0,0.0,0.0,0.0,0.0,0.0,0.0,0.0,0.0,0.0,0.0,0.0,0.0,0.0,0.0,0.0,0.0,0.0,0.0,0.0,0.0,0.0,0.0,0.0,0.0,0.0,0.0,0.0,0.0,0.0,0.0,0.0,0.0,0.0,0.0,0.0,0.0,0.0,0.0,0.0,0.0,0.0,0.0,0.0,0.0,0.0,0.0,0.0,0.0,0.0,0.0,0.0,0.0,0.0,0.0,0.0,0.0,0.0,0.0,0.0,0.0,0.0,0.0,0.0,0.0,0.0,0.0,0.0,0.0,0.0,0.0,0.0,0.0,0.0,0.0,0.0,0.0,0.0,0.0,0.0,0.0,0.0,0.0,0.0,0.0,0.0,0.0,0.0,0.0,0.0,0.0,0.0,0.0,0.0,0.0,0.0,0.0,0.0,0.0,0.0,0.0,0.0,0.0,0.0,0.0,0.0,0.0,0.0,0.0,0.0,0.0,0.0,0.0,0.0,0.0,0.0,0.0,0.0,0.0,0.0,0.0,0.0,0.0,0.0,0.0,0.0,0.0,0.0,0.0,0.0,0.0,0.0,0.0,0.0,0.0,0.0,0.0,0.0,0.0,0.0,0.0,0.0,0.0,0.0,0.0,0.0,0.0,0.0,0.0,0.0,0.0,0.0,0.0,0.0,0.0,0.0,0.0,0.0,0.0,0.0,0.0,0.0,0.0,0.0,0.0,0.0,0.0,0.0,0.0,0.0,0.0,0.0,0.0,0.0,0.0,0.0,0.0,0.0,0.0,0.0,0.0,0.0,0.0,0.0,0.0,0.0,0.0,0.0,0.0,0.0,0.0,0.0,0.0,0.0,0.0,0.0,0.0,0.0,0.0,0.0,0.0,0.0,0.0,0.0,0.0,0.0,0.0,0.0,0.0,0.0,0.0,0.0,0.0,-1.5834,0.0,0.0,0.0,0.0,0.0,0.0,0.0,0.0,0.0,0.0,0.0,0.0,0.0,0.0,0.0,0.0,0.0,0.0,0.0,0.0,0.0,0.0,0.0,0.0,0.0,0.0,0.0,0.0,0.0,0.0,0.0,0.0,0.0,0.0,0.0,0.0,0.0,0.0,0.0,0.0,0.0,0.0,0.0,0.0,0.0,0.0,0.0,0.0,0.0,0.0,0.0,0.0,0.0,0.0,0.0,0.0,0.0,0.0,0.0,0.0,0.0,0.0,0.0,0.0,0.0,0.0,0.0,0.0,0.0,0.0,0.0,0.0,0.0,0.0,0.0,0.0,0.0,0.0,0.0,0.0,0.0,0.0,0.0,0.0,0.0,0.0,0.0,0.0,0.0,0.0,0.0,0.0,0.0,0.0,0.0,0.0,0.0,0.0,0.0,0.0,0.0,0.0,0.0,0.0,0.0,0.0,0.0,0.0,0.0,0.0,0.0,0.0,0.0,0.0,0.0,0.0,-1.7233,0.0,0.0,0.0,0.0,0.0,0.0,0.0,0.0,0.0,0.0,0.0,0.0,0.0,0.0,0.0,0.0,0.0,0.0,0.0,0.0,0.0,0.0,0.0,0.0,0.0,0.0,0.0,0.0,0.0,0.0,0.0,0.0,0.0,0.0,0.0,0.0,0.0,0.0,0.0,0.0,0.0,0.0,0.0,0.0,0.0,0.0,0.0,0.0,0.0,0.0,0.0,0.0,0.0,0.0,0.0,0.0,0.0,0.0,0.0,0.0,0.0,0.0,0.0,0.0,0.0,0.0,0.0,0.0,0.0,0.0,0.0,0.0,0.0,0.0,0.0,0.0,0.0,0.0,0.0,0.0,0.0,0.0,0.0,0.0,0.0,0.0,0.0,0.0,0.0,0.0,0.0,0.0,0.0,0.0,0.0,0.0,0.0,0.0,0.0,0.0,0.0,0.0,0.0,0.0,0.0,0.0,0.0,0.0,-1.8186,-1.8816,-1.9739,-2.038,-2.0765,-2.0905,-1.9751,-1.9333,-1.9306,-1.823,0.0,0.0,0.0,0.0,0.0,0.0,0.0,0.0,0.0,0.0,0.0,0.0,0.0,0.0,0.0,0.0,0.0,0.0,0.0,0.0,0.0,0.0,0.0,0.0,0.0,0.0,0.0,0.0,0.0,0.0,0.0,0.0,0.0,0.0,0.0,0.0,0.0,0.0,0.0,0.0,0.0,0.0,0.0,0.0,0.0,0.0,0.0,0.0,0.0,0.0,0.0,0.0,0.0,0.0,0.0,0.0,0.0,0.0,0.0,0.0,0.0,0.0,0.0,0.0,0.0,0.0,0.0,0.0,0.0,0.0,0.0,0.0,0.0,0.0,0.0,0.0,0.0,0.0,0.0,0.0,0.0,0.0,0.0,0.0,0.0,0.0,-0.6772,-0.7583,0.0,0.0,0.0,0.0,0.0,0.0,0.0,0.0,0.0,0.0,0.0,0.0,0.0,-1.5446,-1.6226,-1.7244,-1.8259,-1.9231,-1.9566,-2.0191,-2.0981,-2.1179,-2.1385,-2.1567,-2.1282,0.0,-2.0957,-2.0387,0.0,0.0,0.0,0.0,0.0,0.0,0.0,0.0,0.0,0.0,0.0,0.0,0.0,0.0,0.0,0.0,0.0,0.0,0.0,0.0,0.0,0.0,0.0,0.0,0.0,0.0,0.0,0.0,0.0,0.0,0.0,0.0,0.0,0.0,0.0,0.0,0.0,0.0,0.0,0.0,0.0,0.0,0.0,0.0,0.0,0.0,0.0,0.0,0.0,0.0,0.0,0.0,0.0,0.0,0.0,0.0,0.0,0.0,0.0,0.0,0.0,0.0,0.0,0.0,0.0,0.0,0.0,0.0,0.0,0.0,0.0,0.0,0.0,0.0,0.0,0.0,0.0,0.0,0.0,0.0,0.0,0.0,0.0,0.0,0.0,-0.5148,-0.6516,-0.8283,-0.7866,-0.7861,0.0,0.0,0.0,0.0,0.0,0.0,0.0,0.0,0.0,-1.4854,-1.583,-1.678,-1.7677,-1.7972,-1.8676,-1.9744,-2.0038,-2.0527,-2.1207,-2.1492,-2.1811,-2.2081,-2.1858,-2.1819,-2.1811,-2.1304,-2.0997,-2.0719,0.0,0.0,0.0,0.0,-1.6364,-1.5459,0.0,0.0,0.0,0.0,0.0,0.0,0.0,0.0,0.0,0.0,0.0,0.0,0.0,0.0,0.0,0.0,0.0,0.0,0.0,0.0,0.0,0.0,0.0,0.0,0.0,0.0,0.0,0.0,0.0,0.0,0.0,0.0,0.0,0.0,0.0,0.0,0.0,0.0,0.0,0.0,0.0,0.0,0.0,0.0,0.0,0.0,0.0,0.0,0.0,0.0,0.0,0.0,0.0,0.0,0.0,0.0,0.0,0.0,0.0,0.0,0.0,0.0,0.0,0.0,0.0,0.0,0.0,0.0,0.0,0.0,0.0,0.0,0.0,0.0,0.0,0.0,0.0,-0.5236,-0.6672,-0.8974,-0.8726,-0.903,0.0,0.0,0.0,0.0,0.0,0.0,-1.4327,-1.4985,-1.5626,-1.6269,-1.7002,-1.7749,-1.8552,-1.8566,-1.9085,-2.0063,-2.0494,-2.0987,-2.1469,-2.1775,-2.205,-2.2324,-2.2083,-2.2039,-2.2116,-2.1645,-2.1317,-2.1072,-2.0399,-1.8954,-1.7276,-1.7432,-1.6758,-1.59,0.0,0.0,0.0,0.0,0.0,0.0,0.0,0.0,0.0,0.0,0.0,0.0,0.0,0.0,0.0,0.0,0.0,0.0,0.0,0.0,0.0,0.0,0.0,0.0,0.0,0.0,0.0,0.0,0.0,0.0,0.0,0.0,0.0,0.0,0.0,0.0,0.0,0.0,0.0,0.0,0.0,0.0,0.0,0.0,0.0,0.0,0.0,0.0,0.0,0.0,0.0,0.0,0.0,0.0,0.0,0.0,0.0,0.0,0.0,0.0,0.0,0.0,0.0,0.0,0.0,0.0,0.0,0.0,0.0,0.0,0.0,0.0,0.0,0.0,0.0,0.0,0.0,0.0,0.0,-0.9486,-1.0778,0.0,0.0,0.0,0.0,-1.2687,-1.4151,-1.5283,-1.5965,-1.6663,-1.7015,-1.6874,-1.7431,-1.7907,-1.8127,-1.9307,-2.0114,-2.0588,-2.1428,-2.1961,-2.2166,-2.215,-2.2145,-2.2104,-2.1886,-2.1804,-2.1817,-2.1464,-2.129,-2.1215,-2.0537,-1.9668,-1.8795,-1.9002,-1.8447,-1.7735,0.0,0.0,0.0,0.0,0.0,0.0,0.0,0.0,0.0,0.0,0.0,0.0,0.0,0.0,0.0,0.0,0.0,0.0,0.0,0.0,0.0,0.0,0.0,0.0,0.0,0.0,0.0,0.0,0.0,0.0,0.0,0.0,0.0,0.0,0.0,0.0,0.0,0.0,0.0,0.0,0.0,0.0,0.0,0.0,0.0,0.0,0.0,0.0,0.0,0.0,0.0,0.0,0.0,0.0,0.0,0.0,0.0,0.0,0.0,0.0,0.0,0.0,0.0,0.0,0.0,0.0,0.0,0.0,0.0,0.0,0.0,0.0,0.0,0.0,0.0,0.0,0.0,0.0,0.0,-1.0228,-1.0946,0.0,-1.3572,-1.3709,-1.4033,-1.4864,-1.5435,-1.6249,-1.7506,-1.7479,-1.7607,-1.8029,-1.8374,-1.8824,-1.9316,-1.9769,-2.0283,-2.0809,-2.1115,-2.1379,-2.156,-2.1556,-2.1747,-2.2091,-2.1699,-2.1612,-2.1718,-2.1428,-2.1586,-2.2002,-2.2013,-2.1408,-2.0532,-2.0579,-1.9834,-1.8834,0.0,0.0,0.0,0.0,0.0,0.0,0.0,0.0,0.0,0.0,0.0,0.0,0.0,0.0,0.0,0.0,0.0,0.0,0.0,0.0,0.0,0.0,0.0,0.0,0.0,0.0,0.0,0.0,0.0,0.0,0.0,0.0,0.0,0.0,0.0,0.0,0.0,0.0,0.0,0.0,0.0,0.0,-1.0459,0.0,0.0,0.0,0.0,0.0,0.0,0.0,0.0,0.0,0.0,0.0,0.0,0.0,0.0,0.0,0.0,0.0,0.0,0.0,0.0,0.0,0.0,0.0,0.0,0.0,0.0,0.0,0.0,0.0,0.0,0.0,0.0,0.0,0.0,0.0,-0.9214,-1.1183,-1.2073,-1.314,-1.4673,-1.5011,-1.547,-1.6334,-1.6465,-1.7134,-1.8546,-1.8148,-1.8267,-1.9079,-1.9,-1.9359,-2.02,-2.0177,-2.0491,-2.1091,-2.1264,-2.141,-2.153,-2.1536,-2.1737,-2.2081,-2.1763,-2.1676,-2.1729,-2.176,-2.2033,-2.2376,-2.2244,-2.1603,-2.07,-2.0462,-1.989,-1.9268,0.0,0.0,0.0,0.0,0.0,0.0,0.0,0.0,0.0,0.0,0.0,0.0,0.0,0.0,0.0,0.0,0.0,0.0,0.0,0.0,0.0,0.0,0.0,0.0,0.0,0.0,0.0,0.0,0.0,0.0,0.0,0.0,0.0,0.0,0.0,0.0,0.0,0.0,0.0,0.0,0.0,0.0,-1.1398,0.0,0.0,0.0,0.0,0.0,0.0,0.0,0.0,0.0,0.0,0.0,0.0,0.0,0.0,0.0,0.0,0.0,0.0,0.0,0.0,0.0,0.0,0.0,0.0,0.0,0.0,0.0,0.0,0.0,0.0,0.0,0.0,0.0,-0.7467,-0.9189,-1.096,-1.2324,-1.4255,-1.5497,-1.5534,-1.6035,-1.6528,-1.7,-1.7328,-1.7974,-1.8964,-1.8825,-1.9093,-1.9897,-1.9273,-1.9478,-2.0596,-2.0537,-2.0857,-2.1486,-2.195,-2.2175,-2.2175,-2.217,-2.2176,-2.2116,-2.215,-2.2039,-2.1887,-2.2483,-2.2622,-2.2318,-2.1151,-2.0205,-1.9444,-1.8802,-1.8759,-1.9169,0.0,0.0,0.0,0.0,0.0,0.0,0.0,0.0,0.0,0.0,0.0,0.0,0.0,0.0,0.0,0.0,0.0,0.0,0.0,0.0,0.0,0.0,0.0,0.0,0.0,0.0,0.0,0.0,0.0,0.0,0.0,0.0,0.0,0.0,0.0,0.0,0.0,0.0,0.0,0.0,0.0,0.0,-1.1458,0.0,0.0,0.0,0.0,0.0,0.0,0.0,0.0,0.0,0.0,0.0,0.0,0.0,0.0,0.0,0.0,0.0,0.0,0.0,0.0,0.0,0.0,0.0,0.0,0.0,0.0,0.0,0.0,0.0,0.0,0.0,0.0,-0.8652,-0.8828,-1.0764,-1.2586,-1.3791,-1.4965,-1.5756,-1.5912,-1.6953,-1.7549,-1.7455,-1.7897,-1.8581,-1.9587,-1.9481,-1.9619,-2.0171,-2.0148,-2.0356,-2.0818,-2.0792,-2.0962,-2.1275,-2.1352,-2.161,-2.196,-2.1939,-2.2278,-2.2907,-2.2903,-2.2891,-2.2841,-2.3316,-2.3271,-2.2866,-2.2663,-2.2526,-2.2399,-2.2064,-2.213,-2.2411,0.0,0.0,0.0,0.0,0.0,0.0,0.0,0.0,0.0,0.0,0.0,0.0,0.0,0.0,0.0,0.0,0.0,0.0,0.0,0.0,0.0,0.0,0.0,0.0,0.0,0.0,0.0,0.0,0.0,0.0,0.0,0.0,0.0,0.0,0.0,0.0,0.0,0.0,0.0,0.0,0.0,0.0,-1.2183,-1.2811,-1.2211,-1.1007,-1.0698,-0.9838,-0.8842,-0.8532,0.0,0.0,0.0,0.0,0.0,0.0,0.0,0.0,0.0,0.0,0.0,0.0,0.0,0.0,0.0,0.0,0.0,0.0,0.0,0.0,0.0,0.0,0.0,0.0,-0.9317,-1.0751,-1.1432,-1.2743,-1.3971,-1.4917,-1.57,-1.619,-1.6305,-1.726,-1.7852,-1.7801,-1.8568,-1.9331,-1.997,-1.9909,-2.0009,-2.0366,-2.0224,-2.0387,-2.0899,-2.0796,-2.0973,-2.1504,-2.1441,-2.169,-2.2141,-2.2107,-2.2518,0.0,-2.3305,-2.3265,-2.3224,-2.3748,-2.3697,0.0,0.0,0.0,0.0,0.0,-2.3984,-2.4231,0.0,0.0,0.0,0.0,0.0,0.0,0.0,0.0,0.0,0.0,0.0,0.0,0.0,0.0,0.0,0.0,0.0,0.0,0.0,0.0,0.0,0.0,0.0,0.0,0.0,0.0,0.0,0.0,0.0,0.0,0.0,0.0,0.0,0.0,0.0,0.0,0.0,0.0,0.0,0.0,0.0,0.0,-1.3229,-1.3856,-1.3615,-1.2914,-1.255,-1.1617,-1.055,-1.0411,0.0,0.0,0.0,0.0,0.0,0.0,0.0,0.0,0.0,0.0,0.0,0.0,0.0,0.0,0.0,0.0,0.0,0.0,0.0,0.0,0.0,0.0,0.0,0.0,-1.1135,-1.3135,-1.453,-1.4848,-1.5181,-1.5828,-1.6337,-1.6654,-1.6661,-1.7316,-1.7852,-1.8113,-1.924,-2.0004,-2.0205,0.0,0.0,0.0,0.0,-2.0064,-2.0955,-2.073,-2.1073,-2.1926,-2.1918,-2.2144,-2.2593,-2.2584,-2.2869,-2.3339,-2.3543,-2.3502,-2.338,-2.3977,-2.4186,-2.4043,-2.3711,-2.3708,-2.3956,-2.4552,-2.4932,-2.5083,0.0,0.0,0.0,0.0,0.0,0.0,0.0,0.0,0.0,0.0,0.0,0.0,0.0,0.0,0.0,0.0,0.0,0.0,0.0,0.0,0.0,0.0,0.0,0.0,0.0,0.0,0.0,0.0,0.0,0.0,0.0,0.0,0.0,0.0,0.0,0.0,0.0,0.0,0.0,0.0,0.0,0.0,-1.3673,-1.3825,-1.3323,-1.2536,-1.2082,-1.1753,-1.1434,-1.0877,-1.045,-1.0086,-0.9645,0.0,0.0,0.0,0.0,0.0,0.0,0.0,0.0,0.0,0.0,0.0,0.0,0.0,0.0,0.0,0.0,0.0,0.0,0.0,0.0,-1.0896,-1.2504,-1.4171,-1.5718,-1.6267,-1.6456,-1.6459,-1.6694,-1.6896,-1.7064,-1.8349,-1.8948,-1.8371,-1.946,-2.0155,-2.0192,-2.0195,-2.0462,-2.1055,-2.0744,-2.0818,-2.1377,-2.1342,-2.1586,-2.2122,0.0,0.0,-2.3296,-2.3247,-2.3608,-2.4239,-2.4281,-2.4281,-2.4281,-2.4766,-2.536,-2.5865,-2.5417,-2.5381,-2.5683,-2.6244,-2.6238,-2.5929,0.0,0.0,0.0,0.0,0.0,0.0,0.0,0.0,0.0,0.0,0.0,0.0,0.0,0.0,0.0,0.0,0.0,0.0,0.0,0.0,0.0,0.0,0.0,0.0,0.0,0.0,0.0,0.0,0.0,0.0,0.0,0.0,0.0,0.0,0.0,0.0,0.0,0.0,0.0,0.0,0.0,0.0,-1.4728,-1.4649,-1.393,-1.2987,-1.2868,-1.2291,-1.1652,-1.1652,-1.122,-1.0685,-1.0646,-1.0161,-0.9457,0.0,0.0,0.0,0.0,0.0,0.0,0.0,0.0,0.0,0.0,0.0,0.0,0.0,0.0,-0.7892,0.0,0.0,-1.1819,-1.2736,-1.4188,-1.5556,-1.6745,-1.7154,-1.7345,-1.7351,-1.7428,-1.7621,-1.793,-1.9,-1.9313,-1.8454,-1.9842,-2.0497,-2.0057,-2.0227,-2.053,-2.0969,-2.0899,-2.0972,-2.1195,-2.1713,-2.2187,-2.2532,-2.273,-2.317,-2.3859,-2.3698,-2.4177,-2.5217,-2.4729,-2.4803,-2.5261,-2.5307,-2.597,-2.6915,-2.6701,-2.6733,-2.6972,-2.7505,-2.7494,-2.7155,0.0,0.0,0.0,0.0,0.0,0.0,0.0,0.0,0.0,0.0,0.0,0.0,0.0,0.0,0.0,0.0,0.0,0.0,0.0,0.0,0.0,0.0,0.0,0.0,0.0,0.0,0.0,0.0,0.0,0.0,0.0,0.0,0.0,0.0,0.0,0.0,0.0,0.0,0.0,0.0,0.0,0.0,-1.595,-1.5629,-1.4735,-1.3674,-1.379,-1.2987,-1.2025,-1.2403,-1.1881,-1.1093,-1.1384,-1.0942,-1.0238,-0.9922,-0.9427,0.0,0.0,0.0,0.0,0.0,0.0,0.0,0.0,0.0,-0.7852,-0.8676,-0.9236,-0.997,-1.1262,-1.2597,-1.3696,-1.4367,-1.5696,-1.6845,-1.7436,-1.7775,-1.8046,-1.8244,-1.8224,-1.8383,-1.8896,-1.936,-1.9404,-1.8855,-2.0135,-2.0662,-2.0048,-2.0298,-2.0592,-2.0906,-2.094,-2.1034,-2.1211,-2.2055,-2.2703,-2.3073,-2.3378,-2.3851,-2.4368,-2.4278,-2.4914,-2.6087,-2.5356,-2.5527,-2.6335,-2.6183,-2.671,-2.7673,-2.7784,-2.7853,-2.7933,-2.8354,-2.8379,-2.8139,0.0,0.0,0.0,0.0,0.0,0.0,0.0,0.0,0.0,0.0,0.0,0.0,0.0,0.0,0.0,0.0,0.0,0.0,0.0,0.0,0.0,0.0,0.0,0.0,0.0,0.0,0.0,0.0,0.0,0.0,0.0,0.0,0.0,0.0,0.0,0.0,0.0,0.0,0.0,0.0,0.0,0.0,-1.6863,-1.6201,-1.5253,-1.4245,-1.3912,-1.37,-1.3445,-1.2863,-1.2657,-1.2541,-1.193,-1.1605,-1.1164,-0.9926,0.0,-0.9649,-0.8995,-0.9051,-0.9398,-0.9799,-0.9304,-0.886,0.0,0.0,-0.9178,-0.9573,-1.0868,-1.2121,-1.2767,-1.4147,-1.5292,-1.5481,-1.6553,-1.7444,-1.7662,-1.8218,-1.8678,-1.8876,-1.8578,-1.8737,-1.9745,-1.9565,-1.9586,-2.0223,-2.0069,-2.0063,-2.0322,-2.0384,-2.0703,-2.1292,-2.1158,-2.146,-2.2224,-2.2362,-2.2848,-2.3684,-2.3724,-2.4229,-2.5084,-2.5571,-2.6044,-2.6562,-2.6933,-2.7261,-2.7568,-2.8121,-2.8307,-2.8279,-2.8869,-2.8802,-2.8426,-2.8486,-2.8379,-2.8179,0.0,0.0,0.0,0.0,0.0,0.0,0.0,0.0,0.0,0.0,0.0,0.0,0.0,0.0,0.0,0.0,0.0,0.0,0.0,0.0,0.0,0.0,0.0,0.0,0.0,0.0,0.0,0.0,0.0,0.0,0.0,0.0,0.0,0.0,0.0,0.0,0.0,0.0,0.0,0.0,0.0,0.0,-1.6549,-1.6221,-1.5601,-1.4825,-1.4423,-1.3955,0.0,0.0,-1.3314,-1.2863,-1.2578,-1.2228,-1.1739,-1.1064,-1.069,0.0,-0.9848,-0.9479,0.0,0.0,-0.9905,-0.9631,-0.9928,-1.0193,-1.0434,-1.0727,-1.2206,-1.3522,-1.3708,-1.4953,-1.5984,0.0,-1.6879,-1.7673,-1.8204,-1.8705,-1.9121,-1.932,-1.8875,-1.8987,-2.0055,-1.985,-1.9774,-2.0113,-2.049,-2.0586,-2.0282,-2.0522,-2.1047,-2.1945,-2.1686,-2.2059,-2.3222,-2.3474,-2.382,-2.4186,-2.4765,-2.5328,-2.5862,-2.6367,-2.7063,-2.7977,-2.8948,-2.9308,-2.9261,-2.9054,-2.9251,-2.9666,-2.9934,-2.978,-2.9352,-2.8847,-2.8486,-2.8219,0.0,0.0,0.0,0.0,0.0,0.0,0.0,0.0,0.0,0.0,0.0,0.0,0.0,0.0,0.0,0.0,0.0,0.0,0.0,0.0,0.0,0.0,0.0,0.0,0.0,0.0,0.0,0.0,0.0,0.0,0.0,0.0,0.0,0.0,0.0,0.0,0.0,0.0,0.0,0.0,0.0,0.0,-1.6198,-1.6221,-1.5863,-1.5312,-1.4881,-1.4287,0.0,0.0,-1.3886,-1.3309,-1.3207,-1.2792,-1.2285,-1.1858,-1.1313,-1.0777,-1.033,0.0,0.0,-1.0415,-1.0477,-1.0427,-1.0604,-1.0993,-1.1449,-1.1875,-1.3351,-1.4498,-1.4284,-1.5547,-1.6569,-1.6346,-1.7128,-1.7987,-1.8762,-1.9012,-1.9224,-1.9468,-1.885,-1.8865,-2.0158,-1.9824,-1.983,-2.0444,-2.084,-2.0846,-2.0458,-2.0831,-2.1464,-2.2378,-2.2235,-2.2736,-2.4003,-2.4327,-2.4594,-2.4786,-2.5656,-2.6319,-2.6723,-2.7504,-2.8559,-2.9715,-3.0457,-3.0859,-3.0927,-3.0293,-3.0398,-3.1029,-3.1085,-3.0881,-3.0465,-2.99,-2.9294,-2.885,0.0,0.0,0.0,0.0,0.0,0.0,0.0,0.0,0.0,0.0,0.0,0.0,0.0,0.0,0.0,0.0,0.0,0.0,0.0,0.0,0.0,0.0,0.0,0.0,0.0,0.0,0.0,0.0,0.0,0.0,0.0,0.0,0.0,0.0,0.0,0.0,0.0,0.0,0.0,0.0,0.0,0.0,-1.6206,-1.6266,-1.607,-1.571,-1.5248,0.0,0.0,0.0,-1.4411,-1.4253,-1.3742,-1.3308,0.0,-1.1865,-1.1084,0.0,0.0,0.0,-1.1076,-1.1319,-1.1296,-1.1393,-1.1932,-1.1964,-1.2116,-1.2976,-1.4227,-1.4993,-1.4492,-1.607,-1.7216,-1.6508,-1.7488,-1.859,-1.9207,-1.8971,-1.8887,-1.9278,-1.8248,-1.823,0.0,-1.9236,-1.9578,-2.1875,-2.0872,-2.0386,-2.0944,-2.1436,-2.1891,-2.2394,-2.2853,-2.3507,-2.4456,-2.4498,-2.485,-2.5496,-2.6225,-2.6978,-2.7705,-2.9366,-3.0646,-3.1596,-3.115,-3.1548,-3.2394,-3.2108,-3.2043,-3.2089,-3.2352,-3.2106,-3.1657,-3.1853,-3.1217,-3.0335,0.0,0.0,0.0,0.0,0.0,0.0,0.0,0.0,0.0,0.0,0.0,0.0,0.0,0.0,0.0,0.0,0.0,0.0,0.0,0.0,0.0,0.0,0.0,0.0,0.0,0.0,0.0,0.0,0.0,0.0,0.0,0.0,0.0,0.0,0.0,0.0,0.0,0.0,0.0,0.0,0.0,0.0,-1.6609,-1.625,-1.6454,-1.6829,0.0,0.0,0.0,0.0,0.0,0.0,-1.3903,0.0,0.0,-1.173,-1.1166,-1.1009,-1.1485,0.0,-1.1698,-1.2319,-1.2396,-1.2332,-1.224,-1.2594,-1.3035,-1.3297,-1.4399,-1.5352,-1.5436,-1.6174,-1.6963,-1.7624,-1.7614,-1.7938,-1.9131,-1.8836,-1.8735,-1.9436,-1.8909,0.0,0.0,0.0,0.0,-2.1268,-2.0728,-2.0587,-2.1213,-2.1727,-2.2397,-2.3299,-2.3464,-2.4231,-2.56,-2.5768,-2.6195,-2.6959,-2.8184,-2.9332,-3.0371,-3.1303,-3.2108,-3.2718,-3.2413,-3.2722,-3.3446,-3.2886,-3.2921,-3.336,-3.3466,-3.32,-3.2837,-3.3405,-3.3123,-3.239,0.0,0.0,0.0,0.0,0.0,0.0,0.0,0.0,0.0,0.0,0.0,0.0,0.0,0.0,0.0,0.0,0.0,0.0,0.0,0.0,0.0,0.0,0.0,0.0,0.0,0.0,0.0,0.0,0.0,0.0,0.0,0.0,0.0,0.0,0.0,0.0,0.0,0.0,0.0,0.0,0.0,0.0,-1.685,-1.6685,-1.6919,0.0,0.0,0.0,0.0,0.0,0.0,0.0,0.0,-1.3347,-1.2608,-1.1989,-1.1747,-1.1833,-1.2603,-1.2736,-1.281,-1.3556,-1.3623,-1.3431,-1.3165,-1.347,-1.3813,-1.3882,-1.4814,-1.5567,-1.5426,-1.6172,-1.6936,-1.7424,-1.7413,-1.7802,-1.9022,-1.8598,-1.8501,-1.9367,-1.9069,-1.9295,0.0,0.0,0.0,-2.1321,-2.0952,-2.0949,-2.159,-2.2168,-2.2916,-2.3917,-2.4241,-2.5168,-2.6713,-2.7005,-2.768,-2.8742,-2.9694,-3.0707,-3.1817,-3.209,-3.2536,-3.3076,-3.2654,-3.3011,-3.3823,-3.3276,-3.3491,-3.4149,-3.4246,-3.4126,-3.3873,-3.4353,-3.4183,-3.3564,0.0,0.0,0.0,0.0,0.0,0.0,0.0,0.0,0.0,0.0,0.0,0.0,0.0,0.0,0.0,0.0,0.0,0.0,0.0,0.0,0.0,0.0,0.0,0.0,0.0,0.0,0.0,0.0,0.0,0.0,0.0,0.0,0.0,0.0,0.0,0.0,0.0,0.0,0.0,0.0,0.0,0.0,-1.6874,-1.7415,0.0,0.0,0.0,0.0,0.0,0.0,0.0,0.0,0.0,0.0,-1.2367,-1.2632,-1.2744,-1.2902,-1.3671,-1.3987,-1.43,-1.4965,-1.4881,-1.4636,-1.462,-1.4474,-1.4435,-1.4746,-1.5401,-1.5635,0.0,0.0,-1.7125,-1.6201,-1.7037,-1.8078,-1.8899,-1.8351,-1.8193,0.0,0.0,0.0,0.0,0.0,0.0,-2.2019,0.0,-2.1385,-2.2057,-2.2775,-2.3493,-2.4239,-2.5094,-2.6262,-2.7759,-2.8191,-2.9167,-3.0612,-3.0624,-3.1129,-3.203,-3.1817,-3.2095,-3.2759,-3.2035,-3.2454,-3.3584,-3.3341,-3.3713,-3.4423,-3.4655,-3.4763,-3.4775,-3.4775,-3.4462,-3.3921,0.0,0.0,0.0,0.0,0.0,0.0,0.0,0.0,0.0,0.0,0.0,0.0,0.0,0.0,0.0,0.0,0.0,0.0,0.0,0.0,0.0,0.0,0.0,0.0,0.0,0.0,0.0,0.0,0.0,0.0,0.0,0.0,0.0,0.0,0.0,0.0,0.0,0.0,0.0,0.0,0.0,0.0,-1.6741,0.0,0.0,0.0,0.0,0.0,0.0,0.0,0.0,0.0,0.0,0.0,-1.2495,-1.2841,-1.311,-1.3478,-1.433,-1.4697,-1.4911,-1.5106,-1.5191,-1.5123,-1.4876,-1.4883,-1.4911,-1.4683,-1.4993,-1.5374,0.0,0.0,0.0,-1.7984,-1.7697,0.0,-1.9261,-1.9021,0.0,0.0,0.0,-2.0996,-2.1749,-2.1797,0.0,0.0,-2.1812,-2.1451,-2.2155,-2.2932,-2.3861,-2.4918,-2.6044,-2.7227,-2.842,-2.9628,-3.0431,-3.0848,-3.1244,-3.1757,-3.2364,-3.2043,-3.2228,-3.2759,-3.2401,-3.2735,-3.356,-3.3114,-3.3639,-3.4655,-3.4342,-3.4438,-3.4775,-3.4775,-3.4691,-3.4487,0.0,0.0,0.0,0.0,0.0,0.0,0.0,0.0,0.0,0.0,0.0,0.0,0.0,0.0,0.0,0.0,0.0,0.0,0.0,0.0,0.0,0.0,0.0,0.0,0.0,0.0,0.0,0.0,0.0,0.0,0.0,0.0,0.0,0.0,0.0,0.0,0.0,0.0,0.0,0.0,0.0,0.0,0.0,0.0,0.0,0.0,0.0,0.0,0.0,0.0,0.0,-1.3891,-1.3325,-1.3046,-1.3007,-1.3382,0.0,-1.3982,-1.4919,-1.5296,-1.5553,-1.595,-1.5884,-1.5732,-1.5572,-1.5213,-1.4883,-1.4908,-1.4904,0.0,0.0,0.0,0.0,0.0,0.0,0.0,-1.9161,-1.9304,-1.9576,0.0,-2.1083,0.0,-2.235,-2.2433,-2.2673,0.0,-2.2539,-2.231,-2.2886,-2.3654,-2.465,-2.5837,-2.6798,-2.8086,-2.964,-3.0735,-3.1259,-3.1271,-3.1769,-3.2204,-3.2455,-3.2293,-3.2382,-3.2609,0.0,-3.2467,-3.2892,-3.3062,-3.3564,-3.4293,-3.4318,-3.4522,-3.4775,-3.4775,-3.4631,-3.4318,0.0,0.0,0.0,0.0,0.0,0.0,0.0,0.0,0.0,0.0,0.0,0.0,0.0,0.0,0.0,0.0,0.0,0.0,0.0,0.0,0.0,0.0,0.0,0.0,0.0,0.0,0.0,0.0,0.0,0.0,0.0,0.0,0.0,0.0,0.0,0.0,0.0,0.0,0.0,0.0,0.0,0.0,0.0,0.0,0.0,0.0,0.0,0.0,0.0,0.0,-1.4522,-1.4191,-1.3563,-1.3436,-1.3601,-1.3998,-1.4169,-1.443,-1.5391,-1.5818,-1.615,-1.6902,-1.6715,-1.6345,-1.6403,-1.5539,-1.4843,-1.5204,0.0,-1.4877,-1.5373,0.0,-1.6756,-1.7334,0.0,-1.8574,-1.9201,-1.9611,-2.0095,-2.0717,-2.1381,-2.2034,-2.258,-2.2701,-2.2976,-2.3646,-2.3575,-2.3613,-2.3945,-2.4711,-2.5755,-2.7125,-2.7804,-2.9032,-3.0975,-3.1476,-3.1753,-3.1825,-3.2235,-3.2402,-3.2423,-3.2483,-3.2443,-3.2356,-3.2125,0.0,-3.2261,-3.3095,-3.3594,-3.3817,-3.433,-3.4643,-3.4775,-3.4703,-3.4426,-3.4006,0.0,0.0,0.0,0.0,0.0,0.0,0.0,0.0,0.0,0.0,0.0,0.0,0.0,0.0,0.0,0.0,0.0,0.0,0.0,0.0,0.0,0.0,0.0,0.0,0.0,0.0,0.0,0.0,0.0,0.0,0.0,0.0,0.0,0.0,0.0,0.0,0.0,0.0,0.0,0.0,0.0,0.0,0.0,0.0,0.0,0.0,0.0,0.0,0.0,0.0,-1.4597,-1.3828,-1.3237,-1.3351,-1.3729,-1.4006,-1.4443,-1.4995,-1.5676,-1.6108,-1.6522,-1.6972,-1.7045,-1.6932,-1.6579,-1.6278,0.0,0.0,0.0,-1.5471,-1.5835,-1.614,0.0,-1.8437,0.0,0.0,0.0,0.0,-2.1521,0.0,0.0,0.0,0.0,0.0,0.0,0.0,0.0,-2.4889,-2.4646,-2.5742,-2.7343,-2.952,-3.0094,-3.072,-3.1573,-3.1657,-3.1901,-3.2346,-3.2176,-3.2245,-3.2482,-3.2442,-3.2311,-3.2081,-3.2257,0.0,-3.3302,-3.2832,-3.3396,-3.4499,-3.3552,-3.3822,-3.4727,-3.4294,-3.4342,-3.4498,0.0,0.0,0.0,0.0,0.0,0.0,0.0,0.0,0.0,0.0,0.0,0.0,0.0,0.0,0.0,0.0,0.0,0.0,0.0,0.0,0.0,0.0,0.0,0.0,0.0,0.0,0.0,0.0,0.0,0.0,0.0,0.0,0.0,0.0,0.0,0.0,0.0,0.0,0.0,0.0,0.0,0.0,0.0,0.0,0.0,0.0,0.0,0.0,0.0,0.0,-1.5384,-1.4888,-1.4147,-1.4252,-1.4652,-1.4803,-1.5042,-1.5427,-1.6171,-1.6666,-1.7098,-1.7551,-1.7505,-1.7321,-1.7238,0.0,0.0,0.0,0.0,-1.5752,-1.6218,0.0,0.0,0.0,0.0,0.0,0.0,0.0,0.0,0.0,0.0,0.0,0.0,0.0,0.0,0.0,0.0,-2.5617,-2.5946,-2.7577,-2.9051,-3.0149,-3.0944,-3.1439,-3.1705,-3.1994,-3.2238,-3.2503,-3.2605,-3.2684,-3.266,-3.2495,-3.2273,-3.1994,-3.2125,0.0,-3.2587,-3.2593,-3.3013,-3.3573,-3.3218,-3.3449,-3.3994,-3.3741,-3.3633,-3.3502,0.0,0.0,0.0,0.0,0.0,0.0,0.0,0.0,0.0,0.0,0.0,0.0,0.0,0.0,0.0,0.0,0.0,0.0,0.0,0.0,0.0,0.0,0.0,0.0,0.0,0.0,0.0,0.0,0.0,0.0,0.0,0.0,0.0,0.0,0.0,0.0,0.0,0.0,0.0,0.0,0.0,0.0,0.0,0.0,0.0,0.0,0.0,0.0,0.0,0.0,-1.6224,-1.6147,-1.5383,-1.542,-1.5705,-1.5557,-1.5589,-1.5864,-1.6558,-1.7024,-1.7432,-1.7974,-1.775,-1.7474,-1.768,-1.6768,0.0,0.0,-1.5945,-1.5999,-1.6673,0.0,0.0,0.0,0.0,0.0,0.0,0.0,0.0,0.0,0.0,0.0,0.0,0.0,0.0,0.0,0.0,0.0,-2.7411,-2.93,-3.0395,-3.0501,-3.1312,-3.1765,-3.1886,-3.2286,-3.2611,-3.2827,-3.3066,-3.3085,-3.2907,-3.2554,-3.2228,-3.1937,-3.1937,0.0,0.0,-3.2402,-3.2623,-3.2683,-3.2921,-3.3138,-3.3272,-3.3164,-3.2923,-3.2601,0.0,0.0,0.0,0.0,0.0,0.0,0.0,0.0,0.0,0.0,0.0,0.0,0.0,0.0,0.0,0.0,0.0,0.0,0.0,0.0,0.0,0.0,0.0,0.0,0.0,0.0,0.0,0.0,0.0,0.0,0.0,0.0,0.0,0.0,0.0,0.0,0.0,0.0,0.0,0.0,0.0,0.0,0.0,0.0,0.0,0.0,0.0,0.0,0.0,0.0,0.0,-1.685,-1.6459,-1.6377,-1.6276,-1.5692,0.0,0.0,-1.6563,-1.6799,-1.707,-1.7611,-1.7425,-1.7151,-1.7168,0.0,0.0,0.0,-1.6048,-1.6333,-1.7251,-1.7609,0.0,0.0,0.0,0.0,0.0,0.0,0.0,0.0,0.0,0.0,0.0,0.0,0.0,0.0,0.0,0.0,-2.892,-3.0114,-3.1052,-3.1533,-3.1637,-3.1946,-3.2418,-3.2478,-3.2971,-3.3838,-3.3167,-3.3007,-3.3222,-3.2426,-3.1942,-3.1705,-3.1705,0.0,0.0,-3.216,-3.2514,-3.3174,-3.2414,-3.2611,-3.3236,-3.2755,-3.2851,-3.3094,0.0,0.0,0.0,0.0,0.0,0.0,0.0,0.0,0.0,0.0,0.0,0.0,0.0,0.0,0.0,0.0,0.0,0.0,0.0,0.0,0.0,0.0,0.0,0.0,0.0,0.0,0.0,0.0,0.0,0.0,0.0,0.0,0.0,0.0,0.0,0.0,0.0,0.0,0.0,0.0,0.0,0.0,0.0,0.0,0.0,0.0,0.0,0.0,0.0,0.0,0.0,0.0,-1.6738,-1.6982,0.0,0.0,-1.636,-1.6625,-1.6892,-1.7166,-1.7476,-1.7954,-1.7778,-1.7466,-1.7469,0.0,0.0,-1.6706,-1.6829,-1.7171,-1.7898,-1.8396,-1.8938,0.0,0.0,0.0,0.0,0.0,0.0,0.0,0.0,0.0,0.0,0.0,0.0,0.0,0.0,0.0,-2.9997,-3.0886,-3.1645,-3.2154,-3.2007,-3.218,-3.2741,-3.2911,-3.3268,-3.3815,-3.3168,-3.3021,-3.3248,-3.2256,-3.1761,-3.1705,-3.1705,0.0,0.0,-3.2557,-3.2605,-3.2379,-3.2653,-3.2605,-3.2331,-3.2082,-3.213,-3.2229,0.0,0.0,0.0,0.0,0.0,0.0,0.0,0.0,0.0,0.0,0.0,0.0,0.0,0.0,0.0,0.0,0.0,0.0,0.0,0.0,0.0,0.0,0.0,0.0,0.0,0.0,0.0,0.0,0.0,0.0,0.0,0.0,0.0,0.0,0.0,0.0,0.0,0.0,0.0,0.0,0.0,0.0,0.0,0.0,0.0,0.0,0.0,0.0,0.0,0.0,0.0,0.0,0.0,0.0,0.0,0.0,-1.6673,-1.6762,-1.7148,-1.7367,-1.7581,-1.8017,-1.7846,-1.7573,0.0,0.0,0.0,-1.7054,-1.7288,-1.766,-1.8443,-1.8976,-1.9412,0.0,0.0,0.0,0.0,0.0,0.0,0.0,0.0,0.0,0.0,0.0,0.0,0.0,0.0,0.0,0.0,-3.1452,-3.2082,-3.2376,-3.2303,-3.2497,-3.2995,-3.3219,-3.3527,-3.391,-3.3232,-3.3051,-3.3248,-3.2211,-3.1745,-3.18,-3.1733,0.0,0.0,-3.2563,-3.2403,-3.1801,-3.2637,-3.2484,-3.1824,-3.1902,-3.1917,-3.1848,0.0,0.0,0.0,0.0,0.0,0.0,0.0,0.0,0.0,0.0,0.0,0.0,0.0,0.0,0.0,0.0,0.0,0.0,0.0,0.0,0.0,0.0,0.0,0.0,0.0,0.0,0.0,0.0,0.0,0.0,0.0,0.0,0.0,0.0,0.0,0.0,0.0,0.0,0.0,0.0,0.0,0.0,0.0,0.0,0.0,0.0,0.0,0.0,0.0,0.0,0.0,0.0,0.0,0.0,0.0,0.0,-1.6821,-1.6977,-1.7319,-1.7165,-1.7034,-1.7556,-1.7505,-1.7225,0.0,0.0,0.0,-1.6902,-1.7072,-1.7569,-1.8768,-1.9164,-1.9506,-2.0187,-2.0789,0.0,0.0,0.0,0.0,0.0,0.0,0.0,0.0,0.0,0.0,0.0,0.0,0.0,0.0,-3.1767,-3.2388,-3.2124,-3.2382,-3.2771,-3.3288,-3.33,-3.3643,-3.436,-3.3399,-3.3051,-3.3248,-3.2211,-3.186,0.0,0.0,0.0,0.0,-3.18,-3.1717,-3.1721,-3.1979,-3.2091,-3.2138,-3.2406,-3.2465,-3.2442,0.0,0.0,0.0,0.0,0.0,0.0,0.0,0.0,0.0,0.0,0.0,0.0,0.0,0.0,0.0,0.0,0.0,0.0,0.0,0.0,0.0,0.0,0.0,0.0,0.0,0.0,0.0,0.0,0.0,0.0,0.0,0.0,0.0,0.0,0.0,0.0,0.0,0.0,0.0,0.0,0.0,0.0,0.0,0.0,0.0,0.0,0.0,0.0,0.0,0.0,0.0,0.0,0.0,0.0,0.0,0.0,0.0,0.0,-1.7035,-1.7089,-1.7171,-1.7506,-1.7447,-1.7248,-1.6942,0.0,0.0,-1.7615,-1.8025,-1.8618,-1.9687,-1.9946,-2.011,-2.043,-2.1161,-2.177,0.0,0.0,0.0,0.0,0.0,0.0,0.0,0.0,0.0,0.0,0.0,0.0,0.0,-3.1908,-3.2568,-3.265,-3.2936,-3.3215,-3.3583,-3.3386,-3.3517,-3.3915,-3.3527,-3.3146,-3.277,-3.2531,-3.2124,0.0,0.0,0.0,0.0,-3.2841,-3.2688,-3.1823,-3.3161,-3.3114,-3.2441,-3.2898,-3.258,-3.1948,0.0,0.0,0.0,0.0,0.0,0.0,0.0,0.0,0.0,0.0,0.0,0.0,0.0,0.0,0.0,0.0,0.0,0.0,0.0,0.0,0.0,0.0,0.0,0.0,0.0,0.0,0.0,0.0,0.0,0.0,0.0,0.0,0.0,0.0,0.0,0.0,0.0,0.0,0.0,0.0,0.0,0.0,-1.7224,0.0,0.0,0.0,0.0,0.0,0.0,0.0,0.0,0.0,0.0,0.0,0.0,0.0,-1.6678,0.0,0.0,-1.7011,-1.708,-1.7512,-1.7652,0.0,0.0,0.0,0.0,0.0,-1.8506,-1.9105,-1.9899,-2.0197,-2.04,-2.0673,-2.1159,0.0,0.0,0.0,0.0,0.0,0.0,0.0,0.0,0.0,0.0,0.0,0.0,0.0,0.0,-3.1726,-3.2312,-3.2606,-3.3073,-3.3354,-3.353,-3.3381,-3.3431,-3.3729,-3.3371,-3.2991,-3.2629,-3.2367,-3.194,0.0,0.0,0.0,0.0,-3.2947,-3.2959,-3.2275,-3.3396,-3.3334,-3.271,-3.3041,-3.2533,-3.1714,0.0,0.0,0.0,0.0,0.0,0.0,0.0,0.0,0.0,0.0,0.0,0.0,0.0,0.0,0.0,0.0,0.0,0.0,0.0,0.0,0.0,0.0,0.0,0.0,0.0,0.0,0.0,0.0,-0.8751,-0.8771,-0.8838,0.0,0.0,0.0,0.0,0.0,0.0,0.0,0.0,0.0,0.0,0.0,0.0,0.0,0.0,0.0,0.0,0.0,0.0,0.0,0.0,0.0,0.0,0.0,0.0,0.0,0.0,0.0,0.0,0.0,0.0,0.0,0.0,0.0,0.0,0.0,0.0,0.0,0.0,0.0,-1.9583,-2.0024,-2.0486,-2.0811,-2.0936,0.0,0.0,0.0,0.0,0.0,0.0,0.0,0.0,0.0,0.0,0.0,0.0,0.0,0.0,-3.1329,-3.1844,-3.2052,-3.2889,-3.3281,-3.3281,-3.3281,-3.3431,-3.3668,-3.2943,-3.2689,-3.2782,-3.1822,-3.1494,0.0,0.0,0.0,0.0,-3.2406,-3.263,-3.2877,-3.2918,-3.2922,-3.2883,-3.2959,-3.2413,-3.1647,0.0,0.0,0.0,0.0,0.0,0.0,0.0,0.0,0.0,0.0,0.0,0.0,0.0,0.0,0.0,0.0,0.0,0.0,0.0,0.0,0.0,0.0,0.0,0.0,0.0,0.0,0.0,-0.8501,-0.8395,-0.8637,-0.918,-0.9398,0.0,0.0,0.0,0.0,0.0,0.0,0.0,0.0,0.0,0.0,0.0,0.0,0.0,0.0,-1.6909,-1.657,0.0,0.0,0.0,0.0,0.0,0.0,0.0,0.0,-1.6403,-1.6289,-1.6995,0.0,-1.6795,-1.7605,0.0,0.0,0.0,0.0,0.0,0.0,0.0,0.0,0.0,0.0,-2.0913,-2.0728,0.0,0.0,0.0,0.0,0.0,0.0,0.0,0.0,0.0,0.0,0.0,0.0,0.0,0.0,0.0,-3.1391,-3.1936,-3.1779,-3.2791,-3.3281,-3.3281,-3.3281,-3.3331,-3.3381,-3.3569,-3.3076,-3.2051,-3.2392,-3.1915,0.0,0.0,0.0,-3.1612,-3.2235,-3.2559,-3.2665,-3.3296,-3.3258,-3.2921,-3.3312,-3.2589,-3.1456,0.0,0.0,0.0,0.0,0.0,0.0,0.0,0.0,0.0,0.0,0.0,0.0,0.0,0.0,0.0,0.0,0.0,0.0,0.0,0.0,0.0,0.0,0.0,0.0,0.0,0.0,0.0,0.0,0.0,-0.8956,0.0,0.0,0.0,0.0,0.0,0.0,0.0,0.0,0.0,0.0,-1.4775,0.0,0.0,0.0,0.0,0.0,-1.6428,-1.6114,0.0,-1.573,-1.5999,-1.6414,0.0,0.0,0.0,0.0,-1.667,-1.639,-1.7,-1.7007,-1.6996,-1.7872,-1.8196,-1.8338,0.0,0.0,0.0,0.0,0.0,0.0,0.0,0.0,0.0,0.0,0.0,0.0,0.0,0.0,0.0,0.0,0.0,0.0,0.0,0.0,0.0,0.0,0.0,0.0,0.0,-3.124,-3.1747,-3.2064,-3.2627,-3.304,-3.3281,-3.3281,-3.3281,-3.3281,-3.3162,-3.273,-3.1933,-3.1878,-3.1379,0.0,0.0,0.0,-3.1598,-3.2216,-3.2724,-3.3076,-3.3266,-3.3131,-3.2869,-3.2846,-3.2118,-3.1158,0.0,0.0,0.0,0.0,0.0,0.0,0.0,0.0,0.0,0.0,0.0,0.0,0.0,0.0,0.0,0.0,0.0,0.0,0.0,0.0,0.0,0.0,0.0,0.0,0.0,0.0,0.0,0.0,0.0,0.0,0.0,0.0,0.0,0.0,0.0,0.0,0.0,0.0,0.0,0.0,-1.4798,0.0,0.0,0.0,0.0,0.0,0.0,0.0,0.0,-1.5575,-1.5791,-1.6087,-1.6727,0.0,0.0,0.0,0.0,0.0,-1.7044,-1.7116,-1.7221,-1.8049,-1.8592,-1.8888,0.0,0.0,0.0,0.0,0.0,0.0,0.0,0.0,0.0,0.0,0.0,0.0,0.0,0.0,0.0,0.0,0.0,0.0,0.0,0.0,0.0,0.0,0.0,0.0,0.0,-3.1123,-3.1547,-3.2454,-3.2569,-3.2822,-3.3281,-3.3281,-3.3281,-3.3269,-3.2628,-3.2215,-3.2041,-3.117,-3.0683,-3.0556,0.0,0.0,-3.1766,-3.2202,-3.2877,-3.358,-3.3131,-3.288,-3.2695,-3.2229,-3.1609,-3.0924,0.0,0.0,0.0,0.0,0.0,0.0,0.0,0.0,0.0,0.0,0.0,0.0,0.0,0.0,0.0,0.0,0.0,0.0,0.0,0.0,0.0,0.0,0.0,0.0,0.0,0.0,0.0,0.0,0.0,0.0,-0.9957,-1.0097,-1.066,0.0,0.0,0.0,0.0,-1.3285,-1.3664,-1.4113,-1.4575,0.0,0.0,0.0,0.0,0.0,0.0,0.0,0.0,-1.5362,-1.5977,-1.6662,-1.6741,0.0,0.0,0.0,0.0,0.0,-1.6974,-1.7197,-1.7254,-1.7546,-1.8192,-1.8705,0.0,0.0,0.0,0.0,0.0,0.0,0.0,0.0,0.0,0.0,0.0,0.0,0.0,0.0,0.0,0.0,0.0,0.0,0.0,0.0,0.0,0.0,0.0,0.0,0.0,-3.1698,-3.1903,-3.2466,-3.2925,-3.3201,-3.3281,-3.3281,-3.3281,-3.3281,-3.317,-3.269,-3.1849,-3.17,-3.1135,-3.0261,0.0,-3.0882,-3.1766,-3.1894,-3.248,-3.3331,-3.3281,-3.2969,-3.2555,-3.2443,-3.1891,-3.0939,0.0,0.0,0.0,0.0,0.0,0.0,0.0,0.0,0.0,0.0,0.0,0.0,0.0,0.0,0.0,0.0,0.0,0.0,0.0,0.0,0.0,0.0,0.0,0.0,0.0,0.0,0.0,0.0,0.0,-0.9343,-0.9358,-1.0021,-1.0932,-1.204,0.0,0.0,0.0,-1.2972,-1.3259,-1.3609,0.0,0.0,0.0,0.0,0.0,0.0,0.0,0.0,0.0,0.0,-1.5867,-1.6518,-1.7081,0.0,0.0,0.0,0.0,0.0,-1.7156,-1.744,-1.7569,-1.7739,-1.8314,-1.8894,0.0,0.0,0.0,0.0,0.0,0.0,0.0,0.0,0.0,0.0,0.0,0.0,0.0,0.0,0.0,0.0,0.0,0.0,0.0,0.0,0.0,0.0,0.0,0.0,0.0,0.0,-3.1374,-3.2271,-3.2533,-3.2708,-3.2856,-3.2856,-3.2856,-3.2845,-3.2581,-3.2064,-3.1352,-3.1065,-3.0663,-3.0227,0.0,-3.1065,-3.1766,-3.2041,-3.2604,-3.3231,-3.2757,-3.2443,-3.2179,-3.1742,-3.1211,-3.0528,0.0,0.0,0.0,0.0,0.0,0.0,0.0,0.0,0.0,0.0,0.0,0.0,0.0,0.0,0.0,0.0,0.0,0.0,0.0,0.0,0.0,0.0,0.0,0.0,0.0,0.0,0.0,-0.9057,-0.9649,-0.959,-0.8953,-1.0032,-1.1015,0.0,0.0,0.0,0.0,-1.2683,-1.291,-1.3194,0.0,0.0,0.0,0.0,0.0,0.0,0.0,0.0,0.0,0.0,0.0,0.0,0.0,0.0,0.0,-1.7346,-1.6955,-1.6436,-1.7017,-1.7364,-1.7635,-1.7897,0.0,0.0,0.0,0.0,0.0,0.0,0.0,0.0,0.0,0.0,0.0,0.0,0.0,0.0,0.0,0.0,0.0,0.0,0.0,0.0,0.0,0.0,0.0,0.0,0.0,0.0,0.0,0.0,-3.0914,-3.1977,-3.1946,-3.2025,-3.222,-3.2317,-3.2374,-3.2477,-3.2087,-3.172,-3.1352,-3.0939,-3.0686,-3.0606,-3.1019,-3.1456,-3.1926,-3.2202,-3.2695,-3.3119,-3.2308,-3.1977,-3.1801,-3.0982,-3.0342,-2.984,0.0,0.0,0.0,0.0,0.0,0.0,0.0,0.0,0.0,0.0,0.0,0.0,0.0,0.0,0.0,0.0,0.0,0.0,0.0,0.0,0.0,0.0,0.0,0.0,0.0,-0.9707,-0.9847,-1.009,-0.9663,-0.9614,-0.9895,-1.0383,-1.074,-1.1012,0.0,0.0,0.0,-1.244,-1.2922,-1.3301,-1.3405,0.0,0.0,0.0,0.0,0.0,0.0,0.0,0.0,0.0,0.0,0.0,0.0,0.0,-1.7187,-1.6457,-1.6143,-1.604,-1.6173,-1.6584,-1.7093,-1.7666,0.0,0.0,0.0,0.0,0.0,0.0,0.0,0.0,0.0,0.0,0.0,0.0,0.0,0.0,0.0,0.0,0.0,0.0,0.0,0.0,0.0,0.0,0.0,0.0,0.0,0.0,0.0,0.0,0.0,-3.1692,-3.1532,-3.144,-3.1488,-3.1727,-3.2089,-3.2489,-3.2443,-3.2408,-3.2374,-3.234,-3.2076,-3.171,-3.1744,-3.1984,-3.2397,-3.1984,-3.23,-3.2885,-3.2297,-3.1878,-3.152,-3.0586,-2.9762,-2.8901,0.0,0.0,0.0,0.0,0.0,0.0,0.0,0.0,0.0,0.0,0.0,0.0,0.0,0.0,0.0,0.0,0.0,0.0,0.0,0.0,0.0,0.0,0.0,-0.8704,-0.9239,-0.9785,-0.9932,-0.964,-0.9425,-0.9725,-1.0512,-1.0658,0.0,0.0,0.0,0.0,0.0,-1.1852,-1.2305,-1.2877,-1.3023,-1.3389,0.0,0.0,0.0,0.0,0.0,0.0,0.0,0.0,-1.6018,-1.6715,0.0,0.0,-1.6589,-1.6298,-1.598,-1.5766,-1.6184,-1.6419,-1.6756,-1.7691,0.0,0.0,0.0,0.0,0.0,0.0,0.0,0.0,0.0,0.0,0.0,0.0,0.0,0.0,0.0,0.0,0.0,0.0,0.0,0.0,0.0,0.0,0.0,0.0,0.0,0.0,0.0,0.0,0.0,-3.1406,-3.1098,-3.1131,-3.1622,-3.1563,-3.1702,-3.2041,-3.2041,-3.2041,-3.2041,-3.2041,-3.1986,-3.1813,-3.1813,-3.1917,-3.2078,-3.1882,-3.1791,-3.1622,-3.0784,-3.0212,-2.9931,-2.9391,-2.8655,-2.7878,0.0,0.0,0.0,0.0,0.0,0.0,0.0,0.0,0.0,0.0,0.0,0.0,0.0,0.0,0.0,0.0,0.0,0.0,0.0,0.0,0.0,0.0,0.0,-0.8532,-0.8916,-0.9715,-0.9904,-0.9416,-0.9408,-0.9698,-1.0292,0.0,0.0,0.0,0.0,0.0,0.0,0.0,-1.2044,-1.2788,-1.273,-1.3085,0.0,0.0,0.0,0.0,0.0,0.0,0.0,0.0,0.0,0.0,0.0,0.0,0.0,0.0,-1.5692,-1.566,-1.6094,-1.6405,-1.6805,0.0,0.0,0.0,0.0,0.0,0.0,0.0,0.0,0.0,0.0,0.0,0.0,0.0,0.0,0.0,0.0,0.0,0.0,0.0,0.0,0.0,0.0,0.0,0.0,0.0,0.0,0.0,0.0,0.0,0.0,0.0,-3.0552,-3.0626,-3.1275,-3.1154,-3.1329,-3.1899,-3.1899,-3.2039,-3.2248,-3.2199,-3.2108,-3.2043,-3.1947,-3.1855,-3.179,-3.141,-3.0942,-3.0348,-2.9688,-2.9169,-2.8764,-2.8519,-2.7777,-2.6949,0.0,0.0,0.0,0.0,0.0,0.0,0.0,0.0,0.0,0.0,0.0,0.0,0.0,0.0,0.0,0.0,0.0,0.0,0.0,0.0,0.0,0.0,0.0,-0.8599,-0.8784,-0.9451,-0.9757,-0.9686,-0.9621,-0.9469,-0.9231,0.0,0.0,0.0,0.0,0.0,0.0,0.0,0.0,-1.3136,-1.252,-1.2896,-1.3744,0.0,0.0,0.0,0.0,0.0,0.0,0.0,0.0,0.0,0.0,0.0,0.0,0.0,-1.5152,-1.5704,-1.5766,-1.6493,0.0,0.0,0.0,0.0,0.0,0.0,0.0,0.0,0.0,0.0,0.0,0.0,0.0,0.0,0.0,0.0,0.0,0.0,0.0,0.0,0.0,0.0,0.0,0.0,0.0,0.0,0.0,0.0,0.0,0.0,0.0,0.0,-2.9905,-2.9921,-3.0209,-3.0494,-3.1111,-3.2097,-3.2109,-3.2529,-3.3281,-3.3042,-3.2746,-3.2489,-3.2195,-3.1971,-3.1685,-3.0641,-2.976,-2.9124,-2.9392,-2.9027,-2.8336,-2.8063,-2.7223,-2.6238,0.0,0.0,0.0,0.0,0.0,0.0,0.0,0.0,0.0,0.0,0.0,0.0,0.0,0.0,0.0,0.0,0.0,0.0,0.0,0.0,0.0,0.0,0.0,0.0,0.0,0.0,-0.9419,-0.9476,-0.9798,-0.997,0.0,0.0,0.0,-1.1162,0.0,0.0,0.0,0.0,0.0,-1.219,-1.1878,-1.22,-1.2854,0.0,0.0,0.0,0.0,0.0,0.0,0.0,0.0,0.0,0.0,0.0,0.0,-1.4866,-1.4894,-1.5114,-1.5771,0.0,0.0,0.0,0.0,0.0,0.0,0.0,0.0,0.0,0.0,0.0,0.0,0.0,0.0,0.0,0.0,0.0,0.0,0.0,0.0,0.0,0.0,0.0,0.0,0.0,0.0,0.0,0.0,0.0,0.0,0.0,0.0,0.0,-3.0771,-3.0866,-3.154,-3.1247,-3.1325,-3.1813,-3.1951,-3.2509,-3.3281,-3.3042,-3.2851,-3.273,-3.2119,-3.1282,-3.0357,-2.9138,-2.8354,-2.7839,-2.7905,-2.7426,-2.6603,-2.656,-2.61,-2.5575,0.0,0.0,0.0,0.0,0.0,0.0,0.0,0.0,0.0,0.0,0.0,0.0,0.0,0.0,0.0,0.0,0.0,0.0,0.0,0.0,0.0,0.0,0.0,0.0,0.0,-0.922,-0.934,0.0,0.0,0.0,0.0,0.0,0.0,-1.1338,0.0,0.0,0.0,0.0,0.0,0.0,-1.1807,-1.2058,-1.2532,0.0,0.0,0.0,0.0,0.0,0.0,0.0,0.0,0.0,0.0,0.0,0.0,-1.4794,-1.4928,-1.5139,-1.5823,0.0,0.0,0.0,0.0,0.0,0.0,0.0,0.0,0.0,0.0,0.0,0.0,0.0,0.0,0.0,0.0,0.0,0.0,0.0,0.0,0.0,0.0,0.0,0.0,0.0,0.0,0.0,0.0,0.0,0.0,0.0,0.0,0.0,-3.0929,-3.1129,-3.1595,-3.1368,-3.1329,-3.1418,-3.1606,-3.1901,-3.2241,-3.2437,-3.2403,-3.2085,-3.1155,-3.0092,-2.8927,-2.7874,-2.7203,-2.6875,-2.6758,-2.6268,-2.5647,-2.5813,-2.5561,-2.5149,0.0,0.0,0.0,0.0,0.0,0.0,0.0,0.0,0.0,0.0,0.0,0.0,0.0,0.0,0.0,0.0,0.0,0.0,0.0,0.0,0.0,0.0,0.0,0.0,0.0,0.0,0.0,0.0,0.0,0.0,0.0,0.0,-1.0631,-1.1128,0.0,-1.1591,0.0,0.0,0.0,0.0,0.0,-1.2228,0.0,0.0,0.0,0.0,0.0,0.0,0.0,0.0,0.0,0.0,0.0,0.0,0.0,-1.4719,-1.511,-1.5428,0.0,0.0,0.0,0.0,0.0,0.0,0.0,0.0,0.0,0.0,0.0,0.0,0.0,0.0,0.0,0.0,0.0,0.0,0.0,0.0,0.0,0.0,0.0,0.0,0.0,0.0,0.0,0.0,0.0,0.0,0.0,0.0,0.0,-3.0099,-3.0542,-3.0781,-3.0751,-3.0989,-3.0998,-3.0849,-3.1042,-3.091,-3.0458,-3.1423,-3.1506,-3.0812,-2.9573,-2.8495,-2.758,-2.6827,-2.6329,-2.6022,-2.5912,-2.554,-2.5168,-2.5616,-2.5324,-2.4859,0.0,0.0,0.0,0.0,0.0,0.0,0.0,0.0,0.0,0.0,0.0,0.0,0.0,0.0,0.0,0.0,0.0,0.0,0.0,0.0,0.0,0.0,0.0,0.0,0.0,0.0,0.0,0.0,0.0,0.0,0.0,0.0,0.0,-1.1272,0.0,-1.1591,0.0,0.0,0.0,0.0,0.0,0.0,0.0,0.0,0.0,0.0,0.0,0.0,0.0,0.0,0.0,0.0,-1.3942,-1.3925,-1.3973,-1.4565,-1.4888,0.0,0.0,0.0,0.0,0.0,0.0,0.0,0.0,0.0,0.0,0.0,0.0,0.0,0.0,0.0,0.0,0.0,0.0,0.0,0.0,0.0,0.0,0.0,0.0,0.0,0.0,0.0,0.0,0.0,0.0,0.0,0.0,0.0,0.0,-3.064,-3.026,-3.0132,-3.0328,-2.9851,-2.9564,0.0,-2.9758,-2.9622,-2.916,-3.0329,-3.058,-2.9954,-2.8228,-2.737,-2.7101,-2.6347,-2.5576,-2.494,-2.5461,-2.5153,-2.4446,-2.4538,-2.4474,-2.441,0.0,0.0,0.0,0.0,0.0,0.0,0.0,0.0,0.0,0.0,0.0,0.0,0.0,0.0,0.0,0.0,0.0,0.0,0.0,0.0,0.0,0.0,0.0,0.0,0.0,0.0,0.0,0.0,0.0,0.0,0.0,0.0,0.0,-1.1466,0.0,-1.1534,0.0,0.0,0.0,0.0,0.0,0.0,0.0,0.0,0.0,0.0,0.0,0.0,0.0,0.0,0.0,0.0,0.0,0.0,-1.4292,-1.4972,-1.53,-1.5523,0.0,0.0,0.0,0.0,0.0,0.0,0.0,0.0,0.0,0.0,0.0,0.0,0.0,0.0,0.0,0.0,0.0,0.0,0.0,0.0,0.0,0.0,0.0,0.0,0.0,0.0,0.0,0.0,0.0,0.0,0.0,-2.9293,-2.9756,-2.9595,-2.9408,-2.933,-2.933,-2.9165,-2.8892,-2.8571,-2.8956,-2.8838,-2.8381,-2.9294,-2.9343,-2.8737,-2.7509,-2.6753,-2.6256,-2.543,-2.4833,-2.4506,-2.4673,-2.4527,-2.4206,-2.4206,-2.4249,-2.4366,0.0,0.0,0.0,0.0,0.0,0.0,0.0,0.0,0.0,0.0,0.0,0.0,0.0,0.0,0.0,0.0,0.0,0.0,0.0,0.0,0.0,0.0,0.0,0.0,0.0,0.0,0.0,0.0,0.0,0.0,0.0,0.0,0.0,-1.156,0.0,0.0,0.0,0.0,0.0,0.0,0.0,0.0,0.0,0.0,0.0,0.0,0.0,-1.2996,-1.2945,-1.3507,0.0,0.0,0.0,0.0,-1.4716,-1.5332,-1.5701,-1.598,0.0,0.0,0.0,0.0,0.0,0.0,0.0,0.0,0.0,0.0,0.0,0.0,0.0,0.0,0.0,0.0,0.0,0.0,0.0,0.0,0.0,0.0,0.0,0.0,0.0,0.0,0.0,0.0,0.0,0.0,-2.7653,-2.818,-2.8421,-2.8237,-2.8329,-2.8364,-2.8229,-2.8494,-2.8389,-2.7834,-2.8264,-2.8195,-2.7751,-2.8142,-2.8074,-2.7563,-2.7043,-2.6306,-2.5401,-2.4553,-2.4282,-2.4325,-2.3927,-2.3894,-2.4077,-2.411,-2.4282,-2.4411,0.0,0.0,0.0,0.0,0.0,0.0,0.0,0.0,0.0,0.0,0.0,0.0,0.0,0.0,0.0,0.0,0.0,0.0,-0.7899,0.0,0.0,-0.8865,0.0,0.0,0.0,0.0,0.0,0.0,0.0,0.0,0.0,0.0,0.0,0.0,0.0,0.0,0.0,0.0,0.0,0.0,0.0,0.0,0.0,0.0,0.0,0.0,0.0,0.0,-1.3156,-1.3815,-1.4037,0.0,0.0,0.0,-1.4621,-1.4716,-1.5205,0.0,0.0,0.0,0.0,0.0,0.0,0.0,0.0,0.0,0.0,0.0,0.0,0.0,0.0,0.0,0.0,0.0,0.0,0.0,0.0,0.0,0.0,0.0,0.0,0.0,0.0,0.0,0.0,0.0,0.0,0.0,-2.6943,-2.7427,-2.7827,-2.7924,-2.7281,-2.7088,-2.7459,-2.7118,-2.6971,-2.7033,-2.7364,-2.7248,-2.6801,-2.6863,-2.6956,-2.7022,-2.6358,-2.5644,-2.4938,-2.4433,-2.4067,-2.3884,-2.3624,-2.3547,-2.3634,-2.3807,-2.4024,-2.4249,0.0,0.0,0.0,0.0,0.0,0.0,0.0,0.0,0.0,0.0,0.0,0.0,0.0,0.0,0.0,-0.8118,-0.8085,-0.8064,-0.8064,-0.8307,-0.8555,-0.8735,-0.9243,0.0,0.0,0.0,0.0,0.0,0.0,0.0,0.0,-1.0635,-1.1077,0.0,0.0,0.0,0.0,0.0,0.0,0.0,0.0,0.0,0.0,0.0,0.0,0.0,0.0,0.0,0.0,-1.397,-1.4038,-1.3832,-1.4316,0.0,0.0,0.0,-1.5451,0.0,0.0,0.0,0.0,0.0,0.0,0.0,0.0,0.0,0.0,0.0,0.0,0.0,0.0,0.0,0.0,0.0,0.0,0.0,0.0,0.0,0.0,0.0,0.0,0.0,0.0,0.0,0.0,0.0,0.0,-2.6691,-2.6437,-2.6633,-2.6788,-2.6873,-2.6433,-2.6271,-2.647,-2.6511,-2.6591,-2.6707,-2.6869,-2.6812,-2.6615,-2.6439,-2.6306,-2.615,-2.5797,-2.5278,-2.4638,-2.4293,-2.3931,-2.3654,-2.3815,-2.3958,-2.4121,-2.445,-2.4818,-2.5122,0.0,0.0,0.0,0.0,0.0,0.0,0.0,0.0,0.0,0.0,0.0,0.0,0.0,0.0,0.0,0.0,-0.8188,-0.8134,-0.8134,-0.8209,-0.8378,-0.8662,-0.9049,-0.9314,0.0,0.0,0.0,0.0,0.0,0.0,-1.0073,-1.0772,-1.1216,0.0,-1.1696,0.0,0.0,0.0,0.0,0.0,0.0,0.0,0.0,0.0,0.0,0.0,0.0,0.0,0.0,0.0,-1.4137,-1.3866,-1.4299,-1.4449,0.0,0.0,0.0,0.0,0.0,0.0,0.0,0.0,0.0,0.0,0.0,0.0,0.0,0.0,0.0,0.0,0.0,0.0,0.0,0.0,0.0,0.0,0.0,0.0,0.0,0.0,0.0,0.0,0.0,0.0,0.0,0.0,0.0,-2.6207,-2.6004,-2.5969,-2.5963,-2.601,-2.5691,-2.5653,-2.5879,-2.6274,-2.6532,-2.6615,-2.6646,-2.6574,-2.6392,-2.6249,-2.5987,-2.5569,-2.5569,-2.5179,-2.4541,-2.4351,-2.4073,-2.3772,-2.4197,-2.4461,-2.4626,-2.5103,-2.5533,-2.5834,0.0,0.0,0.0,0.0,0.0,0.0,0.0,0.0,0.0,0.0,0.0,0.0,0.0,-0.8258,-0.827,-0.8459,-0.8139,-0.7912,-0.7912,-0.8209,-0.8448,-0.859,-0.9102,0.0,-0.9596,0.0,0.0,0.0,0.0,0.0,-0.9927,-1.0618,-1.1052,-1.1297,-1.1509,-1.1451,-1.1171,0.0,0.0,0.0,0.0,0.0,0.0,0.0,0.0,0.0,0.0,0.0,0.0,0.0,-1.4454,-1.4552,-1.4568,-1.4575,-1.4689,0.0,0.0,0.0,0.0,0.0,0.0,0.0,0.0,0.0,0.0,0.0,0.0,0.0,0.0,0.0,0.0,0.0,0.0,0.0,0.0,0.0,0.0,0.0,0.0,0.0,0.0,0.0,0.0,0.0,0.0,0.0,0.0,-2.5742,-2.5732,-2.5541,-2.553,-2.5822,-2.5169,-2.5253,-2.6062,-2.6377,-2.653,-2.6615,-2.6787,-2.6541,-2.5927,-2.6105,-2.6066,-2.5792,-2.5792,-2.5401,-2.4762,-2.4762,-2.4615,-2.4401,-2.4661,-2.4772,-2.4864,-2.5361,-2.5725,-2.5875,0.0,0.0,0.0,0.0,0.0,0.0,0.0,0.0,0.0,0.0,0.0,0.0,0.0,-0.8114,-0.8087,-0.8288,-0.825,-0.8229,-0.8229,-0.8332,-0.8482,-0.8648,-0.9139,-0.9455,-0.9596,0.0,0.0,0.0,0.0,-1.0201,-1.0332,-1.0553,-1.0857,-1.1255,-1.1543,-1.1575,-1.1461,-1.1672,0.0,0.0,0.0,0.0,0.0,0.0,0.0,0.0,0.0,0.0,0.0,0.0,0.0,-1.4276,-1.4561,-1.4562,-1.4539,-1.5219,-1.5748,0.0,0.0,0.0,0.0,0.0,0.0,0.0,0.0,0.0,0.0,0.0,0.0,0.0,0.0,0.0,0.0,0.0,0.0,0.0,0.0,0.0,0.0,0.0,0.0,0.0,0.0,0.0,0.0,0.0,0.0,0.0,-2.5693,-2.5408,-2.5258,-2.5352,-2.5092,-2.5408,-2.635,-2.6124,-2.6077,-2.6179,-2.6553,-2.6403,-2.5896,-2.6095,-2.6333,-2.6503,-2.6313,-2.5767,-2.5031,-2.5172,-2.5013,-2.473,-2.5414,-2.571,-2.575,-2.6262,-2.6598,-2.677,0.0,0.0,0.0,0.0,0.0,0.0,0.0,0.0,0.0,0.0,0.0,0.0,0.0,0.0,-0.7959,-0.809,-0.8311,-0.8394,-0.8262,-0.8353,-0.8559,-0.8877,-0.9225,-0.9549,-0.9889,0.0,0.0,0.0,0.0,0.0,0.0,0.0,-1.0476,-1.0894,-1.1108,0.0,0.0,0.0,0.0,-1.0781,0.0,0.0,-1.185,0.0,0.0,0.0,0.0,0.0,0.0,0.0,0.0,0.0,0.0,-1.4543,-1.4643,-1.5092,-1.5628,0.0,0.0,0.0,0.0,0.0,0.0,0.0,0.0,0.0,0.0,0.0,0.0,0.0,0.0,0.0,0.0,0.0,0.0,0.0,0.0,0.0,0.0,0.0,0.0,0.0,0.0,0.0,0.0,0.0,0.0,0.0,-2.544,-2.5257,-2.5004,-2.4759,-2.4797,-2.5226,-2.5912,-2.5611,-2.5623,-2.5986,-2.6341,-2.6367,-2.6123,-2.632,-2.6615,-2.69,-2.6602,-2.6134,-2.5569,-2.5769,-2.5647,-2.5455,-2.6168,-2.6421,-2.6462,-2.6873,-2.7177,-2.7268,0.0,0.0,0.0,0.0,0.0,0.0,0.0,0.0,0.0,0.0,0.0,0.0,0.0,0.0,0.0,-0.7919,-0.8291,-0.8365,-0.8041,-0.8262,-0.8662,-0.9259,-0.9375,-0.9755,-1.0464,0.0,0.0,0.0,0.0,0.0,0.0,0.0,-0.9922,0.0,-1.0248,-1.0217,-1.0101,0.0,-1.0521,-1.0224,0.0,-1.2693,-1.219,0.0,0.0,0.0,-1.4707,-1.4883,0.0,-1.4541,0.0,0.0,0.0,0.0,0.0,-1.4925,0.0,0.0,0.0,0.0,0.0,0.0,0.0,0.0,0.0,0.0,0.0,0.0,0.0,0.0,0.0,0.0,0.0,0.0,0.0,0.0,0.0,0.0,0.0,0.0,0.0,0.0,0.0,0.0,0.0,0.0,0.0,-2.5186,-2.4932,-2.5167,-2.4881,-2.4036,-2.4275,-2.4526,-2.4832,-2.4812,-2.5261,-2.6217,-2.6217,-2.6346,-2.6615,-2.6808,-2.688,-2.688,-2.663,-2.6486,-2.6496,-2.6496,-2.6496,-2.6544,-2.6794,-2.69,-2.6948,-2.7214,-2.7309,-2.7309,0.0,0.0,0.0,0.0,0.0,0.0,0.0,0.0,0.0,0.0,0.0,0.0,0.0,0.0,-0.8438,-0.8152,-0.8519,-0.8656,-0.8386,-0.8439,-0.8627,-0.9002,-0.9446,-0.9808,-1.0065,0.0,0.0,0.0,0.0,0.0,0.0,0.0,0.0,0.0,-0.9859,-0.9705,-0.9649,-1.0453,0.0,0.0,-1.2177,-1.2785,0.0,0.0,0.0,0.0,0.0,-1.4931,-1.4713,0.0,-1.5266,-1.5332,0.0,0.0,0.0,0.0,0.0,0.0,-1.6373,0.0,0.0,0.0,0.0,0.0,0.0,0.0,0.0,0.0,0.0,0.0,0.0,0.0,0.0,0.0,0.0,0.0,0.0,0.0,0.0,0.0,0.0,0.0,0.0,0.0,0.0,0.0,-2.4883,-2.5088,-2.5186,-2.5179,-2.4851,-2.425,-2.4347,-2.4763,-2.5437,-2.5016,-2.5261,-2.6217,-2.6196,-2.6162,-2.6127,-2.6512,-2.6671,-2.6671,-2.6625,-2.6763,-2.7071,-2.689,-2.6805,-2.6805,-2.7071,-2.7167,-2.7225,-2.7262,-2.7309,-2.7357,0.0,0.0,0.0,0.0,0.0,0.0,0.0,0.0,0.0,0.0,0.0,0.0,0.0,0.0,-0.8853,-0.8559,-0.8757,-0.8832,-0.8688,-0.8486,-0.8524,-0.8889,-0.9366,-0.9713,-0.989,0.0,0.0,0.0,0.0,0.0,0.0,0.0,0.0,0.0,0.0,0.0,0.0,0.0,0.0,0.0,-1.1904,0.0,0.0,-1.4508,-1.5116,0.0,0.0,0.0,-1.6052,-1.5891,-1.5712,0.0,0.0,0.0,0.0,0.0,0.0,0.0,0.0,0.0,0.0,0.0,0.0,0.0,0.0,-1.84,0.0,0.0,0.0,0.0,0.0,0.0,0.0,0.0,0.0,0.0,0.0,0.0,0.0,0.0,0.0,0.0,0.0,0.0,0.0,-2.439,-2.4587,-2.4784,-2.4981,-2.4727,-2.4374,-2.389,-2.383,-2.4061,-2.461,-2.4552,-2.4844,-2.5524,-2.5911,-2.5961,-2.578,-2.6361,-2.6615,-2.6625,-2.6822,-2.7061,-2.7309,-2.7129,-2.7081,-2.7081,-2.7214,-2.7309,-2.7309,-2.7309,-2.7309,-2.7326,0.0,0.0,0.0,0.0,0.0,0.0,0.0,0.0,0.0,0.0,0.0,0.0,0.0,0.0,0.0,0.0,-0.9033,-0.8979,-0.8969,-0.8561,-0.8508,-0.8923,-0.9301,-0.9628,-0.989,0.0,0.0,0.0,0.0,0.0,0.0,0.0,0.0,0.0,0.0,0.0,0.0,0.0,0.0,-1.0946,-1.1631,-1.2334,0.0,0.0,-1.5713,0.0,-1.5994,-1.6873,-1.7878,-1.6856,-1.63,0.0,0.0,0.0,0.0,0.0,-1.4969,0.0,0.0,0.0,0.0,0.0,0.0,0.0,-1.7666,-1.7761,-1.8114,0.0,0.0,0.0,0.0,0.0,0.0,0.0,0.0,0.0,0.0,0.0,0.0,0.0,0.0,0.0,0.0,-2.3925,-2.4073,-2.4073,-2.4251,-2.434,-2.43,-2.4063,-2.3699,-2.3251,-2.3138,-2.3078,-2.3133,-2.3773,-2.424,-2.4536,-2.5336,-2.5663,-2.5574,-2.6182,-2.6527,-2.6599,-2.705,-2.7258,-2.7309,-2.7309,-2.7309,-2.7309,-2.7309,-2.7309,-2.7309,-2.7309,-2.7309,-2.7247,-1.0312,0.0,0.0,0.0,0.0,0.0,0.0,0.0,0.0,0.0,0.0,0.0,0.0,0.0,0.0,0.0,-0.962,-0.9471,-0.9304,-0.9217,-0.9164,-0.9143,-0.977,-1.006,-0.9898,-0.9977,0.0,0.0,0.0,0.0,0.0,0.0,0.0,0.0,0.0,0.0,0.0,0.0,0.0,-1.0894,-1.167,0.0,-1.4709,-1.5467,-1.6332,-1.7189,-1.7286,-1.7445,-1.7587,0.0,-1.7051,-1.6643,0.0,0.0,0.0,0.0,0.0,0.0,0.0,0.0,0.0,0.0,0.0,0.0,-1.7234,-1.7557,-1.7931,0.0,0.0,0.0,0.0,0.0,0.0,0.0,0.0,0.0,0.0,0.0,0.0,0.0,0.0,0.0,0.0,-2.3142,-2.3142,-2.3142,-2.3408,-2.3446,-2.3228,-2.357,-2.3495,-2.3007,-2.3373,-2.3466,-2.3271,-2.3455,-2.3868,-2.448,-2.4545,-2.4781,-2.528,-2.5645,-2.5972,-2.631,-2.6625,-2.6957,-2.7309,-2.7309,-2.7309,-2.7309,-2.7309,-2.7309,-2.7309,-2.7309,-2.7309,-2.7347,-1.0417,0.0,0.0,0.0,0.0,0.0,0.0,0.0,0.0,0.0,0.0,0.0,0.0,0.0,0.0,0.0,0.0,-0.9654,-0.9461,-0.9327,-0.9203,-0.9113,-0.9676,-0.9865,-0.9613,-0.9741,-0.9754,0.0,0.0,0.0,0.0,0.0,0.0,0.0,0.0,0.0,0.0,0.0,-1.0408,-1.1649,-1.1126,0.0,-1.3247,-1.4193,-1.5308,-1.6409,-1.6791,-1.7165,-1.7478,-1.7678,-1.7371,0.0,0.0,-1.5273,-1.4929,0.0,-1.4561,-1.5356,0.0,0.0,0.0,-1.7004,0.0,0.0,0.0,-1.7358,-1.7725,0.0,0.0,0.0,0.0,0.0,0.0,0.0,0.0,0.0,0.0,0.0,0.0,0.0,0.0,0.0,0.0,-2.2809,-2.2753,-2.2753,-2.2885,-2.2933,-2.2904,-2.313,-2.3084,-2.2602,-2.2862,-2.2852,-2.252,-2.3112,-2.3429,-2.3474,-2.4068,-2.4336,-2.4391,-2.499,-2.5426,-2.5695,-2.5972,-2.6501,-2.7061,-2.6861,-2.695,-2.7309,-2.7309,-2.7309,-2.7309,-2.7309,-2.7309,-2.7326,-1.0326,0.0,0.0,0.0,0.0,0.0,0.0,0.0,0.0,0.0,0.0,0.0,0.0,0.0,0.0,0.0,0.0,0.0,0.0,-0.9442,-0.9289,-0.9263,-0.9555,-0.9644,-0.9487,-0.9519,-0.9571,-0.9708,0.0,0.0,0.0,0.0,0.0,0.0,0.0,0.0,0.0,0.0,0.0,-1.2358,0.0,-1.0779,-1.2091,-1.3376,-1.4642,-1.5842,-1.6364,-1.7041,-1.7682,-1.7889,0.0,-1.6812,-1.5662,-1.5142,0.0,0.0,0.0,0.0,0.0,0.0,0.0,0.0,0.0,-1.6638,0.0,0.0,0.0,0.0,0.0,0.0,0.0,0.0,0.0,0.0,0.0,0.0,0.0,0.0,0.0,0.0,0.0,0.0,0.0,-2.2289,-2.2215,-2.2297,-2.2306,-2.2399,-2.2547,-2.2629,-2.2519,-2.2272,-2.2254,-2.2107,-2.183,-2.2827,-2.3051,-2.2485,-2.3673,-2.3968,-2.3598,-2.4408,-2.4901,-2.5133,-2.5473,-2.6023,-2.6737,-2.6386,-2.6686,-2.7309,-2.7309,-2.7309,-2.7309,-2.7309,-2.7309,-2.7258,-0.9839,-1.0382,0.0,0.0,0.0,0.0,0.0,0.0,0.0,0.0,0.0,0.0,0.0,0.0,0.0,0.0,0.0,0.0,-1.0128,0.0,-1.0109,-1.0143,-0.9916,-0.9918,-1.0168,-0.9561,-0.9392,-0.9708,0.0,0.0,0.0,0.0,0.0,0.0,-0.9179,0.0,0.0,0.0,-1.062,0.0,-1.0974,-1.2279,0.0,-1.5643,-1.6728,-1.7765,-1.7792,-1.8129,-1.8483,0.0,-1.7779,-1.7656,0.0,-1.5608,-1.4693,0.0,0.0,0.0,0.0,0.0,0.0,0.0,-1.6495,0.0,0.0,0.0,0.0,0.0,0.0,0.0,0.0,0.0,0.0,0.0,0.0,0.0,0.0,0.0,0.0,0.0,0.0,0.0,0.0,0.0,-2.0891,-2.1248,-2.1275,-2.1275,-2.1319,-2.1623,-2.194,-2.2117,-2.2117,-2.2188,-2.2309,-2.2675,-2.2851,-2.2759,-2.3106,-2.3433,-2.3765,-2.4138,-2.4486,-2.4894,-2.5371,-2.5875,-2.6304,-2.6496,-2.6837,-2.7309,-2.7309,-2.7309,-2.7309,-2.7309,-2.7309,-2.7299,-1.021,-1.0459,0.0,0.0,0.0,0.0,0.0,0.0,0.0,0.0,0.0,0.0,0.0,0.0,0.0,0.0,0.0,-1.0438,0.0,0.0,0.0,-1.035,-1.0015,-0.9862,-1.0017,-0.97,-0.9643,-0.9811,-0.9702,0.0,0.0,0.0,0.0,0.0,-0.9429,0.0,-1.1544,0.0,0.0,0.0,0.0,0.0,0.0,-1.4567,-1.537,-1.7072,-1.8172,-1.8313,-1.791,0.0,-1.7489,0.0,0.0,0.0,0.0,0.0,0.0,0.0,0.0,0.0,0.0,0.0,0.0,0.0,-1.7544,0.0,-1.833,0.0,0.0,0.0,0.0,0.0,0.0,0.0,0.0,0.0,0.0,0.0,0.0,0.0,0.0,0.0,0.0,0.0,0.0,0.0,0.0,-2.0641,-2.0769,-2.1154,-2.1418,-2.1505,-2.1878,-2.2141,-2.223,-2.2627,-2.2803,-2.2803,-2.3013,-2.3188,-2.3408,-2.3683,-2.3974,-2.4224,-2.4336,-2.4851,-2.5625,-2.5727,-2.6213,-2.6926,-2.7195,-2.7309,-2.7262,-2.7129,-2.7177,-2.7262,-1.0687,0.0,0.0,0.0,0.0,0.0,0.0,0.0,0.0,0.0,0.0,0.0,-1.0254,-1.0532,0.0,0.0,-1.0538,-1.0604,0.0,0.0,-1.0257,0.0,0.0,0.0,0.0,-0.9949,-0.9863,-0.994,-0.9678,0.0,0.0,0.0,0.0,0.0,0.0,-1.0613,-1.2017,0.0,0.0,-1.4503,-1.4054,-1.4424,-1.5158,-1.4287,-1.4894,-1.6386,-1.8063,-1.8152,-1.7473,-1.7432,-1.7212,0.0,-1.5786,0.0,0.0,0.0,0.0,0.0,-1.5221,0.0,0.0,0.0,0.0,0.0,0.0,0.0,0.0,0.0,0.0,0.0,0.0,0.0,0.0,0.0,0.0,0.0,0.0,0.0,0.0,0.0,0.0,0.0,0.0,0.0,0.0,-1.9779,-1.9929,-2.0076,-2.0182,-2.0769,-2.1151,-2.1194,-2.1829,-2.223,-2.2274,-2.2662,-2.2882,-2.2882,-2.3013,-2.3091,-2.3101,-2.3319,-2.3452,-2.3594,-2.3545,-2.4088,-2.5087,-2.5178,-2.5788,-2.6702,-2.6985,-2.7119,-2.7167,-2.7034,-2.7034,-2.7071,-1.106,-1.0989,0.0,0.0,0.0,0.0,0.0,0.0,0.0,0.0,0.0,0.0,0.0,0.0,0.0,0.0,0.0,-1.0766,-1.1138,0.0,-1.0737,0.0,0.0,-1.0543,0.0,-1.0366,-0.9996,-1.0002,-0.9587,-0.9376,0.0,0.0,0.0,0.0,0.0,-1.053,-1.1644,-1.186,-1.2846,-1.4217,-1.4265,-1.4198,-1.4293,0.0,-1.6714,-1.6517,-1.7416,0.0,0.0,-1.7473,-1.7212,0.0,0.0,0.0,0.0,0.0,0.0,0.0,0.0,0.0,0.0,-1.4991,0.0,0.0,0.0,0.0,-1.8012,0.0,0.0,0.0,0.0,0.0,0.0,-1.8652,0.0,0.0,0.0,0.0,0.0,0.0,0.0,0.0,0.0,0.0,0.0,-1.8742,-1.9303,-1.9555,-1.9338,-2.0466,-2.1238,-2.1463,-2.2083,-2.253,-2.2803,-2.2969,-2.3101,-2.3101,-2.3091,-2.3091,-2.3091,-2.3101,-2.3101,-2.3164,-2.3373,-2.3989,-2.4848,-2.5087,-2.5888,-2.688,-2.664,-2.6699,-2.6948,-2.7167,-2.6976,-2.6592,0.0,0.0,0.0,0.0,0.0,0.0,0.0,-1.0726,0.0,0.0,0.0,0.0,0.0,0.0,-1.1485,0.0,0.0,-1.1502,-1.1448,-1.1135,0.0,0.0,0.0,-1.0616,0.0,0.0,-1.0418,-1.0418,-0.9994,-0.9775,0.0,0.0,0.0,0.0,0.0,-1.0796,0.0,0.0,0.0,0.0,0.0,-1.4677,-1.4115,0.0,0.0,-1.601,-1.6518,-1.7146,0.0,-1.7473,-1.7343,-1.7098,-1.6188,-1.5984,-1.5902,-1.5126,-1.4537,0.0,0.0,0.0,-1.4625,-1.5098,0.0,0.0,0.0,0.0,0.0,0.0,0.0,0.0,0.0,0.0,0.0,-1.8198,0.0,0.0,0.0,0.0,0.0,0.0,0.0,0.0,0.0,0.0,0.0,-1.8489,-1.8802,-1.8955,-1.8916,-2.0063,-2.085,-2.1104,-2.1951,-2.253,-2.2803,-2.3013,-2.3091,-2.3091,-2.3091,-2.3091,-2.3091,-2.3091,-2.3091,-2.311,-2.3536,-2.3954,-2.4405,-2.5093,-2.5698,-2.6189,-2.6433,-2.6448,-2.64,-2.6486,-2.6486,-2.6488,-1.0797,0.0,0.0,0.0,0.0,0.0,0.0,0.0,0.0,0.0,-1.0936,0.0,-1.1384,0.0,-1.1857,0.0,-1.2211,-1.2135,-1.1824,-1.1617,0.0,-1.179,-1.1188,0.0,0.0,0.0,0.0,-1.1179,-1.0459,-1.011,0.0,0.0,0.0,0.0,0.0,0.0,0.0,0.0,-1.3533,0.0,0.0,-1.4859,0.0,0.0,-1.4559,-1.5126,0.0,-1.7105,-1.7448,-1.7416,-1.7416,-1.7237,-1.6278,-1.6251,-1.6407,-1.5592,-1.4996,-1.4591,-1.4417,-1.4403,0.0,-1.4641,-1.5453,0.0,-1.6035,0.0,0.0,0.0,0.0,0.0,0.0,0.0,0.0,0.0,-1.7179,0.0,0.0,-1.7081,0.0,0.0,0.0,0.0,0.0,0.0,-1.8013,-1.786,-1.8202,-1.8423,0.0,0.0,-2.0458,-2.0899,-2.1876,-2.253,-2.2803,-2.3013,-2.3091,-2.3091,-2.3091,-2.3091,-2.3091,-2.3091,-2.3179,-2.3389,-2.3662,-2.4055,-2.4506,-2.5125,-2.5593,-2.5952,-2.6146,-2.6159,-2.6091,-2.6197,-2.6442,-2.6671,0.0,0.0,0.0,0.0,-1.0512,0.0,0.0,0.0,-1.0093,0.0,-1.0659,-1.0685,-1.1236,-1.1441,-1.184,-1.2485,-1.2682,0.0,-1.2215,-1.2159,0.0,0.0,-1.1903,-1.2103,-1.3033,0.0,0.0,0.0,0.0,0.0,0.0,0.0,0.0,0.0,-1.0121,0.0,-1.0849,-1.2619,-1.3483,-1.3822,-1.4922,-1.471,-1.3661,-1.3392,-1.3399,-1.3965,-1.6816,-1.7498,-1.7066,-1.7302,-1.7383,-1.718,-1.6046,-1.5846,-1.5869,-1.5382,-1.5014,-1.4647,-1.4204,-1.3866,-1.366,-1.3777,0.0,0.0,0.0,0.0,-1.5532,0.0,0.0,0.0,0.0,0.0,0.0,0.0,0.0,0.0,0.0,0.0,0.0,0.0,0.0,0.0,0.0,-1.7358,-1.7332,-1.6943,-1.7426,0.0,0.0,0.0,-2.0154,-2.0824,-2.181,-2.2473,-2.2775,-2.2984,-2.3071,-2.3091,-2.3091,-2.3091,-2.3091,-2.3091,-2.3379,-2.3789,-2.3809,-2.4297,-2.5116,-2.5135,-2.5485,-2.6052,-2.5781,-2.5868,-2.61,-2.6372,-2.6739,-2.6953,-1.1243,-1.1106,-1.1122,0.0,-1.1178,-1.0972,0.0,0.0,0.0,0.0,-1.1435,-1.1902,-1.2544,-1.2395,-1.2439,-1.2969,-1.3215,0.0,0.0,0.0,0.0,-1.2289,-1.1728,-1.1744,-1.2486,-1.21,0.0,-1.1759,0.0,0.0,-1.0569,0.0,0.0,0.0,0.0,0.0,-1.1203,-1.2228,-1.3173,-1.4062,-1.4873,-1.4455,0.0,0.0,-1.4239,-1.358,-1.5039,-1.6385,-1.7404,-1.7111,-1.6952,-1.6707,-1.6037,-1.5867,-1.5895,-1.5771,-1.5465,-1.5201,-1.5079,-1.5194,-1.5168,-1.4294,-1.4645,-1.487,0.0,0.0,0.0,0.0,0.0,0.0,0.0,0.0,0.0,0.0,0.0,0.0,0.0,0.0,0.0,-1.6447,0.0,0.0,-1.7358,-1.7185,-1.7072,-1.7132,-1.7124,0.0,0.0,0.0,0.0,-1.9756,-2.0893,-2.1826,-2.259,-2.2633,-2.2789,-2.3091,-2.3091,-2.3091,-2.3091,-2.3091,-2.3379,-2.3809,-2.4121,-2.456,-2.5145,-2.543,-2.5625,-2.5781,-2.5732,-2.5732,-2.5869,-2.6291,-2.6487,-2.6615,-1.1174,0.0,0.0,-1.1451,0.0,0.0,-1.1076,0.0,0.0,-1.147,-1.158,0.0,-1.2662,-1.2537,-1.2589,-1.3071,-1.3635,0.0,-1.2902,0.0,0.0,-1.2797,-1.2264,-1.2248,-1.2796,-1.2265,0.0,-1.2142,0.0,0.0,-1.0619,0.0,0.0,0.0,0.0,-1.0439,0.0,-1.2289,-1.3365,-1.4153,-1.4845,0.0,0.0,-1.4628,-1.4658,-1.4306,-1.4939,-1.5821,-1.6747,-1.6726,-1.6568,-1.638,-1.6104,-1.6066,-1.6154,-1.6154,-1.6009,-1.5768,-1.5411,-1.5351,-1.5279,-1.4727,-1.4638,-1.4467,-1.3694,-1.3928,-1.4171,0.0,0.0,0.0,0.0,0.0,0.0,0.0,0.0,0.0,0.0,0.0,0.0,0.0,-1.598,0.0,-1.6438,-1.6517,-1.6517,-1.6473,0.0,0.0,0.0,0.0,0.0,-1.9571,-2.0379,-2.116,-2.2039,-2.1964,-2.2186,-2.2698,-2.2698,-2.2829,-2.3091,-2.3091,-2.3379,-2.3809,-2.4091,-2.4481,-2.4927,-2.5208,-2.5333,-2.5333,-2.5489,-2.5654,-2.5917,-2.6454,-2.666,-2.6697,0.0,0.0,0.0,0.0,0.0,0.0,0.0,-1.1314,0.0,-1.1759,0.0,-1.1585,-1.2355,-1.2412,-1.2577,-1.3023,0.0,-1.406,-1.3632,-1.4153,-1.4178,-1.3568,-1.3071,-1.302,-1.348,-1.2584,-1.2282,0.0,0.0,0.0,0.0,0.0,0.0,0.0,0.0,0.0,0.0,-1.2547,-1.3608,0.0,-1.4771,-1.4687,-1.413,-1.432,-1.4788,-1.5342,-1.5606,-1.5821,-1.6015,-1.6377,-1.6432,-1.6328,-1.6178,-1.6292,-1.6564,-1.6518,-1.6454,-1.6255,-1.5586,-1.5182,-1.4958,-1.5057,-1.4497,-1.3939,-1.4062,-1.4156,-1.3952,-1.3174,-1.3604,-1.4028,0.0,0.0,0.0,0.0,0.0,0.0,0.0,0.0,0.0,0.0,0.0,0.0,-1.5026,-1.5594,-1.585,0.0,0.0,0.0,0.0,0.0,0.0,-1.9511,-1.9838,-2.0435,-2.1377,0.0,-2.1526,-2.2145,-2.2236,-2.2534,-2.3003,-2.3003,-2.3275,-2.3806,-2.3927,-2.4229,-2.4727,-2.4838,-2.4883,-2.4932,-2.5137,-2.5514,-2.5939,-2.6565,-2.6861,-2.6926,0.0,0.0,0.0,0.0,0.0,-1.1372,-1.1993,-1.2071,-1.2111,-1.2119,-1.2168,-1.2458,-1.3193,-1.3042,-1.302,-1.3461,-1.3453,0.0,0.0,0.0,0.0,-1.4106,-1.3262,-1.302,-1.348,-1.2925,-1.2535,0.0,-1.1641,-1.0985,0.0,0.0,0.0,0.0,0.0,0.0,-1.1182,-1.2344,0.0,-1.3355,-1.42,-1.4368,-1.4115,-1.4392,-1.4546,-1.4754,-1.5389,-1.6329,-1.719,-1.6667,-1.6869,-1.7198,-1.6358,-1.6487,-1.6847,-1.6652,-1.6563,-1.6546,-1.6404,-1.6302,-1.6088,-1.5215,-1.48,-1.4274,-1.322,-1.3057,-1.3103,-1.2949,-1.3074,-1.3272,-1.3348,0.0,0.0,0.0,0.0,0.0,0.0,0.0,0.0,0.0,0.0,-1.4605,0.0,0.0,0.0,0.0,0.0,0.0,0.0,0.0,0.0,0.0,-1.8419,0.0,0.0,0.0,-2.16,-2.1878,-2.2438,-2.2639,-2.252,-2.252,-2.2938,-2.3717,-2.3737,-2.4165,-2.4886,-2.4903,-2.4883,-2.4883,-2.4932,-2.5028,-2.5142,-2.5669,-2.6041,-2.6492,0.0,0.0,0.0,0.0,0.0,0.0,0.0,-1.1903,0.0,-1.2422,-1.2238,-1.2336,-1.2974,-1.2782,-1.2746,-1.3219,-1.3518,-1.3734,-1.3736,-1.4134,-1.4343,-1.4288,-1.3718,0.0,-1.3715,-1.3115,-1.2598,-1.2272,-1.1836,-1.1117,-1.0139,0.0,0.0,0.0,0.0,-1.1085,0.0,0.0,0.0,-1.3534,-1.4376,-1.4484,-1.4122,-1.4409,-1.4616,-1.4834,-1.5154,-1.6046,-1.6938,-1.6137,-1.6127,-1.6377,-1.5791,-1.6034,-1.6534,-1.6258,-1.6298,-1.6339,-1.6055,-1.5825,-1.5569,-1.5279,-1.4635,-1.3983,-1.3623,-1.3512,-1.3374,-1.2911,-1.3074,-1.3192,-1.2882,-1.2644,0.0,0.0,0.0,0.0,0.0,0.0,0.0,0.0,0.0,0.0,0.0,0.0,0.0,0.0,0.0,0.0,0.0,0.0,0.0,0.0,0.0,0.0,0.0,0.0,0.0,-2.1334,-2.1868,-2.2224,-2.2397,-2.2615,-2.2926,-2.3323,-2.3674,-2.4002,-2.4386,-2.4503,-2.4548,-2.4548,-2.4637,-2.4817,-2.5083,-2.549,-2.578,-2.6121,0.0,-1.179,0.0,0.0,-1.1621,0.0,-1.1627,-1.1778,-1.2087,-1.2665,-1.237,-1.2258,-1.2747,-1.264,-1.2638,-1.3032,-1.3622,-1.3952,-1.3865,-1.4733,-1.4959,-1.434,-1.4099,-1.3945,-1.3811,-1.3186,-1.2729,0.0,-1.2004,-1.1225,-1.0144,0.0,0.0,0.0,0.0,0.0,0.0,0.0,-1.391,-1.3785,-1.45,-1.4579,-1.4208,-1.4502,-1.4752,-1.5,-1.5101,-1.5631,-1.6264,-1.5418,-1.5392,-1.5617,-1.5272,-1.5575,-1.5954,-1.573,-1.5825,-1.5961,-1.5534,-1.5159,-1.5022,-1.5343,-1.4609,-1.3918,-1.4247,-1.4148,-1.3811,-1.2985,-1.3091,-1.3154,-1.246,-1.2022,0.0,0.0,0.0,0.0,0.0,0.0,0.0,0.0,0.0,0.0,-1.2943,0.0,0.0,0.0,0.0,0.0,0.0,0.0,0.0,0.0,0.0,-1.7288,-1.8959,0.0,-1.9913,-2.0786,-2.1312,-2.1861,-2.2405,-2.268,-2.2914,-2.312,-2.3596,-2.389,-2.3968,-2.406,-2.4148,-2.4221,-2.4328,-2.4634,-2.5023,-2.5174,-2.5344,-2.5618,0.0,0.0,0.0,0.0,0.0,0.0,0.0,-1.2403,-1.2528,-1.2857,-1.2988,-1.3154,-1.34,-1.3522,-1.3539,-1.3545,-1.3346,-1.3473,-1.413,-1.4338,-1.4387,-1.4286,-1.4274,-1.4034,-1.3539,-1.3247,-1.2842,0.0,-1.2004,-1.1396,-1.0606,-0.9978,0.0,0.0,0.0,0.0,0.0,-1.2975,-1.3312,-1.3479,-1.3985,-1.4295,-1.4516,-1.481,-1.4961,-1.5054,-1.5349,-1.552,-1.554,-1.4943,-1.5548,-1.6358,-1.5676,-1.5486,-1.5439,-1.522,-1.5363,-1.554,-1.5493,-1.5588,-1.5642,-1.554,-1.5194,-1.4826,-1.4403,-1.4084,-1.3793,-1.3341,-1.287,-1.2441,-1.2196,-1.1884,-1.1869,0.0,0.0,0.0,0.0,0.0,-1.2818,-1.2909,0.0,0.0,0.0,-1.3156,0.0,0.0,0.0,0.0,0.0,0.0,0.0,-1.6403,0.0,-1.6965,-1.8868,-1.9704,-2.0225,-2.0464,-2.1307,-2.1887,-2.2318,-2.2181,-2.26,-2.3485,-2.351,-2.3812,-2.4265,-2.3931,-2.4012,-2.426,-2.399,-2.4022,-2.4257,-2.4058,-2.4373,-2.4895,0.0,0.0,0.0,0.0,0.0,0.0,0.0,-1.2329,-1.257,-1.3024,-1.2537,-1.2569,-1.3515,-1.3199,-1.3141,-1.3659,-1.3631,-1.369,-1.4005,-1.4339,-1.4481,-1.4292,-1.4298,-1.425,-1.4208,-1.363,-1.3253,0.0,0.0,-1.2002,-1.1308,-1.0904,0.0,0.0,0.0,-1.2897,-1.3536,-1.3882,-1.4015,-1.4097,-1.4499,-1.4576,-1.4526,-1.4856,-1.5009,-1.5007,-1.5205,-1.5356,-1.5493,-1.5255,-1.5404,-1.5601,-1.5166,-1.5118,-1.5213,-1.5124,-1.5172,-1.522,-1.507,-1.4968,-1.4921,-1.5016,-1.4831,-1.4479,-1.3925,-1.3952,-1.3863,-1.3099,-1.2628,-1.2367,-1.24,-1.1827,-1.1596,0.0,0.0,0.0,0.0,0.0,0.0,0.0,0.0,-1.2201,0.0,0.0,0.0,0.0,0.0,0.0,0.0,0.0,0.0,-1.5734,0.0,-1.6829,-1.8713,-1.9312,-1.9868,-2.043,-2.1248,-2.1816,-2.2116,-2.2512,-2.3133,-2.3904,-2.3904,-2.4048,-2.4231,-2.4117,-2.3995,-2.3998,-2.4079,-2.4065,-2.4014,-2.4056,-2.4265,-2.4515,-1.1584,0.0,-1.107,0.0,-1.1922,-1.1844,-1.2403,-1.2514,-1.2748,-1.3456,-1.2567,-1.2301,-1.3449,-1.3148,-1.3078,-1.3676,-1.3842,-1.3945,-1.3985,-1.444,-1.4496,-1.4058,-1.4154,0.0,-1.4208,-1.3678,-1.3346,-1.3298,-1.2961,-1.2478,-1.1808,-1.1722,0.0,0.0,-1.313,-1.3704,-1.4182,-1.4389,-1.4423,-1.4324,-1.462,-1.4658,-1.4571,-1.4787,-1.4881,-1.4937,-1.5054,-1.522,-1.5404,-1.5493,-1.5356,-1.5172,-1.4975,-1.4981,-1.4987,-1.4987,-1.5035,-1.5083,-1.4885,-1.4783,-1.4729,-1.4688,-1.464,-1.4391,-1.3774,-1.3986,-1.4136,-1.3329,-1.2771,-1.2422,-1.2503,-1.1817,-1.1441,-1.2105,0.0,0.0,0.0,0.0,0.0,0.0,-1.198,-1.1632,-1.2224,-1.2342,0.0,0.0,0.0,0.0,0.0,0.0,0.0,0.0,0.0,0.0,0.0,-1.9144,-1.9756,-2.0561,-2.1251,-2.1864,-2.2348,-2.3072,-2.373,-2.4202,-2.4102,-2.4067,-2.4126,-2.39,-2.3768,-2.3743,-2.3854,-2.3885,-2.3923,-2.4011,-2.4098,-2.4233,-1.0931,-1.0464,-1.0417,-1.177,-1.2287,-1.2674,-1.3291,-1.3198,-1.3366,-1.4166,-1.3351,-1.2808,-1.3158,-1.36,-1.3796,-1.3637,-1.3773,-1.4022,-1.4292,-1.4538,-1.4352,0.0,0.0,-1.3667,-1.3147,-1.3098,-1.3001,-1.2813,0.0,0.0,-1.2089,0.0,-1.2671,-1.3192,-1.3666,-1.3906,-1.39,-1.4139,-1.4047,-1.383,-1.4084,-1.4372,-1.4617,-1.4595,-1.4641,-1.4736,-1.4981,-1.5083,-1.5131,-1.5404,-1.5493,-1.5493,-1.5493,-1.5118,-1.4688,-1.4688,-1.4885,-1.5083,-1.5083,-1.541,-1.5594,-1.4879,-1.4885,-1.4885,-1.4064,-1.4298,-1.4621,-1.4229,-1.3411,-1.2614,-1.2355,-1.1927,-1.1513,-1.1272,0.0,0.0,0.0,0.0,0.0,-1.188,-1.1597,-1.1632,-1.2224,0.0,0.0,0.0,0.0,0.0,0.0,0.0,0.0,-1.5435,-1.6349,0.0,-1.8775,-1.9442,-2.0148,-2.0912,-2.1377,-2.2102,-2.3102,-2.3861,-2.4192,-2.4202,-2.3904,-2.382,-2.3854,-2.3263,-2.3223,-2.3478,-2.3153,-2.3393,-2.3836,-2.3548,-2.3604,-2.389,-1.1011,-1.0829,-1.1031,-1.2126,-1.2443,-1.2892,-1.4021,-1.4068,-1.3991,-1.4221,-1.3797,-1.3507,-1.3408,-1.3536,-1.3836,0.0,-1.407,-1.407,0.0,-1.449,-1.4298,-1.4058,-1.4154,-1.401,-1.3636,-1.3636,-1.3443,-1.3001,0.0,0.0,0.0,-1.2983,-1.3354,-1.3689,-1.4028,-1.4264,-1.4378,-1.4232,-1.4166,-1.4091,-1.437,-1.4523,-1.4601,-1.4647,-1.481,-1.4987,-1.5083,-1.522,-1.5404,-1.5635,-1.5588,-1.554,-1.5642,-1.5493,-1.5261,-1.5261,-1.5309,-1.5356,-1.5356,-1.5499,-1.5499,-1.5077,-1.5035,-1.4795,-1.3628,-1.3491,-1.3761,-1.4366,-1.3648,-1.2886,-1.2616,-1.1939,-1.1416,-1.146,-1.1598,0.0,0.0,0.0,-1.1899,-1.2926,-1.1957,-1.1618,0.0,-1.2869,0.0,0.0,0.0,0.0,0.0,0.0,0.0,0.0,-1.6607,0.0,-1.8603,-1.9232,-1.9878,-2.0623,-2.1208,-2.2014,-2.307,-2.3443,-2.3646,-2.3655,-2.3546,-2.3527,-2.3524,-2.335,-2.3375,-2.3512,-2.339,-2.3522,-2.3757,-2.3538,-2.3417,-2.3324,-1.1689,-1.1365,-1.1487,-1.2644,-1.2566,-1.2775,-1.4114,-1.4078,-1.3939,-1.4069,-1.3963,-1.3865,-1.3823,-1.3775,0.0,-1.4646,-1.431,-1.4262,-1.4688,-1.4256,-1.401,-1.401,-1.3913,-1.3823,-1.3738,-1.3636,0.0,-1.3244,-1.3244,-1.3249,-1.3201,-1.3491,-1.3775,-1.4052,-1.425,-1.4351,-1.4481,-1.4292,-1.4232,-1.4239,-1.4422,-1.4472,-1.4456,-1.4535,-1.4742,-1.4939,-1.4939,-1.5172,-1.5493,-1.5547,-1.5499,-1.5493,-1.5547,-1.5452,-1.5356,-1.5493,-1.5452,-1.5309,-1.5213,-1.5356,-1.535,-1.4783,-1.4885,-1.4896,-1.4187,-1.393,-1.4053,-1.4747,-1.4154,-1.3361,-1.2917,-1.223,-1.1651,-1.1517,-1.1629,-1.182,-1.2126,0.0,-1.1651,0.0,0.0,0.0,0.0,-1.3099,-1.3183,0.0,0.0,0.0,0.0,0.0,0.0,-1.5792,-1.7012,0.0,-1.8671,-1.9354,-1.995,-2.0598,-2.144,-2.2229,-2.2996,-2.3247,-2.3397,-2.3397,-2.3297,-2.3247,-2.3247,-2.3147,-2.3173,-2.3306,-2.3057,-2.3263,-2.3649,-2.3135,-2.2989,-2.2885,-1.2705,-1.1981,0.0,0.0,-1.2675,0.0,-1.3613,-1.35,-1.3431,-1.3872,-1.3919,-1.4022,-1.425,-1.4298,-1.4442,-1.4694,0.0,0.0,0.0,-1.3925,-1.3491,-1.3491,-1.3249,-1.3244,-1.3491,-1.3249,-1.3298,-1.3539,-1.3491,-1.3642,-1.3883,-1.3883,-1.4022,-1.425,-1.4298,-1.4298,-1.4298,-1.4298,-1.4248,-1.4188,-1.4291,-1.4242,-1.4194,-1.4297,-1.4496,-1.4688,-1.4688,-1.5022,-1.5452,-1.5226,-1.5267,-1.5404,-1.5172,-1.5083,-1.5083,-1.5404,-1.5267,-1.5035,-1.479,-1.5118,-1.5207,-1.4244,-1.4526,-1.5105,-1.5445,-1.5296,-1.5171,-1.5358,-1.4787,-1.4001,-1.3233,-1.2707,-1.2155,-1.1435,-1.1527,-1.1616,-1.133,-1.0951,-1.0907,0.0,0.0,0.0,0.0,-1.3213,-1.3608,0.0,0.0,0.0,0.0,0.0,-1.5066,-1.6121,-1.7504,-1.8425,-1.8929,-1.9665,-2.0264,-2.0725,-2.1877,-2.2577,-2.2828,-2.3138,-2.3297,-2.3297,-2.3046,-2.2946,-2.2946,-2.2695,-2.2775,-2.3023,-2.2325,-2.2723,-2.3484,-2.2494,-2.2307,-2.2507,0.0,0.0,-1.2088,-1.2791,-1.2592,-1.2666,-1.3734,-1.3973,-1.4076,-1.419,-1.4374,-1.4448,-1.4298,-1.449,-1.464,-1.4688,-1.4262,-1.4027,-1.4076,-1.3738,-1.3491,-1.3491,-1.3443,-1.3443,-1.3491,-1.3642,-1.3738,-1.3786,-1.3588,-1.3539,-1.3593,-1.3786,-1.3931,-1.4022,-1.4208,-1.4298,-1.4298,-1.4298,-1.431,-1.4255,-1.4274,-1.431,-1.4255,-1.4274,-1.4496,-1.4688,-1.4688,-1.4933,-1.522,-1.5356,-1.5166,-1.4927,-1.5309,-1.4975,-1.4592,-1.5077,-1.4981,-1.4885,-1.5213,-1.5261,-1.5124,-1.4885,-1.4634,-1.4675,-1.5352,-1.5282,-1.5159,-1.5365,-1.493,-1.4225,-1.3278,-1.2707,-1.2155,-1.1435,-1.1527,-1.1548,-1.1128,-1.1138,-1.1402,0.0,-1.1916,-1.224,-1.3467,-1.377,-1.3891,0.0,0.0,0.0,0.0,-1.5101,-1.5433,-1.5965,-1.7285,-1.8045,-1.8168,-1.9007,-1.9829,-2.0725,-2.1537,-2.1928,-2.1971,-2.2283,-2.2434,-2.2434,-2.2594,-2.2695,-2.2695,-2.2333,-2.246,-2.2773,-2.2274,-2.2314,-2.257,-2.2248,-2.1885,-2.1593,-1.2454,-1.2395,-1.2433,-1.2734,-1.2547,-1.2739,-1.3728,-1.3823,-1.3914,-1.4245,-1.4452,-1.4442,-1.4298,-1.4442,-1.4544,-1.4544,-1.4256,-1.4016,-1.3919,-1.3534,-1.3298,-1.3201,-1.3249,-1.3394,-1.3491,-1.3738,-1.3979,-1.407,-1.3919,-1.3871,-1.3871,-1.4022,-1.407,-1.407,-1.4118,-1.4112,-1.4112,-1.3968,-1.3919,-1.3968,-1.4064,-1.4202,-1.4298,-1.4448,-1.4729,-1.5016,-1.4783,-1.4933,-1.5267,-1.5166,-1.4927,-1.4736,-1.5022,-1.4729,-1.4394,-1.479,-1.4885,-1.4933,-1.507,-1.5213,-1.5267,-1.5267,-1.5057,-1.498,-1.5507,-1.5516,-1.5451,-1.5551,-1.5173,-1.4462,-1.3505,-1.2935,-1.2342,-1.1586,-1.1305,-1.1128,-1.0846,-1.0895,0.0,-1.1801,-1.2236,-1.2853,-1.3944,-1.4289,-1.4455,-1.4419,-1.4618,0.0,-1.5392,-1.5734,-1.606,-1.6499,-1.7303,-1.7841,-1.7995,-1.8769,-1.9662,-2.0618,-2.1089,-2.142,-2.1522,-2.1776,-2.1979,-2.2131,-2.2283,-2.2384,-2.2342,-2.2182,-2.2247,-2.2461,-2.1925,-2.1956,-2.2245,-2.1763,-2.142,-2.1275,-1.2516,-1.2651,-1.2805,-1.278,-1.2637,-1.2882,-1.375,-1.3616,-1.3644,-1.4231,-1.4322,-1.4346,-1.4298,-1.4298,-1.4298,-1.4298,-1.4298,-1.4154,-1.3859,-1.3383,-1.3001,-1.2861,-1.3001,-1.3244,-1.3539,-1.3835,-1.407,-1.4298,-1.4298,-1.4298,-1.4298,-1.425,-1.425,-1.4256,-1.4022,-1.3883,-1.3835,-1.3684,-1.3588,-1.3539,-1.3829,-1.407,-1.425,-1.4544,-1.4927,-1.5255,-1.4783,-1.4927,-1.5255,-1.4831,-1.4688,-1.464,-1.4688,-1.4544,-1.4346,-1.464,-1.4885,-1.5083,-1.4879,-1.5166,-1.554,-1.554,-1.5507,-1.5535,-1.5771,-1.5758,-1.5678,-1.5764,-1.5371,-1.4701,-1.382,-1.3225,-1.261,-1.1831,-1.11,-1.0613,-1.0642,0.0,-1.0829,-1.1346,-1.2422,-1.3411,-1.4124,-1.4701,-1.5008,-1.5008,-1.5174,-1.5411,-1.5735,-1.6175,-1.6658,-1.7204,-1.7477,-1.7751,-1.8079,-1.8758,-1.9491,-2.0315,-2.0672,-2.0968,-2.1173,-2.1522,-2.1776,-2.1979,-2.2021,-2.2021,-2.2021,-2.1979,-2.2069,-2.2067,-2.1499,-2.1615,-2.2015,-2.1242,-2.107,-2.1224,-1.2813,-1.278,-1.2857,-1.2997,-1.3193,-1.3457,-1.3768,-1.4185,-1.4427,-1.4294,-1.4498,-1.4544,-1.4346,-1.4298,-1.4298,-1.4298,-1.4298,-1.4106,-1.3588,-1.3292,-1.3098,-1.305,-1.3098,-1.3346,-1.3835,-1.4112,-1.425,-1.4298,-1.4298,-1.4298,-1.4298,-1.407,-1.3979,-1.3979,-1.3931,-1.3786,-1.3588,-1.401,-1.3919,-1.3539,-1.4064,-1.4118,-1.3979,-1.4256,-1.4394,-1.449,-1.4394,-1.4442,-1.449,-1.464,-1.4544,-1.4394,-1.464,-1.4544,-1.4346,-1.464,-1.4885,-1.5131,-1.5309,-1.554,-1.5737,-1.5737,-1.5598,-1.5485,-1.5724,-1.5451,-1.5237,-1.5732,-1.5358,-1.4773,-1.3994,-1.3435,-1.2783,-1.1871,-1.1074,-1.0664,-1.0892,0.0,-1.109,-1.1807,-1.2759,-1.3593,-1.4141,-1.4701,-1.5008,-1.5008,-1.5053,-1.5334,-1.599,-1.5975,-1.6352,-1.7252,-1.7546,-1.7809,-1.8087,-1.8758,-1.9155,-1.9319,-2.014,-2.0565,-2.0617,-2.1121,-2.1369,-2.142,-2.1674,-2.1776,-2.1725,-2.1522,-2.146,-2.145,-2.1342,-2.1205,-2.115,-2.1189,-2.1121,-2.0968,-1.2667,-1.291,-1.3135,-1.2911,-1.3336,-1.3744,-1.3781,-1.3938,-1.4119,-1.4241,-1.4249,-1.4283,-1.428,-1.4298,-1.4298,-1.4298,-1.4298,-1.4112,-1.3738,-1.3443,-1.3244,-1.3098,-1.3249,-1.3588,-1.4118,-1.425,-1.4298,-1.4298,-1.4298,-1.4256,-1.407,-1.3979,-1.3835,-1.3684,-1.3684,-1.3636,-1.3539,-1.3775,-1.363,-1.334,-1.3727,-1.3871,-1.3919,-1.4202,-1.4496,-1.4694,-1.4592,-1.4544,-1.4544,-1.464,-1.4538,-1.4346,-1.4442,-1.4496,-1.4496,-1.449,-1.4879,-1.5356,-1.5588,-1.5832,-1.5974,-1.5832,-1.5826,-1.5812,-1.5798,-1.5504,-1.5277,-1.5538,-1.5166,-1.4546,-1.3808,-1.3285,-1.2712,-1.1965,-1.1138,0.0,0.0,-1.1251,-1.1521,-1.1985,-1.3258,-1.4206,-1.443,-1.5068,-1.5431,-1.5431,-1.5576,-1.5769,-1.6139,-1.6192,-1.6441,-1.6904,-1.7293,-1.7609,-1.7921,-1.8234,-1.866,-1.9169,-1.9732,-2.013,-2.03,-2.0865,-2.107,-2.1121,-2.1377,-2.1471,-2.1471,-2.1369,-2.1224,-2.107,-2.107,-2.1027,-2.0917,-2.1019,-2.1027,-2.0925,-1.2544,-1.2925,-1.3199,-1.2871,-1.3426,-1.3918,-1.3943,-1.3912,-1.3976,-1.4268,-1.4087,-1.4052,-1.4272,-1.4255,-1.4232,-1.4292,-1.4298,-1.4208,-1.3931,-1.369,-1.3491,-1.3292,-1.3534,-1.3871,-1.4298,-1.4298,-1.425,-1.4208,-1.425,-1.4124,-1.3789,-1.3885,-1.3706,-1.341,-1.3521,-1.3496,-1.3406,-1.3607,-1.3491,-1.3195,-1.3534,-1.3817,-1.4004,-1.4202,-1.4544,-1.4885,-1.4688,-1.4592,-1.4496,-1.4592,-1.4448,-1.4256,-1.4346,-1.449,-1.4592,-1.4586,-1.5064,-1.5588,-1.5778,-1.5927,-1.6062,-1.5792,-1.5873,-1.5953,-1.5692,-1.5404,-1.5211,-1.5284,-1.4921,-1.4379,-1.3637,-1.3162,-1.2674,-1.2048,0.0,0.0,0.0,-1.157,-1.1877,-1.2292,-1.374,-1.4713,-1.4777,-1.5417,-1.5784,-1.5784,-1.5981,-1.613,-1.6224,-1.6359,-1.644,-1.6494,-1.6911,-1.7297,-1.7719,-1.7792,-1.8267,-1.9085,-1.9479,-1.9747,-2.0034,-2.0498,-2.0763,-2.0822,-2.1019,-2.1173,-2.1224,-2.1224,-2.107,-2.0925,-2.0925,-2.0925,-2.0925,-2.0925,-2.0925,-2.0925,-1.2526,-1.2631,-1.2897,-1.3025,-1.3524,-1.404,-1.4388,-1.4705,-1.4809,-1.4617,-1.4347,-1.4176,-1.4232,-1.4029,-1.4032,-1.4274,-1.4298,-1.4208,-1.3931,-1.3883,-1.3883,-1.3835,-1.4112,-1.425,-1.4298,-1.4298,-1.416,-1.3931,-1.416,-1.4028,-1.3555,-1.379,-1.3618,-1.3163,-1.3641,-1.3602,-1.3191,-1.3903,-1.3919,-1.3539,-1.401,-1.425,-1.425,-1.4298,-1.4346,-1.4346,-1.4346,-1.416,-1.3979,-1.425,-1.416,-1.4027,-1.4502,-1.4496,-1.449,-1.5207,-1.5588,-1.5784,-1.5784,-1.5832,-1.5765,-1.5498,-1.5424,-1.5403,-1.5135,-1.4796,-1.4663,-1.4981,-1.4756,-1.4278,-1.3601,-1.329,-1.2789,-1.1876,0.0,0.0,-1.1564,-1.1699,-1.2042,-1.3029,-1.3983,-1.4728,-1.5048,-1.5517,-1.5784,-1.5784,-1.5832,-1.5933,-1.6177,-1.5974,-1.5974,-1.6224,-1.6494,-1.6878,-1.7437,-1.7738,-1.8203,-1.884,-1.9398,-1.9709,-1.9732,-2.0034,-2.0292,-2.0514,-2.0565,-2.0719,-2.0925,-2.0925,-2.0925,-2.0925,-2.0925,-2.0925,-2.0925,-2.0925,-2.0925,-2.0925,-1.2919,-1.2916,-1.3084,-1.3421,-1.3762,-1.4176,-1.4581,-1.4514,-1.4439,-1.4531,-1.4191,-1.4034,-1.4189,-1.4128,-1.4142,-1.4221,-1.4239,-1.4218,-1.4148,-1.416,-1.407,-1.3931,-1.416,-1.4298,-1.4298,-1.4298,-1.425,-1.416,-1.425,-1.4112,-1.3766,-1.3666,-1.353,-1.328,-1.3381,-1.3383,-1.3401,-1.3848,-1.3815,-1.3548,-1.4285,-1.4634,-1.4819,-1.4914,-1.5194,-1.5432,-1.5105,-1.4831,-1.4652,-1.4592,-1.4496,-1.4406,-1.4448,-1.4729,-1.5112,-1.554,-1.5635,-1.5635,-1.5784,-1.5927,-1.5994,-1.5738,-1.5759,-1.5785,-1.5343,-1.5144,-1.499,-1.4743,-1.4596,-1.425,-1.3432,-1.3043,-1.2606,-1.1849,0.0,-1.117,-1.1656,-1.1949,-1.2484,-1.335,-1.4157,-1.4844,-1.5323,-1.5623,-1.5784,-1.5784,-1.5784,-1.5832,-1.5927,-1.5879,-1.5784,-1.5784,-1.5872,-1.6402,-1.7389,-1.771,-1.8132,-1.8549,-1.8964,-1.9177,-1.922,-1.9778,-1.9992,-1.9948,-2.0296,-2.0498,-2.0607,-2.0829,-2.0925,-2.0925,-2.0925,-2.0925,-2.0925,-2.0925,-2.1027,-2.1121,-1.3187,-1.3118,-1.3192,-1.3548,-1.3808,-1.413,-1.4552,-1.4363,-1.4276,-1.4435,-1.4073,-1.3879,-1.4123,-1.4065,-1.3993,-1.4084,-1.4016,-1.3997,-1.4039,-1.4051,-1.4034,-1.4016,-1.4208,-1.4298,-1.4298,-1.4214,-1.4124,-1.4028,-1.414,-1.4011,-1.3664,-1.3698,-1.3598,-1.3393,-1.3338,-1.3429,-1.3622,-1.3843,-1.3854,-1.3803,-1.4369,-1.4825,-1.5194,-1.5296,-1.5635,-1.6008,-1.5575,-1.5207,-1.4939,-1.4736,-1.4598,-1.4454,-1.4442,-1.4921,-1.554,-1.5683,-1.5635,-1.5588,-1.5689,-1.5832,-1.5913,-1.5718,-1.5859,-1.5927,-1.5397,-1.5331,-1.5257,-1.4763,-1.4663,-1.4436,-1.3641,-1.3261,-1.2838,-1.2137,-1.1893,-1.1789,-1.1839,-1.2294,-1.2854,-1.3543,-1.4147,-1.4737,-1.5201,-1.5452,-1.5499,-1.535,-1.5499,-1.5594,-1.5594,-1.5594,-1.5547,-1.5493,-1.568,-1.6257,-1.7295,-1.7464,-1.7873,-1.8547,-1.8745,-1.8906,-1.9015,-1.9502,-1.9687,-1.9595,-1.9936,-2.0176,-2.0257,-2.0607,-2.075,-2.0766,-2.0877,-2.0968,-2.1027,-2.1027,-2.1224,-2.142,-1.3198,-1.3093,-1.3159,-1.3365,-1.3561,-1.3851,-1.4307,-1.4391,-1.4384,-1.4391,-1.3977,-1.3799,-1.4078,-1.3755,-1.361,-1.3857,-1.3649,-1.3513,-1.3519,-1.3513,-1.3749,-1.4268,-1.4292,-1.4292,-1.4292,-1.4039,-1.376,-1.3526,-1.3784,-1.3611,-1.3127,-1.3774,-1.3832,-1.3404,-1.3678,-1.3837,-1.3901,-1.389,-1.4051,-1.4292,-1.4298,-1.4723,-1.5391,-1.5172,-1.541,-1.5778,-1.5486,-1.5112,-1.4688,-1.4688,-1.4358,-1.3979,-1.455,-1.507,-1.5493,-1.5493,-1.5635,-1.5778,-1.554,-1.5493,-1.5475,-1.5425,-1.5618,-1.5678,-1.5142,-1.519,-1.5317,-1.5068,-1.5008,-1.4874,-1.4366,-1.4083,-1.3676,-1.2917,-1.278,-1.2643,-1.2186,-1.2689,-1.3244,-1.3549,-1.3952,-1.4343,-1.4663,-1.4933,-1.4885,-1.4346,-1.479,-1.5131,-1.5131,-1.5131,-1.522,-1.5499,-1.6022,-1.6567,-1.707,-1.6927,-1.753,-1.8921,-1.8921,-1.9,-1.9179,-1.9179,-1.9299,-1.9486,-1.9486,-1.9673,-1.9941,-2.0249,-2.0392,-2.0432,-2.0782,-2.107,-2.1326,-2.1326,-2.1471,-2.1725,-1.3379,-1.2963,-1.2768,-1.3291,-1.3274,-1.33,-1.3789,-1.3818,-1.3844,-1.4097,-1.3843,-1.3756,-1.4054,-1.3902,-1.3932,-1.4302,-1.4027,-1.3829,-1.3767,-1.3616,-1.3586,-1.3743,-1.3749,-1.3932,-1.4309,-1.3721,-1.3632,-1.4052,-1.3738,-1.3787,-1.4148,-1.3988,-1.3881,-1.3877,-1.3786,-1.3851,-1.4096,-1.4096,-1.4195,-1.4327,-1.4709,-1.4949,-1.5158,-1.5691,-1.598,-1.6063,-1.5994,-1.5635,-1.5153,-1.4831,-1.4448,-1.4256,-1.479,-1.5077,-1.5267,-1.5594,-1.5737,-1.5778,-1.573,-1.573,-1.5717,-1.5678,-1.5623,-1.5536,-1.5351,-1.5491,-1.5558,-1.5109,-1.5312,-1.5347,-1.4682,-1.4366,-1.3999,-1.3456,-1.3053,-1.2734,-1.2597,-1.2928,-1.3351,-1.3754,-1.4069,-1.4452,-1.4927,-1.5035,-1.5035,-1.4885,-1.5309,-1.5648,-1.5845,-1.6076,-1.6116,-1.6084,-1.6226,-1.647,-1.6874,-1.7384,-1.7935,-1.8534,-1.8537,-1.8629,-1.8861,-1.8807,-1.9062,-1.9527,-1.9722,-1.9819,-1.9957,-2.0712,-2.0917,-2.0724,-2.1281,-2.1522,-2.1573,-2.1573,-2.1776,-2.1971,-1.3492,-1.3153,-1.2863,-1.2959,-1.3051,-1.3097,-1.3178,-1.3453,-1.3643,-1.3788,-1.3783,-1.3851,-1.396,-1.3892,-1.3886,-1.4038,-1.375,-1.3577,-1.3527,-1.3319,-1.3331,-1.3619,-1.3254,-1.3369,-1.3979,-1.345,-1.3387,-1.3795,-1.359,-1.3674,-1.4082,-1.3981,-1.3992,-1.4088,-1.3913,-1.3943,-1.4043,-1.4034,-1.4062,-1.4157,-1.4512,-1.4779,-1.5057,-1.5484,-1.5798,-1.6044,-1.5832,-1.5496,-1.5064,-1.4682,-1.4304,-1.4064,-1.4496,-1.4688,-1.4885,-1.5261,-1.5452,-1.552,-1.5402,-1.537,-1.535,-1.5325,-1.547,-1.5563,-1.5411,-1.5618,-1.5732,-1.5378,-1.559,-1.571,-1.5344,-1.5068,-1.4792,-1.4364,-1.4041,-1.3676,-1.3304,-1.3485,-1.3684,-1.388,-1.416,-1.44,-1.4604,-1.4844,-1.4987,-1.5083,-1.5356,-1.5688,-1.6047,-1.613,-1.6156,-1.6292,-1.6186,-1.6351,-1.6777,-1.7431,-1.7939,-1.824,-1.8296,-1.8483,-1.8684,-1.8717,-1.8985,-1.9484,-1.9766,-1.9942,-2.0111,-2.0922,-2.1128,-2.1015,-2.1534,-2.1776,-2.1878,-2.1878,-2.2131,-2.2434,-1.343,-1.3399,-1.317,-1.2451,-1.2795,-1.3007,-1.2586,-1.3198,-1.3629,-1.3493,-1.3775,-1.3945,-1.3817,-1.3743,-1.3618,-1.3488,-1.3145,-1.2959,-1.3016,-1.2806,-1.3004,-1.3667,-1.2874,-1.2717,-1.3384,-1.3123,-1.302,-1.304,-1.3252,-1.3336,-1.3398,-1.3858,-1.4062,-1.4088,-1.413,-1.4028,-1.3855,-1.388,-1.3885,-1.3912,-1.3936,-1.4311,-1.4924,-1.4725,-1.501,-1.5522,-1.5145,-1.4854,-1.4592,-1.4298,-1.3871,-1.3534,-1.3859,-1.41,-1.4346,-1.4688,-1.4933,-1.5019,-1.4767,-1.4651,-1.4587,-1.4585,-1.5147,-1.5638,-1.5451,-1.5605,-1.5751,-1.5778,-1.5832,-1.5927,-1.6177,-1.6028,-1.5778,-1.5534,-1.5432,-1.5099,-1.419,-1.4244,-1.4304,-1.407,-1.4238,-1.4274,-1.407,-1.4502,-1.4927,-1.5172,-1.5207,-1.5454,-1.5963,-1.5678,-1.5796,-1.6317,-1.6117,-1.6209,-1.675,-1.7229,-1.7617,-1.7976,-1.8167,-1.8401,-1.859,-1.8782,-1.9075,-1.9423,-1.9732,-2.0029,-2.0354,-2.1024,-2.1255,-2.1263,-2.1635,-2.1928,-2.2131,-2.2182,-2.2535,-2.2946,-1.2822,-1.2693,-1.2479,-1.1957,-1.2021,-1.2074,-1.2006,-1.2342,-1.2804,-1.3265,-1.3293,-1.339,-1.375,-1.3677,-1.3705,-1.3913,-1.3596,-1.3352,-1.3319,-1.2858,-1.2728,-1.2949,-1.2735,-1.263,-1.2663,-1.2362,-1.2533,-1.315,-1.2898,-1.3216,-1.4015,-1.3796,-1.3868,-1.413,-1.4412,-1.4399,-1.4137,-1.4491,-1.4475,-1.421,-1.3999,-1.3892,-1.3861,-1.4005,-1.4064,-1.4049,-1.4343,-1.4298,-1.4004,-1.3528,-1.3292,-1.3292,-1.401,-1.4244,-1.4442,-1.5112,-1.522,-1.5019,-1.4767,-1.4691,-1.4622,-1.4345,-1.4564,-1.4956,-1.5311,-1.5444,-1.5558,-1.5785,-1.5981,-1.6218,-1.6447,-1.6298,-1.615,-1.6298,-1.5818,-1.5391,-1.5397,-1.5118,-1.4981,-1.5064,-1.4961,-1.4916,-1.5038,-1.535,-1.5683,-1.5961,-1.6157,-1.6326,-1.6442,-1.6576,-1.6627,-1.6618,-1.6564,-1.6665,-1.7014,-1.7071,-1.7295,-1.7603,-1.8038,-1.833,-1.8583,-1.8605,-1.8957,-1.966,-2.0038,-2.0353,-2.067,-2.1545,-2.1745,-2.1585,-2.2147,-2.2443,-2.2544,-2.2745,-2.2896,-2.2996,-1.2346,-1.2159,-1.1875,-1.1413,-1.1427,-1.1525,-1.16,-1.1995,-1.2469,-1.2923,-1.3138,-1.3313,-1.3476,-1.3611,-1.3702,-1.3672,-1.3432,-1.3296,-1.3333,-1.299,-1.2835,-1.2979,-1.2808,-1.2619,-1.2406,-1.224,-1.2381,-1.2772,-1.2577,-1.2765,-1.3381,-1.3433,-1.3563,-1.3756,-1.4302,-1.4233,-1.3713,-1.4122,-1.4084,-1.3744,-1.3833,-1.383,-1.3731,-1.4145,-1.4187,-1.4093,-1.4105,-1.3856,-1.3511,-1.3343,-1.3287,-1.3389,-1.4106,-1.4394,-1.4538,-1.4825,-1.4927,-1.4797,-1.4284,-1.4224,-1.4229,-1.3885,-1.3989,-1.4302,-1.4865,-1.509,-1.5283,-1.5522,-1.5655,-1.5886,-1.6246,-1.6193,-1.6141,-1.6285,-1.5865,-1.5543,-1.5503,-1.5233,-1.5047,-1.5127,-1.5133,-1.5199,-1.5491,-1.5665,-1.5913,-1.6379,-1.6636,-1.6848,-1.6989,-1.6862,-1.6901,-1.7064,-1.6849,-1.6793,-1.7043,-1.7266,-1.7516,-1.7674,-1.7989,-1.8314,-1.855,-1.8824,-1.9193,-1.9746,-2.0263,-2.0719,-2.1202,-2.1818,-2.207,-2.2129,-2.2475,-2.2594,-2.2627,-2.2637,-2.2766,-2.2915,-1.1986,-1.1787,-1.1525,-1.1036,-1.1118,-1.1284,-1.1378,-1.1892,-1.2378,-1.2636,-1.3119,-1.3382,-1.3229,-1.3492,-1.3572,-1.3236,-1.3093,-1.3086,-1.3272,-1.3127,-1.3076,-1.3255,-1.2976,-1.2705,-1.2448,-1.2448,-1.2409,-1.2312,-1.2311,-1.2422,-1.2565,-1.2991,-1.323,-1.3254,-1.3986,-1.3862,-1.3117,-1.3551,-1.3558,-1.3195,-1.3691,-1.3903,-1.3958,-1.4415,-1.4625,-1.4561,-1.4003,-1.3547,-1.3204,-1.3425,-1.3607,-1.3769,-1.4196,-1.4518,-1.4661,-1.4415,-1.445,-1.4399,-1.3671,-1.3634,-1.3696,-1.3439,-1.3483,-1.3753,-1.4259,-1.4632,-1.4993,-1.527,-1.5284,-1.5456,-1.5894,-1.5983,-1.6027,-1.6072,-1.5937,-1.5728,-1.5449,-1.5221,-1.51,-1.5091,-1.5225,-1.5521,-1.5922,-1.595,-1.6167,-1.6749,-1.6972,-1.7134,-1.7303,-1.6966,-1.6915,-1.733,-1.7016,-1.6877,-1.7056,-1.7544,-1.7886,-1.7982,-1.813,-1.8342,-1.8707,-1.917,-1.9549,-1.9794,-2.0456,-2.0995,-2.1514,-2.1778,-2.2165,-2.2558,-2.2558,-2.26,-2.2607,-2.2493,-2.2571,-2.2827,-1.192,-1.1864,-1.1726,-1.1324,-1.1354,-1.1437,-1.1415,-1.1892,-1.2415,-1.2826,-1.3083,-1.3236,-1.32,-1.3236,-1.3273,-1.32,-1.3199,-1.3194,-1.3192,-1.3134,-1.3116,-1.3146,-1.3245,-1.3094,-1.2662,-1.2662,-1.253,-1.2312,-1.2413,-1.2597,-1.2843,-1.2856,-1.2889,-1.3001,-1.3723,-1.3687,-1.3067,-1.3765,-1.3817,-1.346,-1.379,-1.3922,-1.393,-1.4248,-1.4364,-1.4292,-1.374,-1.3511,-1.3451,-1.3473,-1.3939,-1.4549,-1.4537,-1.4562,-1.4623,-1.4552,-1.4306,-1.3925,-1.3603,-1.3346,-1.3191,-1.3132,-1.3313,-1.3489,-1.374,-1.4196,-1.47,-1.5184,-1.5284,-1.5456,-1.5894,-1.5983,-1.6072,-1.633,-1.6391,-1.6342,-1.6234,-1.6069,-1.592,-1.5878,-1.5894,-1.6194,-1.6919,-1.6857,-1.6943,-1.7512,-1.7387,-1.7221,-1.7037,-1.7127,-1.7041,-1.6755,-1.7044,-1.7203,-1.725,-1.7547,-1.7937,-1.8404,-1.8458,-1.8785,-1.9386,-1.9383,-1.9644,-2.0069,-2.0504,-2.0808,-2.1007,-2.1362,-2.1859,-2.2418,-2.2418,-2.2556,-2.2735,-2.2925,-2.2943,-2.2944,-1.1881,-1.1679,-1.1444,-1.1404,-1.1441,-1.152,-1.1726,-1.2077,-1.2415,-1.2673,-1.301,-1.32,-1.32,-1.32,-1.3236,-1.3346,-1.3156,-1.313,-1.3337,-1.3167,-1.3126,-1.3263,-1.3322,-1.3274,-1.3088,-1.3071,-1.2899,-1.2628,-1.2302,-1.2205,-1.2291,-1.2402,-1.2408,-1.231,-1.2942,-1.2904,-1.245,-1.3175,-1.3305,-1.3113,-1.3809,-1.4089,-1.4139,-1.4574,-1.464,-1.4478,-1.4094,-1.3844,-1.3801,-1.4192,-1.4615,-1.4978,-1.5153,-1.516,-1.5002,-1.4865,-1.4579,-1.4174,-1.3623,-1.3417,-1.3311,-1.3297,-1.3307,-1.3483,-1.3828,-1.4097,-1.4401,-1.4738,-1.4895,-1.5067,-1.5419,-1.5591,-1.5719,-1.5797,-1.5944,-1.6015,-1.6089,-1.6079,-1.6133,-1.6404,-1.6433,-1.6647,-1.7153,-1.7039,-1.7081,-1.7451,-1.738,-1.7333,-1.7402,-1.7333,-1.7333,-1.7426,-1.7481,-1.7621,-1.7753,-1.8001,-1.838,-1.8801,-1.909,-1.924,-1.9335,-1.9391,-1.9633,-2.0004,-2.0284,-2.0548,-2.0891,-2.1045,-2.1657,-2.2388,-2.2388,-2.2501,-2.256,-2.247,-2.2614,-2.2959]},{"header":{"parameterUnit":"m.s-1","parameterCategory":1,"la1":30.6,"la2":28.766,"lo1":-90.7593,"lo2":-88.6598,"dy":0.0162,"dx":0.0183,"nx":116,"ny":114,"refTime":"2023-06-27T06:00:00:Z","depth":0,"parameterNumber":3,"parameterNumberName":"V-component_of_WINDS"},"data":[0.0,0.0,0.0,0.0,0.0,0.0,0.0,0.0,0.0,0.0,0.0,0.0,0.0,0.0,0.0,0.0,0.0,0.0,0.0,0.0,0.0,0.0,0.0,0.0,0.0,0.0,0.0,0.0,0.0,0.0,0.0,0.0,0.0,0.0,0.0,0.0,0.0,0.0,0.0,0.0,0.0,0.0,0.0,0.0,0.0,0.0,0.0,0.0,0.0,0.0,0.0,0.0,0.0,0.0,0.0,0.0,0.0,0.0,0.0,0.0,0.0,0.0,0.0,0.0,0.0,0.0,0.0,0.0,0.0,0.0,0.0,0.0,0.0,0.0,0.0,0.0,0.0,0.0,0.0,0.0,0.0,0.0,0.0,0.0,0.0,0.0,0.0,0.0,0.0,0.0,0.0,0.0,0.0,0.0,0.0,0.0,0.0,0.0,0.0,0.0,0.0,0.0,0.0,0.0,0.0,0.0,0.0,0.0,0.0,0.0,0.0,0.0,0.0,0.0,0.0,0.0,0.0,0.0,0.0,0.0,0.0,0.0,0.0,0.0,0.0,0.0,0.0,0.0,0.0,0.0,0.0,0.0,0.0,0.0,0.0,0.0,0.0,0.0,0.0,0.0,0.0,0.0,0.0,0.0,0.0,0.0,0.0,0.0,0.0,0.0,0.0,0.0,0.0,0.0,0.0,0.0,0.0,0.0,0.0,0.0,0.0,0.0,0.0,0.0,0.0,0.0,0.0,0.0,0.0,0.0,0.0,0.0,0.0,0.0,0.0,0.0,0.0,0.0,0.0,0.0,0.0,0.0,0.0,0.0,0.0,0.0,0.0,0.0,0.0,0.0,0.0,0.0,0.0,0.0,0.0,0.0,0.0,0.0,0.0,0.0,0.0,0.0,0.0,0.0,0.0,0.0,0.0,0.0,0.0,0.0,0.0,0.0,0.0,0.0,0.0,0.0,0.0,0.0,0.0,0.0,0.0,0.0,0.0,0.0,0.0,0.0,0.0,0.0,0.0,0.0,0.0,0.0,0.0,0.0,0.0,0.0,0.0,0.0,0.0,0.0,0.0,0.0,0.0,0.0,0.0,0.0,0.0,0.0,0.0,0.0,0.0,0.0,0.0,0.0,0.0,0.0,0.0,0.0,0.0,0.0,0.0,0.0,0.0,0.0,0.0,0.0,0.0,0.0,0.0,0.0,0.0,0.0,0.0,0.0,0.0,0.0,0.0,0.0,0.0,0.0,0.0,0.0,0.0,0.0,0.0,0.0,0.0,0.0,0.0,0.0,0.0,0.0,0.0,0.0,0.0,0.0,0.0,0.0,0.0,0.0,0.0,0.0,0.0,0.0,0.0,0.0,0.0,0.0,0.0,0.0,0.0,0.0,0.0,0.0,0.0,0.0,0.0,0.0,0.0,0.0,0.0,0.0,0.0,0.0,0.0,0.0,0.0,0.0,0.0,0.0,0.0,0.0,0.0,0.0,0.0,0.0,0.0,0.0,0.0,0.0,0.0,0.0,0.0,0.0,0.0,0.0,0.0,0.0,0.0,0.0,0.0,0.0,0.0,0.0,0.0,0.0,0.0,0.0,0.0,0.0,0.0,0.0,0.0,0.0,0.0,0.0,0.0,0.0,0.0,0.0,0.0,0.0,0.0,0.0,0.0,0.0,0.0,0.0,0.0,0.0,0.0,0.0,0.0,0.0,0.0,0.0,0.0,0.0,0.0,0.0,0.0,0.0,0.0,0.0,0.0,0.0,0.0,0.0,0.0,0.0,0.0,0.0,0.0,0.0,0.0,0.0,0.0,0.0,0.0,0.0,0.0,0.0,0.0,0.0,0.0,0.0,0.0,0.0,0.0,0.0,0.0,0.0,0.0,0.0,0.0,0.0,0.0,0.0,0.0,0.0,0.0,0.0,0.0,0.0,0.0,0.0,0.0,0.0,0.0,0.0,0.0,0.0,0.0,0.0,0.0,0.0,0.0,0.0,0.0,0.0,0.0,0.0,0.0,0.0,0.0,0.0,0.0,0.0,0.0,0.0,0.0,0.0,0.0,0.0,0.0,0.0,0.0,0.0,0.0,0.0,0.0,0.0,0.0,0.0,0.0,0.0,0.0,0.0,0.0,0.0,0.0,0.0,0.0,0.0,0.0,0.0,0.0,0.0,0.0,0.0,0.0,0.0,0.0,0.0,0.0,0.0,0.0,0.0,0.0,0.0,0.0,0.0,0.0,0.0,0.0,0.0,0.0,0.0,0.0,0.0,0.0,0.0,0.0,0.0,0.0,0.0,0.0,0.0,0.0,0.0,0.0,0.0,0.0,0.0,0.0,0.0,0.0,0.0,0.0,0.0,0.0,0.0,0.0,0.0,0.0,0.0,0.0,0.0,0.0,0.0,0.0,0.0,0.0,0.0,0.0,0.0,0.0,0.0,0.0,0.0,0.0,0.0,0.0,0.0,0.0,0.0,0.0,0.0,0.0,0.0,0.0,0.0,0.0,0.0,0.0,0.0,0.0,0.0,0.0,0.0,0.0,0.0,0.0,0.0,0.0,0.0,0.0,0.0,0.0,0.0,0.0,0.0,0.0,0.0,0.0,0.0,0.0,0.0,0.0,0.0,0.0,0.0,0.0,0.0,0.0,0.0,0.0,0.0,0.0,0.0,0.0,0.0,0.0,0.0,0.0,0.0,0.0,0.0,0.0,0.0,0.0,0.0,0.0,0.0,0.0,0.0,0.0,0.0,0.0,0.0,0.0,0.0,0.0,0.0,0.0,0.0,0.0,0.0,0.0,0.0,0.0,0.0,0.0,0.0,0.0,0.0,0.0,0.0,0.0,0.0,0.0,0.0,0.0,0.0,0.0,0.0,0.0,0.0,0.0,0.0,0.0,0.0,0.0,0.0,0.0,0.0,0.0,0.0,0.0,0.0,0.0,0.0,0.0,0.0,0.0,0.0,0.0,0.0,0.0,0.0,0.0,0.0,0.0,0.0,0.0,0.0,0.0,0.0,0.0,0.0,0.0,0.0,0.0,0.0,0.0,0.0,0.0,0.0,0.0,0.0,0.0,0.0,0.0,0.0,0.0,0.0,0.0,0.0,0.0,0.0,0.0,0.0,0.0,0.0,0.0,0.0,0.0,0.0,0.0,0.0,0.0,0.0,0.0,0.0,0.0,0.0,0.0,0.0,0.0,0.0,0.0,0.0,0.0,0.0,0.0,0.0,0.0,0.0,0.0,0.0,0.0,0.0,0.0,0.0,0.0,0.0,0.0,0.0,0.0,0.0,0.0,0.0,0.0,0.0,0.0,0.0,0.0,0.0,0.0,0.0,0.0,0.0,0.0,0.0,0.0,0.0,0.0,0.0,0.0,0.0,0.0,0.0,0.0,0.0,0.0,0.0,0.0,0.0,0.0,0.0,0.0,0.0,0.0,0.0,0.0,0.0,0.0,0.0,0.0,0.0,0.0,0.0,0.0,0.0,0.0,0.0,0.0,0.0,0.0,0.0,0.0,0.0,0.0,0.0,0.0,0.0,0.0,0.0,0.0,0.0,0.0,0.0,0.0,0.0,0.0,0.0,0.0,0.0,0.0,0.0,0.0,0.0,0.0,0.0,0.0,0.0,0.0,0.0,0.0,0.0,0.0,0.0,0.0,0.0,0.0,0.0,0.0,0.0,0.0,0.0,0.0,0.0,0.0,0.0,0.0,0.0,0.0,0.0,0.0,0.0,0.0,0.0,0.0,0.0,0.0,0.0,0.0,0.0,0.0,0.0,0.0,0.0,0.0,0.0,0.0,0.0,0.0,0.0,0.0,0.0,0.0,0.0,0.0,0.0,0.0,0.0,0.0,0.0,0.0,0.0,0.0,0.0,0.0,0.0,0.0,0.0,0.0,0.0,0.0,0.0,0.0,0.0,0.0,0.0,0.0,0.0,0.0,0.0,0.0,0.0,0.0,0.0,0.0,0.0,0.0,0.0,0.0,0.0,0.0,0.0,0.0,0.0,0.0,0.0,0.0,0.0,0.0,0.0,0.0,0.0,0.0,0.0,0.0,0.0,0.0,0.0,0.0,0.0,0.0,0.0,0.0,0.0,0.0,0.0,0.0,0.0,0.0,0.0,0.0,0.0,0.0,0.0,0.0,0.0,0.0,0.0,0.0,0.0,0.0,0.0,0.0,0.0,0.0,0.0,0.0,0.0,0.0,0.0,0.0,0.0,0.0,0.0,0.0,0.0,0.0,0.0,0.0,0.0,0.0,0.0,0.0,0.0,0.0,0.0,0.0,0.0,0.0,0.0,0.0,0.0,0.0,0.0,0.0,0.0,0.0,0.0,0.0,0.0,0.0,0.0,0.0,0.0,0.0,0.0,0.0,0.0,0.0,0.0,0.0,0.0,0.0,0.0,0.0,0.0,0.0,0.0,0.0,0.0,0.0,0.0,0.0,0.0,0.0,0.0,0.0,0.0,0.0,0.0,0.0,0.0,0.0,0.0,0.0,0.0,0.0,0.0,0.0,0.0,0.0,0.0,0.0,0.0,0.0,0.0,0.0,0.0,0.0,0.0,0.0,0.0,0.0,0.0,0.0,0.0,0.0,0.0,0.0,0.0,0.0,0.0,0.0,0.0,0.0,0.0,0.0,0.0,0.0,0.0,0.0,0.0,0.0,0.0,0.0,0.0,0.0,0.0,0.0,0.0,0.0,0.0,0.0,0.0,0.0,0.0,0.0,0.0,0.0,0.0,0.0,0.0,0.0,0.0,0.0,0.0,0.0,0.0,0.0,0.0,0.0,0.0,0.0,0.0,0.0,0.0,0.0,0.0,0.0,0.0,0.0,0.0,0.0,0.0,0.0,0.0,0.0,0.0,0.0,0.0,0.0,0.0,0.0,0.0,0.0,0.0,0.0,0.0,0.0,0.0,0.0,0.0,0.0,0.0,0.0,0.0,0.0,0.0,0.0,0.0,0.0,0.0,0.0,0.0,0.0,0.0,0.0,0.0,0.0,0.0,0.0,0.0,0.0,0.0,0.0,0.0,0.0,0.0,0.0,0.0,0.0,0.0,0.0,0.0,0.0,0.0,0.0,0.0,0.0,0.0,0.0,0.0,0.0,0.0,0.0,0.0,0.0,0.0,0.0,0.0,0.0,0.0,0.0,0.0,0.0,0.0,0.0,0.0,0.0,0.0,0.0,0.0,0.0,0.0,0.0,0.0,0.0,0.0,0.0,0.0,0.0,0.0,0.0,0.0,0.0,0.0,0.0,0.0,0.0,0.0,0.0,0.0,0.0,0.0,0.0,0.0,0.0,0.0,0.0,0.0,0.0,0.0,0.0,0.0,0.0,0.0,0.0,0.0,0.0,0.0,0.0,0.0,0.0,0.0,0.0,0.0,0.0,0.0,0.0,0.0,0.0,0.0,0.0,0.0,0.0,0.0,0.0,0.0,0.0,0.0,0.0,0.0,0.0,0.0,0.0,0.0,0.0,0.0,0.0,0.0,0.0,0.0,0.0,0.0,0.0,0.0,0.0,0.0,0.0,0.0,0.0,0.0,0.0,0.0,0.0,0.0,0.0,0.0,0.0,0.0,0.0,0.0,0.0,0.0,0.0,0.0,0.0,0.0,0.0,0.0,0.0,0.0,0.0,0.0,0.0,0.0,0.0,0.0,0.0,0.0,0.0,0.0,0.0,0.0,0.0,0.0,0.0,0.0,0.0,0.0,0.0,0.0,0.0,0.0,0.0,0.0,0.0,0.0,0.0,0.0,0.0,0.0,0.0,0.0,0.0,0.0,0.0,0.0,0.0,0.0,0.0,0.0,0.0,0.0,0.0,0.0,0.0,0.0,0.0,0.0,0.0,0.0,0.0,0.0,0.0,0.0,0.0,0.0,0.0,0.0,0.0,0.0,0.0,0.0,0.0,0.0,0.0,0.0,0.0,0.0,0.0,0.0,0.0,0.0,0.0,0.0,0.0,0.0,0.0,0.0,0.0,0.0,0.0,0.0,0.0,0.0,0.0,0.0,0.0,0.0,0.0,0.0,0.0,0.0,0.0,0.0,0.0,0.0,0.0,0.0,0.0,0.0,0.0,0.0,0.0,0.0,0.0,0.0,0.0,0.0,0.0,0.0,-1.7702,0.0,0.0,0.0,0.0,0.0,0.0,0.0,0.0,0.0,0.0,0.0,0.0,0.0,0.0,0.0,0.0,0.0,0.0,0.0,0.0,0.0,0.0,0.0,0.0,0.0,0.0,0.0,0.0,0.0,0.0,0.0,0.0,0.0,0.0,0.0,0.0,0.0,0.0,0.0,0.0,0.0,0.0,0.0,0.0,0.0,0.0,0.0,0.0,0.0,0.0,0.0,0.0,0.0,0.0,0.0,0.0,0.0,0.0,0.0,0.0,0.0,0.0,0.0,0.0,0.0,0.0,0.0,0.0,0.0,0.0,0.0,0.0,0.0,0.0,0.0,0.0,0.0,0.0,0.0,0.0,0.0,0.0,0.0,0.0,0.0,0.0,0.0,0.0,0.0,0.0,0.0,0.0,0.0,0.0,0.0,0.0,0.0,0.0,0.0,0.0,0.0,0.0,0.0,0.0,0.0,0.0,0.0,0.0,0.0,0.0,0.0,0.0,0.0,0.0,0.0,0.0,-2.128,0.0,0.0,0.0,0.0,0.0,0.0,0.0,0.0,0.0,0.0,0.0,0.0,0.0,0.0,0.0,0.0,0.0,0.0,0.0,0.0,0.0,0.0,0.0,0.0,0.0,0.0,0.0,0.0,0.0,0.0,0.0,0.0,0.0,0.0,0.0,0.0,0.0,0.0,0.0,0.0,0.0,0.0,0.0,0.0,0.0,0.0,0.0,0.0,0.0,0.0,0.0,0.0,0.0,0.0,0.0,0.0,0.0,0.0,0.0,0.0,0.0,0.0,0.0,0.0,0.0,0.0,0.0,0.0,0.0,0.0,0.0,0.0,0.0,0.0,0.0,0.0,0.0,0.0,0.0,0.0,0.0,0.0,0.0,0.0,0.0,0.0,0.0,0.0,0.0,0.0,0.0,0.0,0.0,0.0,0.0,0.0,0.0,0.0,0.0,0.0,0.0,0.0,0.0,0.0,0.0,0.0,0.0,0.0,-2.9032,-2.9535,-3.0614,-3.0214,-3.0426,-3.092,-2.7247,-2.5539,-2.5388,-2.5092,0.0,0.0,0.0,0.0,0.0,0.0,0.0,0.0,0.0,0.0,0.0,0.0,0.0,0.0,0.0,0.0,0.0,0.0,0.0,0.0,0.0,0.0,0.0,0.0,0.0,0.0,0.0,0.0,0.0,0.0,0.0,0.0,0.0,0.0,0.0,0.0,0.0,0.0,0.0,0.0,0.0,0.0,0.0,0.0,0.0,0.0,0.0,0.0,0.0,0.0,0.0,0.0,0.0,0.0,0.0,0.0,0.0,0.0,0.0,0.0,0.0,0.0,0.0,0.0,0.0,0.0,0.0,0.0,0.0,0.0,0.0,0.0,0.0,0.0,0.0,0.0,0.0,0.0,0.0,0.0,0.0,0.0,0.0,0.0,0.0,0.0,-1.9667,-2.1267,0.0,0.0,0.0,0.0,0.0,0.0,0.0,0.0,0.0,0.0,0.0,0.0,0.0,-2.7793,-2.8317,-3.0479,-3.1947,-3.2648,-3.2402,-3.2155,-3.1926,-3.1772,-3.1704,-3.1675,-3.1184,0.0,-2.9722,-2.9048,0.0,0.0,0.0,0.0,0.0,0.0,0.0,0.0,0.0,0.0,0.0,0.0,0.0,0.0,0.0,0.0,0.0,0.0,0.0,0.0,0.0,0.0,0.0,0.0,0.0,0.0,0.0,0.0,0.0,0.0,0.0,0.0,0.0,0.0,0.0,0.0,0.0,0.0,0.0,0.0,0.0,0.0,0.0,0.0,0.0,0.0,0.0,0.0,0.0,0.0,0.0,0.0,0.0,0.0,0.0,0.0,0.0,0.0,0.0,0.0,0.0,0.0,0.0,0.0,0.0,0.0,0.0,0.0,0.0,0.0,0.0,0.0,0.0,0.0,0.0,0.0,0.0,0.0,0.0,0.0,0.0,0.0,0.0,0.0,0.0,-1.8253,-2.0431,-2.2758,-2.1538,-2.0957,0.0,0.0,0.0,0.0,0.0,0.0,0.0,0.0,0.0,-2.8158,-3.0491,-3.1978,-3.2473,-3.3623,-3.4397,-3.481,-3.4619,-3.4331,-3.3938,-3.3736,-3.3507,-3.3282,-3.2868,-3.2424,-3.1958,-3.1216,-3.0622,-3.0006,0.0,0.0,0.0,0.0,-2.5563,-2.6776,0.0,0.0,0.0,0.0,0.0,0.0,0.0,0.0,0.0,0.0,0.0,0.0,0.0,0.0,0.0,0.0,0.0,0.0,0.0,0.0,0.0,0.0,0.0,0.0,0.0,0.0,0.0,0.0,0.0,0.0,0.0,0.0,0.0,0.0,0.0,0.0,0.0,0.0,0.0,0.0,0.0,0.0,0.0,0.0,0.0,0.0,0.0,0.0,0.0,0.0,0.0,0.0,0.0,0.0,0.0,0.0,0.0,0.0,0.0,0.0,0.0,0.0,0.0,0.0,0.0,0.0,0.0,0.0,0.0,0.0,0.0,0.0,0.0,0.0,0.0,0.0,0.0,-1.9626,-2.1488,-2.4002,-2.3031,-2.2851,0.0,0.0,0.0,0.0,0.0,0.0,-2.7596,-2.9892,-3.134,-3.1759,-3.3731,-3.4929,-3.5261,-3.576,-3.6084,-3.6288,-3.6315,-3.6168,-3.5907,-3.5447,-3.5116,-3.4873,-3.4005,-3.3615,-3.3494,-3.247,-3.1679,-3.0949,-2.9611,-2.8841,-2.84,-2.7429,-2.8028,-2.9437,0.0,0.0,0.0,0.0,0.0,0.0,0.0,0.0,0.0,0.0,0.0,0.0,0.0,0.0,0.0,0.0,0.0,0.0,0.0,0.0,0.0,0.0,0.0,0.0,0.0,0.0,0.0,0.0,0.0,0.0,0.0,0.0,0.0,0.0,0.0,0.0,0.0,0.0,0.0,0.0,0.0,0.0,0.0,0.0,0.0,0.0,0.0,0.0,0.0,0.0,0.0,0.0,0.0,0.0,0.0,0.0,0.0,0.0,0.0,0.0,0.0,0.0,0.0,0.0,0.0,0.0,0.0,0.0,0.0,0.0,0.0,0.0,0.0,0.0,0.0,0.0,0.0,0.0,0.0,-2.4874,-2.602,0.0,0.0,0.0,0.0,-2.768,-2.9669,-3.1161,-3.1847,-3.342,-3.4314,-3.4405,-3.5154,-3.5527,-3.5481,-3.6696,-3.7239,-3.7046,-3.7492,-3.7658,-3.7537,-3.6592,-3.6137,-3.6071,-3.5195,-3.4809,-3.4662,-3.2894,-3.2166,-3.2052,-3.1399,-3.1399,-3.1748,-3.1625,-3.1952,-3.2664,0.0,0.0,0.0,0.0,0.0,0.0,0.0,0.0,0.0,0.0,0.0,0.0,0.0,0.0,0.0,0.0,0.0,0.0,0.0,0.0,0.0,0.0,0.0,0.0,0.0,0.0,0.0,0.0,0.0,0.0,0.0,0.0,0.0,0.0,0.0,0.0,0.0,0.0,0.0,0.0,0.0,0.0,0.0,0.0,0.0,0.0,0.0,0.0,0.0,0.0,0.0,0.0,0.0,0.0,0.0,0.0,0.0,0.0,0.0,0.0,0.0,0.0,0.0,0.0,0.0,0.0,0.0,0.0,0.0,0.0,0.0,0.0,0.0,0.0,0.0,0.0,0.0,0.0,0.0,-2.6388,-2.6922,0.0,-2.9272,-2.8581,-2.8772,-3.0561,-3.1999,-3.2949,-3.3273,-3.4584,-3.5219,-3.5005,-3.5772,-3.6353,-3.6713,-3.718,-3.7259,-3.6968,-3.7131,-3.6844,-3.6149,-3.5787,-3.5488,-3.5182,-3.4391,-3.4006,-3.3846,-3.2684,-3.2767,-3.3639,-3.3258,-3.3442,-3.3918,-3.3913,-3.3924,-3.4066,0.0,0.0,0.0,0.0,0.0,0.0,0.0,0.0,0.0,0.0,0.0,0.0,0.0,0.0,0.0,0.0,0.0,0.0,0.0,0.0,0.0,0.0,0.0,0.0,0.0,0.0,0.0,0.0,0.0,0.0,0.0,0.0,0.0,0.0,0.0,0.0,0.0,0.0,0.0,0.0,0.0,0.0,-2.5644,0.0,0.0,0.0,0.0,0.0,0.0,0.0,0.0,0.0,0.0,0.0,0.0,0.0,0.0,0.0,0.0,0.0,0.0,0.0,0.0,0.0,0.0,0.0,0.0,0.0,0.0,0.0,0.0,0.0,0.0,0.0,0.0,0.0,0.0,0.0,-2.6759,-2.7943,-2.8357,-2.9169,-3.0762,-3.0272,-3.0609,-3.2405,-3.3387,-3.3992,-3.4246,-3.5427,-3.6046,-3.5977,-3.6018,-3.6602,-3.7792,-3.7161,-3.6966,-3.7279,-3.7204,-3.6804,-3.6098,-3.5753,-3.5471,-3.5166,-3.4327,-3.3943,-3.3862,-3.319,-3.3525,-3.4374,-3.3056,-3.2872,-3.3288,-3.2746,-3.2617,-3.2875,0.0,0.0,0.0,0.0,0.0,0.0,0.0,0.0,0.0,0.0,0.0,0.0,0.0,0.0,0.0,0.0,0.0,0.0,0.0,0.0,0.0,0.0,0.0,0.0,0.0,0.0,0.0,0.0,0.0,0.0,0.0,0.0,0.0,0.0,0.0,0.0,0.0,0.0,0.0,0.0,0.0,0.0,-2.7349,0.0,0.0,0.0,0.0,0.0,0.0,0.0,0.0,0.0,0.0,0.0,0.0,0.0,0.0,0.0,0.0,0.0,0.0,0.0,0.0,0.0,0.0,0.0,0.0,0.0,0.0,0.0,0.0,0.0,0.0,0.0,0.0,0.0,-2.4615,-2.6313,-2.8094,-2.9481,-3.0484,-3.1426,-3.2385,-3.2249,-3.2438,-3.3184,-3.3916,-3.4528,-3.5019,-3.6066,-3.6873,-3.7422,-3.5962,-3.6251,-3.8532,-3.6672,-3.6491,-3.7976,-3.7732,-3.7646,-3.7646,-3.6625,-3.6187,-3.6178,-3.5191,-3.4846,-3.4941,-3.4538,-3.4423,-3.4202,-3.0919,-2.9885,-3.0013,-2.8474,-2.8408,-2.9447,0.0,0.0,0.0,0.0,0.0,0.0,0.0,0.0,0.0,0.0,0.0,0.0,0.0,0.0,0.0,0.0,0.0,0.0,0.0,0.0,0.0,0.0,0.0,0.0,0.0,0.0,0.0,0.0,0.0,0.0,0.0,0.0,0.0,0.0,0.0,0.0,0.0,0.0,0.0,0.0,0.0,0.0,-2.8359,0.0,0.0,0.0,0.0,0.0,0.0,0.0,0.0,0.0,0.0,0.0,0.0,0.0,0.0,0.0,0.0,0.0,0.0,0.0,0.0,0.0,0.0,0.0,0.0,0.0,0.0,0.0,0.0,0.0,0.0,0.0,0.0,-2.7028,-2.6971,-2.9275,-3.0957,-3.0975,-3.1553,-3.2038,-3.2266,-3.2394,-3.2919,-3.3982,-3.4656,-3.5224,-3.5703,-3.6736,-3.6995,-3.6295,-3.6442,-3.6818,-3.7365,-3.6843,-3.6769,-3.713,-3.634,-3.6233,-3.6729,-3.5714,-3.5826,-3.6837,-3.6564,-3.6456,-3.6464,-3.6162,-3.5749,-3.5127,-3.3363,-3.2699,-3.2668,-3.2329,-3.2733,-3.3462,0.0,0.0,0.0,0.0,0.0,0.0,0.0,0.0,0.0,0.0,0.0,0.0,0.0,0.0,0.0,0.0,0.0,0.0,0.0,0.0,0.0,0.0,0.0,0.0,0.0,0.0,0.0,0.0,0.0,0.0,0.0,0.0,0.0,0.0,0.0,0.0,0.0,0.0,0.0,0.0,0.0,0.0,-2.9687,-3.0738,-3.0224,-2.8767,-2.7421,-2.614,-2.4882,-2.352,0.0,0.0,0.0,0.0,0.0,0.0,0.0,0.0,0.0,0.0,0.0,0.0,0.0,0.0,0.0,0.0,0.0,0.0,0.0,0.0,0.0,0.0,0.0,0.0,-2.7446,-2.8947,-2.988,-3.1441,-3.2325,-3.1899,-3.237,-3.2739,-3.2703,-3.2719,-3.3311,-3.4749,-3.4921,-3.5419,-3.6495,-3.715,-3.7141,-3.6365,-3.6578,-3.6778,-3.6939,-3.6571,-3.6695,-3.7246,-3.6673,-3.6548,-3.6848,-3.6252,-3.6389,0.0,-3.7026,-3.7051,-3.7077,-3.6744,-3.6404,0.0,0.0,0.0,0.0,0.0,-3.3393,-3.4128,0.0,0.0,0.0,0.0,0.0,0.0,0.0,0.0,0.0,0.0,0.0,0.0,0.0,0.0,0.0,0.0,0.0,0.0,0.0,0.0,0.0,0.0,0.0,0.0,0.0,0.0,0.0,0.0,0.0,0.0,0.0,0.0,0.0,0.0,0.0,0.0,0.0,0.0,0.0,0.0,0.0,0.0,-3.1071,-3.2544,-3.2667,-3.1962,-3.1161,-2.9682,-2.7938,-2.6945,0.0,0.0,0.0,0.0,0.0,0.0,0.0,0.0,0.0,0.0,0.0,0.0,0.0,0.0,0.0,0.0,0.0,0.0,0.0,0.0,0.0,0.0,0.0,0.0,-2.9199,-3.0665,-3.2827,-3.3155,-3.3025,-3.2633,-3.3037,-3.3403,-3.3508,-3.3263,-3.3753,-3.5357,-3.5069,-3.5538,-3.7212,0.0,0.0,0.0,0.0,-3.6666,-3.7132,-3.6361,-3.6592,-3.7882,-3.7773,-3.7687,-3.7601,-3.7493,-3.7411,-3.735,-3.7223,-3.7248,-3.7325,-3.6921,-3.6714,-3.6411,-3.3706,-3.2556,-3.2374,-3.1924,-3.2346,-3.3287,0.0,0.0,0.0,0.0,0.0,0.0,0.0,0.0,0.0,0.0,0.0,0.0,0.0,0.0,0.0,0.0,0.0,0.0,0.0,0.0,0.0,0.0,0.0,0.0,0.0,0.0,0.0,0.0,0.0,0.0,0.0,0.0,0.0,0.0,0.0,0.0,0.0,0.0,0.0,0.0,0.0,0.0,-3.173,-3.2769,-3.2365,-3.1125,-3.0381,-3.0321,-3.038,-2.89,-2.8517,-2.8482,-2.7332,0.0,0.0,0.0,0.0,0.0,0.0,0.0,0.0,0.0,0.0,0.0,0.0,0.0,0.0,0.0,0.0,0.0,0.0,0.0,0.0,-3.0142,-3.1642,-3.2983,-3.4391,-3.5084,-3.519,-3.4411,-3.3666,-3.3522,-3.4224,-3.4329,-3.4627,-3.529,-3.6216,-3.6928,-3.7286,-3.8082,-3.8382,-3.8083,-3.8008,-3.7946,-3.788,-3.7721,-3.7672,-3.7745,0.0,0.0,-3.8203,-3.7385,-3.7689,-3.8884,-3.8858,-3.8858,-3.8858,-3.8504,-3.7598,-3.6345,-3.5225,-3.4695,-3.4472,-3.4048,-3.474,-3.577,0.0,0.0,0.0,0.0,0.0,0.0,0.0,0.0,0.0,0.0,0.0,0.0,0.0,0.0,0.0,0.0,0.0,0.0,0.0,0.0,0.0,0.0,0.0,0.0,0.0,0.0,0.0,0.0,0.0,0.0,0.0,0.0,0.0,0.0,0.0,0.0,0.0,0.0,0.0,0.0,0.0,0.0,-3.3571,-3.4096,-3.3424,-3.2144,-3.1749,-3.1202,-3.0653,-3.0653,-3.021,-2.9657,-2.9651,-2.92,-2.8162,0.0,0.0,0.0,0.0,0.0,0.0,0.0,0.0,0.0,0.0,0.0,0.0,0.0,0.0,-2.5915,0.0,0.0,-2.9813,-3.1823,-3.2827,-3.3842,-3.5205,-3.5268,-3.4979,-3.4517,-3.4391,-3.449,-3.4814,-3.5177,-3.5385,-3.5356,-3.6831,-3.7653,-3.7425,-3.8242,-3.8612,-3.842,-3.8391,-3.8128,-3.7557,-3.8184,-3.843,-3.8252,-3.8111,-3.8371,-3.8935,-3.8484,-3.8785,-3.9583,-3.9384,-3.9406,-3.9556,-3.8969,-3.7963,-3.6792,-3.6416,-3.5882,-3.531,-3.5443,-3.5993,-3.6615,0.0,0.0,0.0,0.0,0.0,0.0,0.0,0.0,0.0,0.0,0.0,0.0,0.0,0.0,0.0,0.0,0.0,0.0,0.0,0.0,0.0,0.0,0.0,0.0,0.0,0.0,0.0,0.0,0.0,0.0,0.0,0.0,0.0,0.0,0.0,0.0,0.0,0.0,0.0,0.0,0.0,0.0,-3.5615,-3.5415,-3.4505,-3.3319,-3.3292,-3.2144,-3.0823,-3.1997,-3.1256,-3.007,-3.1066,-3.0686,-2.9629,-2.8312,-2.6995,0.0,0.0,0.0,0.0,0.0,0.0,0.0,0.0,0.0,-2.5886,-2.7102,-2.8009,-2.875,-2.9338,-3.0319,-3.1593,-3.3239,-3.3756,-3.4441,-3.5848,-3.5266,-3.4666,-3.4584,-3.5102,-3.5503,-3.5632,-3.5937,-3.6113,-3.6028,-3.7472,-3.8253,-3.8005,-3.858,-3.8933,-3.9009,-3.8769,-3.834,-3.7682,-3.8686,-3.9125,-3.8975,-3.9589,-3.9694,-3.9379,-3.9618,-3.9775,-3.9789,-3.961,-3.9686,-3.9883,-3.9093,-3.8235,-3.7398,-3.7292,-3.6628,-3.5753,-3.6292,-3.6569,-3.6754,0.0,0.0,0.0,0.0,0.0,0.0,0.0,0.0,0.0,0.0,0.0,0.0,0.0,0.0,0.0,0.0,0.0,0.0,0.0,0.0,0.0,0.0,0.0,0.0,0.0,0.0,0.0,0.0,0.0,0.0,0.0,0.0,0.0,0.0,0.0,0.0,0.0,0.0,0.0,0.0,0.0,0.0,-3.7003,-3.5652,-3.4258,-3.3057,-3.3178,-3.3076,-3.2864,-3.2446,-3.2652,-3.2885,-3.1696,-3.1775,-3.1746,-2.8827,0.0,-2.7248,-2.5491,-2.4869,-2.4886,-2.5695,-2.6003,-2.6384,0.0,0.0,-2.889,-2.8926,-2.9861,-3.087,-3.16,-3.2056,-3.2888,-3.4669,-3.5296,-3.5865,-3.6823,-3.6639,-3.6362,-3.626,-3.5688,-3.5803,-3.7038,-3.6603,-3.6835,-3.8134,-3.8655,-3.9164,-3.9777,-3.9899,-4.0197,-4.0793,-4.0003,-3.9731,-4.0092,-4.0239,-4.0077,-3.9612,-3.9679,-3.9441,-3.8903,-3.9565,-3.9723,-3.9473,-4.0024,-4.0227,-4.0112,-3.9606,-3.8871,-3.8043,-3.7622,-3.7032,-3.6384,-3.6461,-3.6569,-3.6723,0.0,0.0,0.0,0.0,0.0,0.0,0.0,0.0,0.0,0.0,0.0,0.0,0.0,0.0,0.0,0.0,0.0,0.0,0.0,0.0,0.0,0.0,0.0,0.0,0.0,0.0,0.0,0.0,0.0,0.0,0.0,0.0,0.0,0.0,0.0,0.0,0.0,0.0,0.0,0.0,0.0,0.0,-3.6738,-3.6114,-3.4937,-3.3593,-3.3172,-3.2481,0.0,0.0,-3.2748,-3.2655,-3.2033,-3.2168,-3.2142,-2.9789,-2.8782,0.0,-2.6428,-2.6043,0.0,0.0,-2.8069,-2.868,-3.0556,-3.0798,-3.0738,-3.1154,-3.1696,-3.2049,-3.1906,-3.2528,-3.3512,0.0,-3.5487,-3.6036,-3.6711,-3.6612,-3.644,-3.6335,-3.5687,-3.5804,-3.7227,-3.7137,-3.7288,-3.7927,-3.9361,-3.9971,-3.9381,-3.974,-4.0216,-4.0734,-3.9941,-3.9692,-4.002,-3.985,-3.9644,-3.9468,-3.9061,-3.9001,-3.9259,-3.9369,-3.9747,-4.0328,-4.1341,-4.147,-4.0928,-4.0452,-3.9802,-3.9102,-3.8922,-3.8375,-3.7569,-3.6674,-3.6461,-3.6693,0.0,0.0,0.0,0.0,0.0,0.0,0.0,0.0,0.0,0.0,0.0,0.0,0.0,0.0,0.0,0.0,0.0,0.0,0.0,0.0,0.0,0.0,0.0,0.0,0.0,0.0,0.0,0.0,0.0,0.0,0.0,0.0,0.0,0.0,0.0,0.0,0.0,0.0,0.0,0.0,0.0,0.0,-3.6381,-3.6114,-3.5011,-3.3503,-3.3033,-3.1994,0.0,0.0,-3.1936,-3.1546,-3.1398,-3.1464,-3.1288,-2.9629,-2.8627,-2.7893,-2.6998,0.0,0.0,-2.9007,-2.9586,-3.039,-3.2514,-3.2384,-3.1998,-3.2737,-3.2839,-3.2563,-3.1803,-3.2595,-3.3598,-3.4464,-3.5216,-3.588,-3.6429,-3.6233,-3.5966,-3.5856,-3.5081,-3.5294,-3.7127,-3.7284,-3.759,-3.8348,-3.9927,-4.0474,-3.951,-3.991,-4.0261,-4.0476,-3.9907,-3.9579,-3.9556,-3.9312,-3.9169,-3.9094,-3.8763,-3.8836,-3.9341,-3.9372,-4.0038,-4.1276,-4.2017,-4.2183,-4.1891,-4.1314,-4.08,-4.0347,-4.0328,-3.9794,-3.8906,-3.7759,-3.7242,-3.7093,0.0,0.0,0.0,0.0,0.0,0.0,0.0,0.0,0.0,0.0,0.0,0.0,0.0,0.0,0.0,0.0,0.0,0.0,0.0,0.0,0.0,0.0,0.0,0.0,0.0,0.0,0.0,0.0,0.0,0.0,0.0,0.0,0.0,0.0,0.0,0.0,0.0,0.0,0.0,0.0,0.0,0.0,-3.6292,-3.5386,-3.3882,-3.23,-3.2607,0.0,0.0,0.0,-3.0129,-2.9967,-2.9387,-2.9286,0.0,-2.7618,-2.676,0.0,0.0,0.0,-2.8949,-2.9777,-3.0723,-3.1624,-3.2342,-3.2538,-3.2732,-3.3261,-3.2916,-3.2338,-3.1708,-3.2319,-3.3072,-3.3475,-3.4601,-3.5616,-3.6218,-3.568,-3.515,-3.4959,-3.3785,-3.4105,0.0,-3.6953,-3.781,-4.0394,-4.0417,-4.0555,-4.1105,-4.096,-4.0741,-4.04,-4.0187,-3.9808,-3.9232,-3.9206,-3.9007,-3.8611,-3.9064,-3.9071,-3.8752,-3.9596,-4.0761,-4.2025,-4.1432,-4.1866,-4.2989,-4.2128,-4.1759,-4.1724,-4.1595,-4.1093,-4.0428,-4.0224,-3.9333,-3.8137,0.0,0.0,0.0,0.0,0.0,0.0,0.0,0.0,0.0,0.0,0.0,0.0,0.0,0.0,0.0,0.0,0.0,0.0,0.0,0.0,0.0,0.0,0.0,0.0,0.0,0.0,0.0,0.0,0.0,0.0,0.0,0.0,0.0,0.0,0.0,0.0,0.0,0.0,0.0,0.0,0.0,0.0,-3.5118,-3.4359,-3.3458,-3.2415,0.0,0.0,0.0,0.0,0.0,0.0,-2.827,0.0,0.0,-2.7633,-2.755,-2.7949,-2.8073,0.0,-3.0573,-3.1274,-3.2188,-3.2985,-3.329,-3.3241,-3.2986,-3.2502,-3.1965,-3.1475,-3.1129,-3.1237,-3.1903,-3.3498,-3.4384,-3.5205,-3.617,-3.6281,-3.6377,-3.665,-3.5846,0.0,0.0,0.0,0.0,-3.979,-3.9501,-3.9443,-4.0107,-4.0541,-4.051,-3.9952,-3.9833,-3.9348,-3.8495,-3.8383,-3.8472,-3.8681,-3.9513,-3.9912,-3.994,-4.0703,-4.1562,-4.2447,-4.2337,-4.274,-4.3391,-4.2762,-4.271,-4.2988,-4.2931,-4.2494,-4.1935,-4.2184,-4.1734,-4.072,0.0,0.0,0.0,0.0,0.0,0.0,0.0,0.0,0.0,0.0,0.0,0.0,0.0,0.0,0.0,0.0,0.0,0.0,0.0,0.0,0.0,0.0,0.0,0.0,0.0,0.0,0.0,0.0,0.0,0.0,0.0,0.0,0.0,0.0,0.0,0.0,0.0,0.0,0.0,0.0,0.0,0.0,-3.4547,-3.3649,-3.2501,0.0,0.0,0.0,0.0,0.0,0.0,0.0,0.0,-2.7672,-2.8401,-2.8159,-2.8536,-2.9197,-2.9872,-3.0938,-3.2109,-3.3135,-3.3614,-3.388,-3.3963,-3.3339,-3.2541,-3.1831,-3.1322,-3.0801,-3.0194,-3.0819,-3.1852,-3.3118,-3.4267,-3.5318,-3.625,-3.6403,-3.6606,-3.7105,-3.6534,-3.6967,0.0,0.0,0.0,-3.9784,-3.9405,-3.9296,-3.9971,-4.0302,-4.0196,-3.9609,-3.9365,-3.8942,-3.8328,-3.8123,-3.8361,-3.9109,-3.9765,-4.02,-4.0451,-4.0981,-4.155,-4.2145,-4.2078,-4.2443,-4.3098,-4.288,-4.306,-4.3512,-4.3833,-4.3679,-4.3356,-4.3675,-4.3361,-4.2481,0.0,0.0,0.0,0.0,0.0,0.0,0.0,0.0,0.0,0.0,0.0,0.0,0.0,0.0,0.0,0.0,0.0,0.0,0.0,0.0,0.0,0.0,0.0,0.0,0.0,0.0,0.0,0.0,0.0,0.0,0.0,0.0,0.0,0.0,0.0,0.0,0.0,0.0,0.0,0.0,0.0,0.0,-3.4405,-3.3101,0.0,0.0,0.0,0.0,0.0,0.0,0.0,0.0,0.0,0.0,-2.7375,-2.9138,-2.9663,-3.0212,-3.2601,-3.3252,-3.3586,-3.5044,-3.4846,-3.4271,-3.4235,-3.2894,-3.1584,-3.1354,-3.1059,-3.0438,0.0,0.0,-3.2635,-3.2406,-3.4172,-3.5769,-3.6402,-3.6113,-3.5996,0.0,0.0,0.0,0.0,0.0,0.0,-4.045,0.0,-3.9904,-4.0518,-4.0254,-3.9884,-3.9458,-3.892,-3.8662,-3.8737,-3.8448,-3.8794,-3.9805,-3.982,-4.0023,-4.0358,-4.0451,-4.0804,-4.1275,-4.0727,-4.1168,-4.2316,-4.2483,-4.2861,-4.347,-4.4257,-4.4594,-4.461,-4.461,-4.4209,-4.3417,0.0,0.0,0.0,0.0,0.0,0.0,0.0,0.0,0.0,0.0,0.0,0.0,0.0,0.0,0.0,0.0,0.0,0.0,0.0,0.0,0.0,0.0,0.0,0.0,0.0,0.0,0.0,0.0,0.0,0.0,0.0,0.0,0.0,0.0,0.0,0.0,0.0,0.0,0.0,0.0,0.0,0.0,-3.2417,0.0,0.0,0.0,0.0,0.0,0.0,0.0,0.0,0.0,0.0,0.0,-2.926,-3.1,-3.1946,-3.2639,-3.3658,-3.4415,-3.4812,-3.4536,-3.4221,-3.3867,-3.3314,-3.2753,-3.216,-3.1577,-3.1258,-3.092,0.0,0.0,0.0,-3.2951,-3.3548,0.0,-3.6035,-3.6932,0.0,0.0,0.0,-3.8872,-3.9952,-3.8921,0.0,0.0,-3.9249,-3.86,-3.8471,-3.9421,-4.0007,-4.0072,-3.9349,-3.9065,-3.9296,-3.9229,-3.9303,-3.9573,-4.0081,-4.0647,-4.1238,-4.0646,-4.0699,-4.1275,-4.0461,-4.097,-4.2285,-4.1816,-4.2671,-4.4257,-4.3956,-4.4178,-4.461,-4.461,-4.4502,-4.4141,0.0,0.0,0.0,0.0,0.0,0.0,0.0,0.0,0.0,0.0,0.0,0.0,0.0,0.0,0.0,0.0,0.0,0.0,0.0,0.0,0.0,0.0,0.0,0.0,0.0,0.0,0.0,0.0,0.0,0.0,0.0,0.0,0.0,0.0,0.0,0.0,0.0,0.0,0.0,0.0,0.0,0.0,0.0,0.0,0.0,0.0,0.0,0.0,0.0,0.0,0.0,-2.9619,-3.1391,-3.1888,-3.2093,-3.3437,0.0,-3.4606,-3.5148,-3.5603,-3.5769,-3.5101,-3.4357,-3.3545,-3.2648,-3.1629,-3.0856,-3.0735,-3.039,0.0,0.0,0.0,0.0,0.0,0.0,0.0,-3.6132,-3.7182,-3.8009,0.0,-3.9135,0.0,-4.0424,-3.9549,-3.9074,0.0,-3.8745,-3.8449,-3.8564,-3.9174,-3.964,-3.9881,-3.9266,-3.9103,-3.9513,-3.9784,-3.992,-3.9936,-4.0662,-4.0942,-4.0893,-4.0872,-4.0801,-4.072,0.0,-4.0634,-4.1444,-4.1658,-4.2481,-4.3598,-4.3925,-4.4286,-4.461,-4.461,-4.4425,-4.4024,0.0,0.0,0.0,0.0,0.0,0.0,0.0,0.0,0.0,0.0,0.0,0.0,0.0,0.0,0.0,0.0,0.0,0.0,0.0,0.0,0.0,0.0,0.0,0.0,0.0,0.0,0.0,0.0,0.0,0.0,0.0,0.0,0.0,0.0,0.0,0.0,0.0,0.0,0.0,0.0,0.0,0.0,0.0,0.0,0.0,0.0,0.0,0.0,0.0,0.0,-3.0617,-3.178,-3.3153,-3.4109,-3.4863,-3.5651,-3.5856,-3.5942,-3.6369,-3.6378,-3.6167,-3.5736,-3.4461,-3.3054,-3.202,-3.0333,-2.9132,-2.9759,0.0,-2.9356,-2.9848,0.0,-3.2189,-3.3033,0.0,-3.5492,-3.6398,-3.7176,-3.7892,-3.8556,-3.9174,-3.9751,-4.0319,-3.9419,-3.8715,-3.8493,-3.8376,-3.8628,-3.9363,-3.9164,-3.9189,-3.9468,-3.916,-3.9235,-3.9647,-4.0197,-4.0551,-4.0643,-4.1166,-4.101,-4.0218,-4.102,-4.0878,-4.0046,-4.0207,0.0,-4.0648,-4.1607,-4.2233,-4.2705,-4.3743,-4.4341,-4.461,-4.4517,-4.4163,-4.3624,0.0,0.0,0.0,0.0,0.0,0.0,0.0,0.0,0.0,0.0,0.0,0.0,0.0,0.0,0.0,0.0,0.0,0.0,0.0,0.0,0.0,0.0,0.0,0.0,0.0,0.0,0.0,0.0,0.0,0.0,0.0,0.0,0.0,0.0,0.0,0.0,0.0,0.0,0.0,0.0,0.0,0.0,0.0,0.0,0.0,0.0,0.0,0.0,0.0,0.0,-3.0603,-3.2089,-3.404,-3.4666,-3.4854,-3.5669,-3.5747,-3.554,-3.5416,-3.5243,-3.4835,-3.3855,-3.2743,-3.1677,-3.0935,-3.0454,0.0,0.0,0.0,-3.1808,-3.176,-3.1934,0.0,-3.3348,0.0,0.0,0.0,0.0,-3.8135,0.0,0.0,0.0,0.0,0.0,0.0,0.0,0.0,-3.7514,-3.7861,-3.88,-3.9507,-3.9894,-4.0393,-4.0582,-4.032,-4.0428,-4.0832,-4.1401,-4.0815,-4.081,-4.1295,-4.0603,-4.0258,-4.0242,-4.0101,0.0,-4.1866,-4.0817,-4.1891,-4.4057,-4.2466,-4.2999,-4.4548,-4.3994,-4.4055,-4.4255,0.0,0.0,0.0,0.0,0.0,0.0,0.0,0.0,0.0,0.0,0.0,0.0,0.0,0.0,0.0,0.0,0.0,0.0,0.0,0.0,0.0,0.0,0.0,0.0,0.0,0.0,0.0,0.0,0.0,0.0,0.0,0.0,0.0,0.0,0.0,0.0,0.0,0.0,0.0,0.0,0.0,0.0,0.0,0.0,0.0,0.0,0.0,0.0,0.0,0.0,-3.0193,-3.1568,-3.3841,-3.4728,-3.5049,-3.5409,-3.5436,-3.527,-3.4978,-3.4745,-3.4294,-3.3095,-3.1743,-3.0615,-3.0236,0.0,0.0,0.0,0.0,-3.1167,-3.1916,0.0,0.0,0.0,0.0,0.0,0.0,0.0,0.0,0.0,0.0,0.0,0.0,0.0,0.0,0.0,0.0,-3.7447,-3.8286,-3.9202,-3.9803,-4.001,-4.051,-4.0696,-4.0489,-4.0858,-4.1263,-4.1601,-4.1546,-4.1459,-4.1428,-4.1036,-4.0664,-4.0312,-4.0207,0.0,-4.1336,-4.0883,-4.1597,-4.2971,-4.2232,-4.2621,-4.351,-4.3187,-4.3048,-4.2977,0.0,0.0,0.0,0.0,0.0,0.0,0.0,0.0,0.0,0.0,0.0,0.0,0.0,0.0,0.0,0.0,0.0,0.0,0.0,0.0,0.0,0.0,0.0,0.0,0.0,0.0,0.0,0.0,0.0,0.0,0.0,0.0,0.0,0.0,0.0,0.0,0.0,0.0,0.0,0.0,0.0,0.0,0.0,0.0,0.0,0.0,0.0,0.0,0.0,0.0,-2.9572,-3.0854,-3.2802,-3.4033,-3.4762,-3.4635,-3.4707,-3.471,-3.4233,-3.396,-3.3576,-3.251,-3.0978,-2.9738,-2.9866,-2.9042,0.0,0.0,-3.0387,-3.0491,-3.1858,0.0,0.0,0.0,0.0,0.0,0.0,0.0,0.0,0.0,0.0,0.0,0.0,0.0,0.0,0.0,0.0,0.0,-3.9056,-3.9596,-3.9971,-4.0111,-4.035,-4.0566,-4.072,-4.1324,-4.174,-4.2017,-4.2227,-4.2063,-4.1556,-4.1387,-4.0973,-4.0331,-4.0331,0.0,0.0,-4.101,-4.1382,-4.1832,-4.2043,-4.2319,-4.2586,-4.2448,-4.214,-4.1822,0.0,0.0,0.0,0.0,0.0,0.0,0.0,0.0,0.0,0.0,0.0,0.0,0.0,0.0,0.0,0.0,0.0,0.0,0.0,0.0,0.0,0.0,0.0,0.0,0.0,0.0,0.0,0.0,0.0,0.0,0.0,0.0,0.0,0.0,0.0,0.0,0.0,0.0,0.0,0.0,0.0,0.0,0.0,0.0,0.0,0.0,0.0,0.0,0.0,0.0,0.0,-3.032,-3.0711,-3.2055,-3.3371,-3.2807,0.0,0.0,-3.242,-3.21,-3.1935,-3.1528,-3.0106,-2.9044,-2.9961,0.0,0.0,0.0,-3.1411,-3.2143,-3.2701,-3.2687,0.0,0.0,0.0,0.0,0.0,0.0,0.0,0.0,0.0,0.0,0.0,0.0,0.0,0.0,0.0,0.0,-3.9172,-3.9423,-3.9835,-4.0451,-4.0493,-4.0797,-4.1494,-4.1571,-4.2202,-4.3408,-4.2073,-4.1776,-4.2427,-4.104,-4.0427,-4.0489,-4.0489,0.0,0.0,-4.0703,-4.1244,-4.2365,-4.1025,-4.1367,-4.254,-4.1925,-4.2048,-4.2453,0.0,0.0,0.0,0.0,0.0,0.0,0.0,0.0,0.0,0.0,0.0,0.0,0.0,0.0,0.0,0.0,0.0,0.0,0.0,0.0,0.0,0.0,0.0,0.0,0.0,0.0,0.0,0.0,0.0,0.0,0.0,0.0,0.0,0.0,0.0,0.0,0.0,0.0,0.0,0.0,0.0,0.0,0.0,0.0,0.0,0.0,0.0,0.0,0.0,0.0,0.0,0.0,-2.9509,-3.0716,0.0,0.0,-3.2282,-3.2366,-3.1853,-3.1617,-3.1447,-3.1176,-2.9808,-2.8925,-3.0487,0.0,0.0,-3.1752,-3.2415,-3.281,-3.3397,-3.3794,-3.4165,0.0,0.0,0.0,0.0,0.0,0.0,0.0,0.0,0.0,0.0,0.0,0.0,0.0,0.0,0.0,-3.9537,-3.989,-4.0413,-4.1155,-4.1245,-4.1654,-4.2381,-4.2891,-4.3355,-4.3772,-4.2741,-4.2361,-4.2556,-4.11,-4.047,-4.0489,-4.0489,0.0,0.0,-4.1484,-4.1546,-4.1351,-4.1607,-4.1546,-4.1289,-4.1063,-4.1124,-4.1344,0.0,0.0,0.0,0.0,0.0,0.0,0.0,0.0,0.0,0.0,0.0,0.0,0.0,0.0,0.0,0.0,0.0,0.0,0.0,0.0,0.0,0.0,0.0,0.0,0.0,0.0,0.0,0.0,0.0,0.0,0.0,0.0,0.0,0.0,0.0,0.0,0.0,0.0,0.0,0.0,0.0,0.0,0.0,0.0,0.0,0.0,0.0,0.0,0.0,0.0,0.0,0.0,0.0,0.0,0.0,0.0,-3.1858,-3.1943,-3.2336,-3.2152,-3.188,-3.1927,-3.0833,-3.0133,0.0,0.0,0.0,-3.2673,-3.3035,-3.3214,-3.4057,-3.459,-3.4929,0.0,0.0,0.0,0.0,0.0,0.0,0.0,0.0,0.0,0.0,0.0,0.0,0.0,0.0,0.0,0.0,-4.0439,-4.1063,-4.1626,-4.2003,-4.2543,-4.3293,-4.3884,-4.419,-4.4192,-4.3309,-4.2783,-4.2556,-4.1135,-4.0632,-4.0886,-4.0616,0.0,0.0,-4.1678,-4.1381,-4.0612,-4.1868,-4.1765,-4.0917,-4.1202,-4.1314,-4.1318,0.0,0.0,0.0,0.0,0.0,0.0,0.0,0.0,0.0,0.0,0.0,0.0,0.0,0.0,0.0,0.0,0.0,0.0,0.0,0.0,0.0,0.0,0.0,0.0,0.0,0.0,0.0,0.0,0.0,0.0,0.0,0.0,0.0,0.0,0.0,0.0,0.0,0.0,0.0,0.0,0.0,0.0,0.0,0.0,0.0,0.0,0.0,0.0,0.0,0.0,0.0,0.0,0.0,0.0,0.0,0.0,-3.1802,-3.2183,-3.3898,-3.3779,-3.3342,-3.3996,-3.3538,-3.3002,0.0,0.0,0.0,-3.2993,-3.3147,-3.3483,-3.4747,-3.4932,-3.51,-3.5681,-3.6373,0.0,0.0,0.0,0.0,0.0,0.0,0.0,0.0,0.0,0.0,0.0,0.0,0.0,0.0,-4.0936,-4.1641,-4.1771,-4.268,-4.3488,-4.4174,-4.419,-4.4444,-4.488,-4.3526,-4.2783,-4.2556,-4.1135,-4.0963,0.0,0.0,0.0,0.0,-4.0886,-4.0505,-4.0601,-4.1488,-4.1821,-4.1883,-4.2809,-4.318,-4.3051,0.0,0.0,0.0,0.0,0.0,0.0,0.0,0.0,0.0,0.0,0.0,0.0,0.0,0.0,0.0,0.0,0.0,0.0,0.0,0.0,0.0,0.0,0.0,0.0,0.0,0.0,0.0,0.0,0.0,0.0,0.0,0.0,0.0,0.0,0.0,0.0,0.0,0.0,0.0,0.0,0.0,0.0,0.0,0.0,0.0,0.0,0.0,0.0,0.0,0.0,0.0,0.0,0.0,0.0,0.0,0.0,0.0,0.0,-3.3254,-3.3358,-3.3162,-3.3273,-3.2641,-3.2017,-3.2202,0.0,0.0,-3.3481,-3.417,-3.474,-3.5424,-3.5526,-3.5545,-3.5655,-3.6745,-3.7611,0.0,0.0,0.0,0.0,0.0,0.0,0.0,0.0,0.0,0.0,0.0,0.0,0.0,-4.1961,-4.2636,-4.255,-4.3412,-4.4278,-4.5076,-4.5222,-4.5295,-4.5315,-4.4898,-4.4086,-4.29,-4.2395,-4.1771,0.0,0.0,0.0,0.0,-4.2993,-4.2889,-4.1755,-4.3314,-4.3449,-4.2758,-4.2777,-4.2652,-4.2396,0.0,0.0,0.0,0.0,0.0,0.0,0.0,0.0,0.0,0.0,0.0,0.0,0.0,0.0,0.0,0.0,0.0,0.0,0.0,0.0,0.0,0.0,0.0,0.0,0.0,0.0,0.0,0.0,0.0,0.0,0.0,0.0,0.0,0.0,0.0,0.0,0.0,0.0,0.0,0.0,0.0,0.0,-2.3384,0.0,0.0,0.0,0.0,0.0,0.0,0.0,0.0,0.0,0.0,0.0,0.0,0.0,-3.2383,0.0,0.0,-3.3748,-3.3341,-3.3821,-3.3462,0.0,0.0,0.0,0.0,0.0,-3.4622,-3.5187,-3.5351,-3.5608,-3.5875,-3.6079,-3.6926,0.0,0.0,0.0,0.0,0.0,0.0,0.0,0.0,0.0,0.0,0.0,0.0,0.0,0.0,-4.2197,-4.288,-4.3074,-4.4189,-4.5076,-4.5625,-4.5735,-4.5698,-4.5478,-4.4893,-4.408,-4.3007,-4.2372,-4.1814,0.0,0.0,0.0,0.0,-4.3722,-4.3639,-4.254,-4.4117,-4.4336,-4.3705,-4.3847,-4.3666,-4.3252,0.0,0.0,0.0,0.0,0.0,0.0,0.0,0.0,0.0,0.0,0.0,0.0,0.0,0.0,0.0,0.0,0.0,0.0,0.0,0.0,0.0,0.0,0.0,0.0,0.0,0.0,0.0,0.0,-2.4126,-2.4181,-2.4281,0.0,0.0,0.0,0.0,0.0,0.0,0.0,0.0,0.0,0.0,0.0,0.0,0.0,0.0,0.0,0.0,0.0,0.0,0.0,0.0,0.0,0.0,0.0,0.0,0.0,0.0,0.0,0.0,0.0,0.0,0.0,0.0,0.0,0.0,0.0,0.0,0.0,0.0,0.0,-3.4789,-3.5392,-3.6118,-3.6877,-3.7098,0.0,0.0,0.0,0.0,0.0,0.0,0.0,0.0,0.0,0.0,0.0,0.0,0.0,0.0,-4.1859,-4.2547,-4.3415,-4.4957,-4.5807,-4.5807,-4.5807,-4.5698,-4.5499,-4.4116,-4.3281,-4.2916,-4.1658,-4.1417,0.0,0.0,0.0,0.0,-4.3298,-4.3203,-4.3138,-4.4183,-4.4593,-4.4744,-4.5678,-4.5757,-4.5197,0.0,0.0,0.0,0.0,0.0,0.0,0.0,0.0,0.0,0.0,0.0,0.0,0.0,0.0,0.0,0.0,0.0,0.0,0.0,0.0,0.0,0.0,0.0,0.0,0.0,0.0,0.0,-2.4257,-2.4294,-2.4561,-2.5051,-2.497,0.0,0.0,0.0,0.0,0.0,0.0,0.0,0.0,0.0,0.0,0.0,0.0,0.0,0.0,-2.5791,-2.601,0.0,0.0,0.0,0.0,0.0,0.0,0.0,0.0,-3.202,-3.2581,-3.4367,0.0,-3.3594,-3.4366,0.0,0.0,0.0,0.0,0.0,0.0,0.0,0.0,0.0,0.0,-3.6684,-3.7013,0.0,0.0,0.0,0.0,0.0,0.0,0.0,0.0,0.0,0.0,0.0,0.0,0.0,0.0,0.0,-4.2519,-4.3258,-4.364,-4.5029,-4.5807,-4.5807,-4.5807,-4.5771,-4.5735,-4.5887,-4.511,-4.3513,-4.3576,-4.2836,0.0,0.0,0.0,-4.272,-4.3862,-4.4303,-4.4346,-4.4997,-4.5462,-4.573,-4.564,-4.5583,-4.5449,0.0,0.0,0.0,0.0,0.0,0.0,0.0,0.0,0.0,0.0,0.0,0.0,0.0,0.0,0.0,0.0,0.0,0.0,0.0,0.0,0.0,0.0,0.0,0.0,0.0,0.0,0.0,0.0,0.0,-2.4945,0.0,0.0,0.0,0.0,0.0,0.0,0.0,0.0,0.0,0.0,-2.1956,0.0,0.0,0.0,0.0,0.0,-2.61,-2.6295,0.0,-2.6572,-2.7433,-2.8502,0.0,0.0,0.0,0.0,-3.2541,-3.3054,-3.419,-3.3925,-3.3537,-3.4515,-3.4676,-3.4579,0.0,0.0,0.0,0.0,0.0,0.0,0.0,0.0,0.0,0.0,0.0,0.0,0.0,0.0,0.0,0.0,0.0,0.0,0.0,0.0,0.0,0.0,0.0,0.0,0.0,-4.2703,-4.3397,-4.4132,-4.4907,-4.5476,-4.5807,-4.5807,-4.5807,-4.5807,-4.5435,-4.4638,-4.3551,-4.3179,-4.2406,0.0,0.0,0.0,-4.3094,-4.424,-4.4835,-4.511,-4.5577,-4.5916,-4.608,-4.6048,-4.5869,-4.5654,0.0,0.0,0.0,0.0,0.0,0.0,0.0,0.0,0.0,0.0,0.0,0.0,0.0,0.0,0.0,0.0,0.0,0.0,0.0,0.0,0.0,0.0,0.0,0.0,0.0,0.0,0.0,0.0,0.0,0.0,0.0,0.0,0.0,0.0,0.0,0.0,0.0,0.0,0.0,0.0,-2.241,0.0,0.0,0.0,0.0,0.0,0.0,0.0,0.0,-2.664,-2.7283,-2.8217,-2.8682,0.0,0.0,0.0,0.0,0.0,-3.4278,-3.3958,-3.3707,-3.4951,-3.5152,-3.506,0.0,0.0,0.0,0.0,0.0,0.0,0.0,0.0,0.0,0.0,0.0,0.0,0.0,0.0,0.0,0.0,0.0,0.0,0.0,0.0,0.0,0.0,0.0,0.0,0.0,-4.2837,-4.3421,-4.467,-4.4828,-4.5175,-4.5807,-4.5807,-4.5807,-4.5792,-4.4398,-4.3635,-4.3399,-4.2221,-4.1561,-4.1388,0.0,0.0,-4.3722,-4.4322,-4.4942,-4.5589,-4.5916,-4.6096,-4.6156,-4.6458,-4.6316,-4.5955,0.0,0.0,0.0,0.0,0.0,0.0,0.0,0.0,0.0,0.0,0.0,0.0,0.0,0.0,0.0,0.0,0.0,0.0,0.0,0.0,0.0,0.0,0.0,0.0,0.0,0.0,0.0,0.0,0.0,0.0,-2.7449,-2.746,-2.689,0.0,0.0,0.0,0.0,-2.3541,-2.3255,-2.2917,-2.1761,0.0,0.0,0.0,0.0,0.0,0.0,0.0,0.0,-2.6742,-2.7604,-2.8787,-2.8922,0.0,0.0,0.0,0.0,0.0,-3.4138,-3.4398,-3.4325,-3.4528,-3.4854,-3.518,0.0,0.0,0.0,0.0,0.0,0.0,0.0,0.0,0.0,0.0,0.0,0.0,0.0,0.0,0.0,0.0,0.0,0.0,0.0,0.0,0.0,0.0,0.0,0.0,0.0,-4.3529,-4.3911,-4.4685,-4.5317,-4.5697,-4.5807,-4.5807,-4.5807,-4.5807,-4.555,-4.4788,-4.3636,-4.3431,-4.2658,-4.1555,0.0,-4.2505,-4.3722,-4.3797,-4.4603,-4.5771,-4.5807,-4.6008,-4.6278,-4.6333,-4.662,-4.6743,0.0,0.0,0.0,0.0,0.0,0.0,0.0,0.0,0.0,0.0,0.0,0.0,0.0,0.0,0.0,0.0,0.0,0.0,0.0,0.0,0.0,0.0,0.0,0.0,0.0,0.0,0.0,0.0,0.0,-2.7231,-2.8071,-2.8298,-2.7664,-2.6344,0.0,0.0,0.0,-2.3045,-2.2678,-2.2538,0.0,0.0,0.0,0.0,0.0,0.0,0.0,0.0,0.0,0.0,-2.6604,-2.7626,-2.8427,0.0,0.0,0.0,0.0,0.0,-3.4789,-3.5171,-3.5238,-3.5677,-3.5846,-3.6008,0.0,0.0,0.0,0.0,0.0,0.0,0.0,0.0,0.0,0.0,0.0,0.0,0.0,0.0,0.0,0.0,0.0,0.0,0.0,0.0,0.0,0.0,0.0,0.0,0.0,0.0,-4.3883,-4.4827,-4.5191,-4.533,-4.5223,-4.5223,-4.5223,-4.5207,-4.4843,-4.4132,-4.3153,-4.2758,-4.2205,-4.1604,0.0,-4.2758,-4.3722,-4.4101,-4.4875,-4.5844,-4.6136,-4.6333,-4.6493,-4.6839,-4.6491,-4.5797,0.0,0.0,0.0,0.0,0.0,0.0,0.0,0.0,0.0,0.0,0.0,0.0,0.0,0.0,0.0,0.0,0.0,0.0,0.0,0.0,0.0,0.0,0.0,0.0,0.0,0.0,0.0,-2.6028,-2.7248,-2.7951,-2.8182,-2.8728,-2.8052,0.0,0.0,0.0,0.0,-2.2647,-2.2361,-2.2512,0.0,0.0,0.0,0.0,0.0,0.0,0.0,0.0,0.0,0.0,0.0,0.0,0.0,0.0,0.0,-3.203,-3.3009,-3.3793,-3.4987,-3.5405,-3.5663,-3.6492,0.0,0.0,0.0,0.0,0.0,0.0,0.0,0.0,0.0,0.0,0.0,0.0,0.0,0.0,0.0,0.0,0.0,0.0,0.0,0.0,0.0,0.0,0.0,0.0,0.0,0.0,0.0,0.0,-4.3946,-4.5037,-4.4891,-4.4691,-4.455,-4.448,-4.4559,-4.4701,-4.4164,-4.3658,-4.3153,-4.2584,-4.2236,-4.2126,-4.2695,-4.3295,-4.3943,-4.4322,-4.5001,-4.59,-4.6141,-4.6419,-4.6705,-4.6808,-4.606,-4.487,0.0,0.0,0.0,0.0,0.0,0.0,0.0,0.0,0.0,0.0,0.0,0.0,0.0,0.0,0.0,0.0,0.0,0.0,0.0,0.0,0.0,0.0,0.0,0.0,0.0,-2.5124,-2.599,-2.7629,-2.7864,-2.7922,-2.7845,-2.8624,-2.753,-2.4879,0.0,0.0,0.0,-2.2559,-2.2782,-2.333,-2.2365,0.0,0.0,0.0,0.0,0.0,0.0,0.0,0.0,0.0,0.0,0.0,0.0,0.0,-3.2581,-3.2299,-3.2915,-3.3723,-3.3812,-3.4286,-3.495,-3.5626,0.0,0.0,0.0,0.0,0.0,0.0,0.0,0.0,0.0,0.0,0.0,0.0,0.0,0.0,0.0,0.0,0.0,0.0,0.0,0.0,0.0,0.0,0.0,0.0,0.0,0.0,0.0,0.0,0.0,-4.5261,-4.4514,-4.4077,-4.4042,-4.387,-4.4066,-4.4717,-4.4654,-4.4606,-4.4559,-4.4512,-4.4148,-4.3545,-4.3592,-4.4022,-4.4591,-4.4022,-4.4661,-4.5997,-4.5384,-4.5846,-4.673,-4.5452,-4.5179,-4.504,0.0,0.0,0.0,0.0,0.0,0.0,0.0,0.0,0.0,0.0,0.0,0.0,0.0,0.0,0.0,0.0,0.0,0.0,0.0,0.0,0.0,0.0,0.0,-2.2454,-2.4466,-2.5407,-2.6563,-2.7996,-2.8584,-2.8751,-2.8494,-2.8794,0.0,0.0,0.0,0.0,0.0,-2.2829,-2.3143,-2.3656,-2.3196,-2.3908,0.0,0.0,0.0,0.0,0.0,0.0,0.0,0.0,-2.6991,-2.8236,0.0,0.0,-3.1615,-3.1986,-3.2494,-3.3054,-3.3459,-3.3758,-3.4354,-3.6071,0.0,0.0,0.0,0.0,0.0,0.0,0.0,0.0,0.0,0.0,0.0,0.0,0.0,0.0,0.0,0.0,0.0,0.0,0.0,0.0,0.0,0.0,0.0,0.0,0.0,0.0,0.0,0.0,0.0,-4.5484,-4.4723,-4.4152,-4.3825,-4.3844,-4.3936,-4.4101,-4.4101,-4.4101,-4.4101,-4.4101,-4.3924,-4.3687,-4.3687,-4.3829,-4.405,-4.3782,-4.4161,-4.4952,-4.5106,-4.5538,-4.5979,-4.5584,-4.4549,-4.3237,0.0,0.0,0.0,0.0,0.0,0.0,0.0,0.0,0.0,0.0,0.0,0.0,0.0,0.0,0.0,0.0,0.0,0.0,0.0,0.0,0.0,0.0,0.0,-2.2373,-2.4086,-2.5309,-2.649,-2.7639,-2.8219,-2.8265,-2.7805,0.0,0.0,0.0,0.0,0.0,0.0,0.0,-2.3894,-2.4566,-2.3691,-2.4099,0.0,0.0,0.0,0.0,0.0,0.0,0.0,0.0,0.0,0.0,0.0,0.0,0.0,0.0,-3.2352,-3.3017,-3.3459,-3.3917,-3.4743,0.0,0.0,0.0,0.0,0.0,0.0,0.0,0.0,0.0,0.0,0.0,0.0,0.0,0.0,0.0,0.0,0.0,0.0,0.0,0.0,0.0,0.0,0.0,0.0,0.0,0.0,0.0,0.0,0.0,0.0,0.0,-4.4767,-4.4147,-4.405,-4.3777,-4.382,-4.4107,-4.4107,-4.4199,-4.4385,-4.442,-4.4294,-4.4003,-4.4072,-4.3946,-4.3655,-4.3232,-4.328,-4.3746,-4.4854,-4.524,-4.5151,-4.4983,-4.3812,-4.2301,0.0,0.0,0.0,0.0,0.0,0.0,0.0,0.0,0.0,0.0,0.0,0.0,0.0,0.0,0.0,0.0,0.0,0.0,0.0,0.0,0.0,0.0,0.0,-2.2327,-2.4135,-2.4782,-2.5585,-2.6612,-2.6615,-2.6193,-2.5448,0.0,0.0,0.0,0.0,0.0,0.0,0.0,0.0,-2.6274,-2.367,-2.4001,-2.5917,0.0,0.0,0.0,0.0,0.0,0.0,0.0,0.0,0.0,0.0,0.0,0.0,0.0,-3.2587,-3.3773,-3.3809,-3.4871,0.0,0.0,0.0,0.0,0.0,0.0,0.0,0.0,0.0,0.0,0.0,0.0,0.0,0.0,0.0,0.0,0.0,0.0,0.0,0.0,0.0,0.0,0.0,0.0,0.0,0.0,0.0,0.0,0.0,0.0,0.0,0.0,-4.4545,-4.3945,-4.4787,-4.3549,-4.3616,-4.4999,-4.5015,-4.529,-4.5807,-4.6004,-4.5592,-4.4717,-4.4929,-4.4513,-4.3611,-4.2173,-4.1916,-4.2574,-4.4511,-4.4913,-4.4266,-4.342,-4.2937,-4.2608,0.0,0.0,0.0,0.0,0.0,0.0,0.0,0.0,0.0,0.0,0.0,0.0,0.0,0.0,0.0,0.0,0.0,0.0,0.0,0.0,0.0,0.0,0.0,0.0,0.0,0.0,-2.5108,-2.6667,-2.7195,-2.7299,0.0,0.0,0.0,-2.6537,0.0,0.0,0.0,0.0,0.0,-2.6748,-2.4694,-2.4537,-2.5432,0.0,0.0,0.0,0.0,0.0,0.0,0.0,0.0,0.0,0.0,0.0,0.0,-3.1167,-3.1759,-3.2411,-3.344,0.0,0.0,0.0,0.0,0.0,0.0,0.0,0.0,0.0,0.0,0.0,0.0,0.0,0.0,0.0,0.0,0.0,0.0,0.0,0.0,0.0,0.0,0.0,0.0,0.0,0.0,0.0,0.0,0.0,0.0,0.0,0.0,0.0,-4.5728,-4.5121,-4.4939,-4.4834,-4.4946,-4.5224,-4.5843,-4.6,-4.5807,-4.6004,-4.5949,-4.5675,-4.5343,-4.4571,-4.3454,-4.2895,-4.2434,-4.226,-4.3591,-4.3363,-4.2266,-4.1993,-4.1567,-4.1227,0.0,0.0,0.0,0.0,0.0,0.0,0.0,0.0,0.0,0.0,0.0,0.0,0.0,0.0,0.0,0.0,0.0,0.0,0.0,0.0,0.0,0.0,0.0,0.0,0.0,-2.3406,-2.449,0.0,0.0,0.0,0.0,0.0,0.0,-2.7289,0.0,0.0,0.0,0.0,0.0,0.0,-2.5612,-2.5279,-2.5766,0.0,0.0,0.0,0.0,0.0,0.0,0.0,0.0,0.0,0.0,0.0,0.0,-3.1547,-3.2196,-3.2744,-3.3933,0.0,0.0,0.0,0.0,0.0,0.0,0.0,0.0,0.0,0.0,0.0,0.0,0.0,0.0,0.0,0.0,0.0,0.0,0.0,0.0,0.0,0.0,0.0,0.0,0.0,0.0,0.0,0.0,0.0,0.0,0.0,0.0,0.0,-4.6398,-4.5934,-4.5971,-4.5747,-4.5584,-4.55,-4.5987,-4.5878,-4.5304,-4.6003,-4.5955,-4.5295,-4.4493,-4.3377,-4.2187,-4.2213,-4.1789,-4.1187,-4.2307,-4.2038,-4.1044,-4.1309,-4.1006,-4.0641,0.0,0.0,0.0,0.0,0.0,0.0,0.0,0.0,0.0,0.0,0.0,0.0,0.0,0.0,0.0,0.0,0.0,0.0,0.0,0.0,0.0,0.0,0.0,0.0,0.0,0.0,0.0,0.0,0.0,0.0,0.0,0.0,-2.6817,-2.7544,0.0,-2.86,0.0,0.0,0.0,0.0,0.0,-2.6149,0.0,0.0,0.0,0.0,0.0,0.0,0.0,0.0,0.0,0.0,0.0,0.0,0.0,-3.2206,-3.3251,-3.4051,0.0,0.0,0.0,0.0,0.0,0.0,0.0,0.0,0.0,0.0,0.0,0.0,0.0,0.0,0.0,0.0,0.0,0.0,0.0,0.0,0.0,0.0,0.0,0.0,0.0,0.0,0.0,0.0,0.0,0.0,0.0,0.0,0.0,-4.7935,-4.6584,-4.6285,-4.724,-4.6052,-4.5527,-4.5628,-4.5591,-4.5185,-4.4524,-4.5828,-4.5628,-4.4209,-4.2928,-4.1655,-4.0506,-4.0821,-4.0447,-3.9785,-4.097,-4.0973,-4.0376,-4.0994,-4.0923,-4.0567,0.0,0.0,0.0,0.0,0.0,0.0,0.0,0.0,0.0,0.0,0.0,0.0,0.0,0.0,0.0,0.0,0.0,0.0,0.0,0.0,0.0,0.0,0.0,0.0,0.0,0.0,0.0,0.0,0.0,0.0,0.0,0.0,0.0,-2.8433,0.0,-2.86,0.0,0.0,0.0,0.0,0.0,0.0,0.0,0.0,0.0,0.0,0.0,0.0,0.0,0.0,0.0,0.0,-3.007,-3.0206,-3.0571,-3.1503,-3.2387,0.0,0.0,0.0,0.0,0.0,0.0,0.0,0.0,0.0,0.0,0.0,0.0,0.0,0.0,0.0,0.0,0.0,0.0,0.0,0.0,0.0,0.0,0.0,0.0,0.0,0.0,0.0,0.0,0.0,0.0,0.0,0.0,0.0,0.0,-4.7521,-4.6044,-4.5309,-4.539,-4.4675,-4.435,0.0,-4.5065,-4.4967,-4.4266,-4.4754,-4.4913,-4.4724,-4.3056,-4.2146,-4.1832,-4.1457,-4.0535,-3.9528,-4.1045,-4.0845,-3.9698,-3.9847,-3.9841,-3.9834,0.0,0.0,0.0,0.0,0.0,0.0,0.0,0.0,0.0,0.0,0.0,0.0,0.0,0.0,0.0,0.0,0.0,0.0,0.0,0.0,0.0,0.0,0.0,0.0,0.0,0.0,0.0,0.0,0.0,0.0,0.0,0.0,0.0,-2.865,0.0,-2.837,0.0,0.0,0.0,0.0,0.0,0.0,0.0,0.0,0.0,0.0,0.0,0.0,0.0,0.0,0.0,0.0,0.0,0.0,-3.182,-3.2949,-3.3573,-3.3964,0.0,0.0,0.0,0.0,0.0,0.0,0.0,0.0,0.0,0.0,0.0,0.0,0.0,0.0,0.0,0.0,0.0,0.0,0.0,0.0,0.0,0.0,0.0,0.0,0.0,0.0,0.0,0.0,0.0,0.0,0.0,-4.6203,-4.593,-4.6011,-4.4641,-4.3896,-4.3896,-4.3959,-4.3858,-4.3578,-4.4377,-4.4407,-4.3702,-4.4154,-4.4333,-4.4146,-4.287,-4.1893,-4.1214,-4.0696,-4.0032,-3.9408,-4.0361,-4.0221,-3.9501,-3.9501,-3.9475,-3.9472,0.0,0.0,0.0,0.0,0.0,0.0,0.0,0.0,0.0,0.0,0.0,0.0,0.0,0.0,0.0,0.0,0.0,0.0,0.0,0.0,0.0,0.0,0.0,0.0,0.0,0.0,0.0,0.0,0.0,0.0,0.0,0.0,0.0,-2.8612,0.0,0.0,0.0,0.0,0.0,0.0,0.0,0.0,0.0,0.0,0.0,0.0,0.0,-2.8934,-2.8571,-3.016,0.0,0.0,0.0,0.0,-3.315,-3.4436,-3.4956,-3.5065,0.0,0.0,0.0,0.0,0.0,0.0,0.0,0.0,0.0,0.0,0.0,0.0,0.0,0.0,0.0,0.0,0.0,0.0,0.0,0.0,0.0,0.0,0.0,0.0,0.0,0.0,0.0,0.0,0.0,0.0,-4.6136,-4.4989,-4.4397,-4.4537,-4.3106,-4.245,-4.2751,-4.3255,-4.3301,-4.2963,-4.3732,-4.3729,-4.304,-4.3647,-4.3645,-4.3161,-4.245,-4.1391,-4.0161,-3.9677,-3.9432,-3.9405,-3.9625,-3.9668,-3.958,-3.9537,-3.9432,-3.9352,0.0,0.0,0.0,0.0,0.0,0.0,0.0,0.0,0.0,0.0,0.0,0.0,0.0,0.0,0.0,0.0,0.0,0.0,-1.901,0.0,0.0,-2.0148,0.0,0.0,0.0,0.0,0.0,0.0,0.0,0.0,0.0,0.0,0.0,0.0,0.0,0.0,0.0,0.0,0.0,0.0,0.0,0.0,0.0,0.0,0.0,0.0,0.0,0.0,-2.9462,-3.1028,-3.1528,0.0,0.0,0.0,-3.2936,-3.315,-3.4151,0.0,0.0,0.0,0.0,0.0,0.0,0.0,0.0,0.0,0.0,0.0,0.0,0.0,0.0,0.0,0.0,0.0,0.0,0.0,0.0,0.0,0.0,0.0,0.0,0.0,0.0,0.0,0.0,0.0,0.0,0.0,-4.5513,-4.5087,-4.4749,-4.4688,-4.2413,-4.1514,-4.2182,-4.1658,-4.173,-4.2433,-4.3264,-4.3291,-4.258,-4.2679,-4.262,-4.2417,-4.1774,-4.1138,-4.0496,-3.9774,-3.9563,-3.9651,-3.9807,-3.9875,-3.9824,-3.972,-3.959,-3.9475,0.0,0.0,0.0,0.0,0.0,0.0,0.0,0.0,0.0,0.0,0.0,0.0,0.0,0.0,0.0,-1.8896,-1.8932,-1.8941,-1.8941,-1.9219,-1.9558,-1.997,-2.1069,0.0,0.0,0.0,0.0,0.0,0.0,0.0,0.0,-2.8636,-2.943,0.0,0.0,0.0,0.0,0.0,0.0,0.0,0.0,0.0,0.0,0.0,0.0,0.0,0.0,0.0,0.0,-3.175,-3.2189,-3.2002,-3.2729,0.0,0.0,0.0,-3.4704,0.0,0.0,0.0,0.0,0.0,0.0,0.0,0.0,0.0,0.0,0.0,0.0,0.0,0.0,0.0,0.0,0.0,0.0,0.0,0.0,0.0,0.0,0.0,0.0,0.0,0.0,0.0,0.0,0.0,0.0,-4.4641,-4.4769,-4.4106,-4.3714,-4.3639,-4.2096,-4.1436,-4.175,-4.1816,-4.2043,-4.2431,-4.2791,-4.2804,-4.2489,-4.2622,-4.2406,-4.1951,-4.1687,-4.125,-4.0702,-4.0431,-4.0124,-3.9857,-4.0329,-4.0471,-4.0443,-4.0792,-4.0798,-4.0497,0.0,0.0,0.0,0.0,0.0,0.0,0.0,0.0,0.0,0.0,0.0,0.0,0.0,0.0,0.0,0.0,-1.8887,-1.8932,-1.8932,-1.8878,-1.921,-1.9981,-2.0749,-2.1614,0.0,0.0,0.0,0.0,0.0,0.0,-2.7864,-2.9397,-3.0711,0.0,-3.1388,0.0,0.0,0.0,0.0,0.0,0.0,0.0,0.0,0.0,0.0,0.0,0.0,0.0,0.0,0.0,-3.2806,-3.2667,-3.3183,-3.3331,0.0,0.0,0.0,0.0,0.0,0.0,0.0,0.0,0.0,0.0,0.0,0.0,0.0,0.0,0.0,0.0,0.0,0.0,0.0,0.0,0.0,0.0,0.0,0.0,0.0,0.0,0.0,0.0,0.0,0.0,0.0,0.0,0.0,-4.427,-4.4367,-4.3434,-4.2891,-4.2862,-4.1821,-4.1455,-4.182,-4.2563,-4.2771,-4.2489,-4.2746,-4.263,-4.2237,-4.2625,-4.251,-4.2033,-4.2033,-4.1698,-4.1147,-4.1237,-4.097,-4.0559,-4.1079,-4.1218,-4.1188,-4.1676,-4.1666,-4.1342,0.0,0.0,0.0,0.0,0.0,0.0,0.0,0.0,0.0,0.0,0.0,0.0,0.0,-1.8878,-1.8852,-1.8725,-1.8887,-1.8984,-1.8984,-1.8878,-1.92,-2.0054,-2.0747,0.0,-2.247,0.0,0.0,0.0,0.0,0.0,-2.7937,-2.9474,-3.1102,-3.2693,-3.1727,-3.0833,-2.9978,0.0,0.0,0.0,0.0,0.0,0.0,0.0,0.0,0.0,0.0,0.0,0.0,0.0,-3.3542,-3.4179,-3.4215,-3.4233,-3.4397,0.0,0.0,0.0,0.0,0.0,0.0,0.0,0.0,0.0,0.0,0.0,0.0,0.0,0.0,0.0,0.0,0.0,0.0,0.0,0.0,0.0,0.0,0.0,0.0,0.0,0.0,0.0,0.0,0.0,0.0,0.0,0.0,-4.4587,-4.457,-4.3687,-4.3127,-4.2975,-4.1476,-4.1311,-4.2739,-4.3576,-4.3506,-4.2489,-4.3394,-4.2995,-4.1491,-4.2392,-4.2851,-4.2925,-4.2925,-4.259,-4.2038,-4.2038,-4.2102,-4.2158,-4.2075,-4.2055,-4.2001,-4.1794,-4.1571,-4.1409,0.0,0.0,0.0,0.0,0.0,0.0,0.0,0.0,0.0,0.0,0.0,0.0,0.0,-1.8387,-1.8271,-1.878,-1.8861,-1.887,-1.887,-1.8824,-1.9164,-2.0008,-2.071,-2.1552,-2.247,0.0,0.0,0.0,0.0,-2.5979,-2.7727,-2.8895,-3.0343,-3.2004,-3.271,-3.2575,-3.1703,-3.0708,0.0,0.0,0.0,0.0,0.0,0.0,0.0,0.0,0.0,0.0,0.0,0.0,0.0,-3.4571,-3.5045,-3.4833,-3.4567,-3.5211,-3.5897,0.0,0.0,0.0,0.0,0.0,0.0,0.0,0.0,0.0,0.0,0.0,0.0,0.0,0.0,0.0,0.0,0.0,0.0,0.0,0.0,0.0,0.0,0.0,0.0,0.0,0.0,0.0,0.0,0.0,0.0,0.0,-4.4615,-4.3787,-4.331,-4.3255,-4.2705,-4.2813,-4.3638,-4.3478,-4.2867,-4.1794,-4.2597,-4.246,-4.1442,-4.2375,-4.3077,-4.3568,-4.3683,-4.3418,-4.2922,-4.284,-4.257,-4.2193,-4.2401,-4.2473,-4.254,-4.296,-4.2983,-4.2738,0.0,0.0,0.0,0.0,0.0,0.0,0.0,0.0,0.0,0.0,0.0,0.0,0.0,0.0,-1.8305,-1.8887,-1.8833,-1.8797,-1.8834,-1.8815,-1.9279,-2.0355,-2.0843,-2.1639,-2.2812,0.0,0.0,0.0,0.0,0.0,0.0,0.0,-2.9379,-3.0765,-3.249,0.0,0.0,0.0,0.0,-3.0763,0.0,0.0,-3.0472,0.0,0.0,0.0,0.0,0.0,0.0,0.0,0.0,0.0,0.0,-3.577,-3.5792,-3.5881,-3.6375,0.0,0.0,0.0,0.0,0.0,0.0,0.0,0.0,0.0,0.0,0.0,0.0,0.0,0.0,0.0,0.0,0.0,0.0,0.0,0.0,0.0,0.0,0.0,0.0,0.0,0.0,0.0,0.0,0.0,0.0,0.0,-4.4737,-4.419,-4.3637,-4.3102,-4.3058,-4.3147,-4.3446,-4.2942,-4.2434,-4.1891,-4.236,-4.2299,-4.1806,-4.2741,-4.3431,-4.3898,-4.4056,-4.3927,-4.3625,-4.353,-4.3216,-4.2786,-4.3018,-4.3115,-4.3181,-4.3639,-4.3704,-4.3532,0.0,0.0,0.0,0.0,0.0,0.0,0.0,0.0,0.0,0.0,0.0,0.0,0.0,0.0,0.0,-1.9002,-1.8843,-1.8788,-1.8887,-1.8834,-1.9511,-2.1105,-2.1118,-2.1847,-2.3434,0.0,0.0,0.0,0.0,0.0,0.0,0.0,-2.8312,0.0,-3.0965,-3.1797,-3.1916,0.0,-3.25,-3.1939,0.0,-3.1714,-3.1346,0.0,0.0,0.0,-3.2554,-3.2753,0.0,-3.295,0.0,0.0,0.0,0.0,0.0,-3.7174,0.0,0.0,0.0,0.0,0.0,0.0,0.0,0.0,0.0,0.0,0.0,0.0,0.0,0.0,0.0,0.0,0.0,0.0,0.0,0.0,0.0,0.0,0.0,0.0,0.0,0.0,0.0,0.0,0.0,0.0,0.0,-4.4858,-4.4978,-4.4824,-4.4089,-4.2592,-4.2366,-4.2267,-4.2156,-4.2122,-4.2355,-4.2782,-4.2782,-4.2679,-4.2489,-4.3427,-4.3864,-4.3864,-4.3993,-4.408,-4.4097,-4.4097,-4.4097,-4.4068,-4.3939,-4.3898,-4.3868,-4.3658,-4.3598,-4.3598,0.0,0.0,0.0,0.0,0.0,0.0,0.0,0.0,0.0,0.0,0.0,0.0,0.0,0.0,-2.0246,-1.9031,-1.9361,-1.9386,-1.8779,-1.8734,-1.9206,-2.0279,-2.0787,-2.1523,-2.2607,0.0,0.0,0.0,0.0,0.0,0.0,0.0,0.0,0.0,-3.0456,-3.1017,-3.1075,-3.17,0.0,0.0,-3.2354,-3.2456,0.0,0.0,0.0,0.0,0.0,-3.2668,-3.2852,0.0,-3.3888,-3.4436,0.0,0.0,0.0,0.0,0.0,0.0,-3.7542,0.0,0.0,0.0,0.0,0.0,0.0,0.0,0.0,0.0,0.0,0.0,0.0,0.0,0.0,0.0,0.0,0.0,0.0,0.0,0.0,0.0,0.0,0.0,0.0,0.0,0.0,0.0,-4.5005,-4.4913,-4.4858,-4.4166,-4.3702,-4.3524,-4.2707,-4.2784,-4.3838,-4.2682,-4.2355,-4.2782,-4.2748,-4.238,-4.1711,-4.2531,-4.2891,-4.2891,-4.292,-4.3248,-4.3747,-4.3881,-4.3956,-4.3956,-4.3747,-4.3687,-4.3674,-4.3628,-4.3598,-4.3568,0.0,0.0,0.0,0.0,0.0,0.0,0.0,0.0,0.0,0.0,0.0,0.0,0.0,0.0,-2.0919,-1.9982,-1.996,-1.9778,-1.9286,-1.8948,-1.9145,-1.9966,-2.0672,-2.1437,-2.2278,0.0,0.0,0.0,0.0,0.0,0.0,0.0,0.0,0.0,0.0,0.0,0.0,0.0,0.0,0.0,-3.2706,0.0,0.0,-3.3071,-3.2883,0.0,0.0,0.0,-3.3371,-3.3599,-3.3985,0.0,0.0,0.0,0.0,0.0,0.0,0.0,0.0,0.0,0.0,0.0,0.0,0.0,0.0,-3.6307,0.0,0.0,0.0,0.0,0.0,0.0,0.0,0.0,0.0,0.0,0.0,0.0,0.0,0.0,0.0,0.0,0.0,0.0,0.0,-4.5274,-4.5167,-4.5059,-4.4951,-4.4153,-4.3634,-4.3545,-4.2551,-4.2421,-4.3277,-4.2206,-4.1967,-4.2585,-4.2282,-4.1953,-4.1559,-4.2187,-4.2489,-4.2506,-4.282,-4.3201,-4.3598,-4.3734,-4.3763,-4.3763,-4.3658,-4.3598,-4.3598,-4.3598,-4.3598,-4.3519,0.0,0.0,0.0,0.0,0.0,0.0,0.0,0.0,0.0,0.0,0.0,0.0,0.0,0.0,0.0,0.0,-2.0714,-2.0226,-2.0144,-1.9513,-1.9451,-2.0101,-2.083,-2.1561,-2.2278,0.0,0.0,0.0,0.0,0.0,0.0,0.0,0.0,0.0,0.0,0.0,0.0,0.0,0.0,-3.4066,-3.3073,-3.3546,0.0,0.0,-3.3035,0.0,-3.2792,-3.3205,-3.4071,-3.3716,-3.427,0.0,0.0,0.0,0.0,0.0,-3.8123,0.0,0.0,0.0,0.0,0.0,0.0,0.0,-3.5626,-3.4857,-3.452,0.0,0.0,0.0,0.0,0.0,0.0,0.0,0.0,0.0,0.0,0.0,0.0,0.0,0.0,0.0,0.0,-4.5234,-4.5156,-4.5156,-4.5016,-4.4946,-4.4989,-4.4318,-4.3649,-4.3048,-4.2175,-4.174,-4.1732,-4.128,-4.1461,-4.2284,-4.1649,-4.1471,-4.1733,-4.2207,-4.2452,-4.2568,-4.3184,-4.3515,-4.3598,-4.3598,-4.3598,-4.3598,-4.3598,-4.3598,-4.3598,-4.3598,-4.3598,-4.3499,-1.7772,0.0,0.0,0.0,0.0,0.0,0.0,0.0,0.0,0.0,0.0,0.0,0.0,0.0,0.0,0.0,-2.1992,-2.1652,-2.1021,-2.0825,-2.0827,-2.0964,-2.1626,-2.2074,-2.2296,-2.3221,0.0,0.0,0.0,0.0,0.0,0.0,0.0,0.0,0.0,0.0,0.0,0.0,0.0,-3.3282,-3.3535,0.0,-3.4133,-3.3646,-3.3301,-3.3108,-3.3652,-3.4053,-3.4332,0.0,-3.4862,-3.5792,0.0,0.0,0.0,0.0,0.0,0.0,0.0,0.0,0.0,0.0,0.0,0.0,-3.4946,-3.4457,-3.4263,0.0,0.0,0.0,0.0,0.0,0.0,0.0,0.0,0.0,0.0,0.0,0.0,0.0,0.0,0.0,0.0,-4.3638,-4.3638,-4.3638,-4.3451,-4.3408,-4.357,-4.3186,-4.3049,-4.3156,-4.2714,-4.2552,-4.2637,-4.1776,-4.1654,-4.2293,-4.1463,-4.1345,-4.1866,-4.1849,-4.2176,-4.2724,-4.2713,-4.3035,-4.3598,-4.3598,-4.3598,-4.3598,-4.3598,-4.3598,-4.3598,-4.3598,-4.3598,-4.3552,-1.8319,0.0,0.0,0.0,0.0,0.0,0.0,0.0,0.0,0.0,0.0,0.0,0.0,0.0,0.0,0.0,0.0,-2.2743,-2.189,-2.1906,-2.1746,-2.1275,-2.1925,-2.2354,-2.2442,-2.33,-2.3991,0.0,0.0,0.0,0.0,0.0,0.0,0.0,0.0,0.0,0.0,0.0,-3.2515,-3.3357,-3.3493,0.0,-3.5312,-3.4478,-3.4383,-3.4694,-3.4619,-3.4806,-3.5152,-3.5554,-3.5814,0.0,0.0,-3.6758,-3.6266,0.0,-3.6731,-3.6066,0.0,0.0,0.0,-3.6054,0.0,0.0,0.0,-3.3703,-3.3511,0.0,0.0,0.0,0.0,0.0,0.0,0.0,0.0,0.0,0.0,0.0,0.0,0.0,0.0,0.0,0.0,-4.3239,-4.3247,-4.3247,-4.3155,-4.313,-4.3189,-4.3047,-4.2849,-4.262,-4.2437,-4.2198,-4.1911,-4.1587,-4.141,-4.1384,-4.1064,-4.0906,-4.0896,-4.1082,-4.1594,-4.2345,-4.2176,-4.2721,-4.373,-4.3302,-4.3339,-4.3598,-4.3598,-4.3598,-4.3598,-4.3598,-4.3598,-4.3519,-1.8773,0.0,0.0,0.0,0.0,0.0,0.0,0.0,0.0,0.0,0.0,0.0,0.0,0.0,0.0,0.0,0.0,0.0,0.0,-2.3443,-2.3063,-2.2293,-2.2509,-2.2789,-2.3046,-2.356,-2.4296,-2.5207,0.0,0.0,0.0,0.0,0.0,0.0,0.0,0.0,0.0,0.0,0.0,-3.3725,0.0,-3.4713,-3.6136,-3.5075,-3.5349,-3.6218,-3.5599,-3.5626,-3.6054,-3.6779,0.0,-3.6468,-3.7696,-3.6897,0.0,0.0,0.0,0.0,0.0,0.0,0.0,0.0,0.0,-3.4303,0.0,0.0,0.0,0.0,0.0,0.0,0.0,0.0,0.0,0.0,0.0,0.0,0.0,0.0,0.0,0.0,0.0,0.0,0.0,-4.2365,-4.2448,-4.2604,-4.2621,-4.2573,-4.2516,-4.2672,-4.2465,-4.1778,-4.1743,-4.1467,-4.084,-4.1075,-4.095,-4.0461,-4.0593,-4.0488,-4.0162,-4.0521,-4.1136,-4.1931,-4.1772,-4.2465,-4.3631,-4.2953,-4.302,-4.3598,-4.3598,-4.3598,-4.3598,-4.3598,-4.3598,-4.3515,-1.8216,-1.8586,0.0,0.0,0.0,0.0,0.0,0.0,0.0,0.0,0.0,0.0,0.0,0.0,0.0,0.0,0.0,0.0,-2.7178,0.0,-2.591,-2.575,-2.4389,-2.3945,-2.4624,-2.4195,-2.4387,-2.5207,0.0,0.0,0.0,0.0,0.0,0.0,-3.0259,0.0,0.0,0.0,-3.3555,0.0,-3.4938,-3.4916,0.0,-3.4725,-3.517,-3.5729,-3.6478,-3.6661,-3.6571,0.0,-3.6962,-3.6913,0.0,-3.6659,-3.5582,0.0,0.0,0.0,0.0,0.0,0.0,0.0,-3.4198,0.0,0.0,0.0,0.0,0.0,0.0,0.0,0.0,0.0,0.0,0.0,0.0,0.0,0.0,0.0,0.0,0.0,0.0,0.0,0.0,0.0,-3.9393,-4.0066,-4.0118,-4.0118,-4.0095,-4.0774,-4.1047,-4.0841,-4.0841,-4.0758,-4.0558,-4.0489,-4.039,-4.033,-4.0222,-4.0485,-4.1059,-4.0978,-4.1362,-4.2051,-4.181,-4.2121,-4.282,-4.2609,-4.2949,-4.3598,-4.3598,-4.3598,-4.3598,-4.3598,-4.3598,-4.3582,-1.9457,-1.9722,0.0,0.0,0.0,0.0,0.0,0.0,0.0,0.0,0.0,0.0,0.0,0.0,0.0,0.0,0.0,-2.9994,0.0,0.0,0.0,-2.7867,-2.6261,-2.5775,-2.6615,-2.5858,-2.5879,-2.6775,-2.7209,0.0,0.0,0.0,0.0,0.0,-3.1082,0.0,-3.3765,0.0,0.0,0.0,0.0,0.0,0.0,-3.6055,-3.6654,-3.6821,-3.6748,-3.6831,-3.7029,0.0,-3.7186,0.0,0.0,0.0,0.0,0.0,0.0,0.0,0.0,0.0,0.0,0.0,0.0,0.0,-3.2145,0.0,-3.1749,0.0,0.0,0.0,0.0,0.0,0.0,0.0,0.0,0.0,0.0,0.0,0.0,0.0,0.0,0.0,0.0,0.0,0.0,0.0,0.0,-3.9128,-3.906,-3.9784,-4.0175,-4.0128,-4.0504,-4.0673,-4.0624,-4.0404,-4.0305,-4.0305,-4.0163,-4.0265,-4.0544,-4.0407,-4.0802,-4.1538,-4.0906,-4.1257,-4.2228,-4.2189,-4.2463,-4.2986,-4.3416,-4.3598,-4.3628,-4.3734,-4.3704,-4.3628,-2.0749,0.0,0.0,0.0,0.0,0.0,0.0,0.0,0.0,0.0,0.0,0.0,-3.0098,-3.1138,0.0,0.0,-3.2432,-3.2514,0.0,0.0,-3.0324,0.0,0.0,0.0,0.0,-2.7805,-2.7566,-2.8264,-2.8107,0.0,0.0,0.0,0.0,0.0,0.0,-3.3659,-3.5275,0.0,0.0,-3.6123,-3.6258,-3.6386,-3.6594,-3.7341,-3.7691,-3.7685,-3.6933,-3.6911,-3.7259,-3.7278,-3.7337,0.0,-3.7644,0.0,0.0,0.0,0.0,0.0,-3.2641,0.0,0.0,0.0,0.0,0.0,0.0,0.0,0.0,0.0,0.0,0.0,0.0,0.0,0.0,0.0,0.0,0.0,0.0,0.0,0.0,0.0,0.0,0.0,0.0,0.0,0.0,-3.7793,-3.7979,-3.8057,-3.7956,-3.906,-3.9675,-3.9652,-4.0309,-4.0624,-4.06,-4.0362,-4.0238,-4.0238,-4.0163,-4.0096,-4.0113,-3.9986,-4.0315,-4.0865,-4.0171,-4.069,-4.1959,-4.1904,-4.2289,-4.2941,-4.3501,-4.3717,-4.3687,-4.3793,-4.3793,-4.3747,-2.159,-2.1801,0.0,0.0,0.0,0.0,0.0,0.0,0.0,0.0,0.0,0.0,0.0,0.0,0.0,0.0,0.0,-3.6492,-3.546,0.0,-3.3292,0.0,0.0,-3.0618,0.0,-2.9894,-2.9134,-2.9152,-2.8447,-2.8538,0.0,0.0,0.0,0.0,0.0,-3.485,-3.5441,-3.6233,-3.6786,-3.7158,-3.7161,-3.823,-3.9672,0.0,-3.7541,-3.7649,-3.7242,0.0,0.0,-3.7259,-3.7337,0.0,0.0,0.0,0.0,0.0,0.0,0.0,0.0,0.0,0.0,-3.2705,0.0,0.0,0.0,0.0,-3.1436,0.0,0.0,0.0,0.0,0.0,0.0,-3.2307,0.0,0.0,0.0,0.0,0.0,0.0,0.0,0.0,0.0,0.0,0.0,-3.5249,-3.5924,-3.6298,-3.637,-3.8491,-3.9629,-3.953,-4.0148,-4.0436,-4.0305,-4.0188,-4.0113,-4.0113,-4.0096,-4.0096,-4.0096,-4.0113,-4.0113,-4.0121,-3.9977,-4.0725,-4.2078,-4.1959,-4.2662,-4.3864,-4.401,-4.3998,-4.3868,-4.3687,-4.3805,-4.4039,0.0,0.0,0.0,0.0,0.0,0.0,0.0,-2.6885,0.0,0.0,0.0,0.0,0.0,0.0,-3.7131,0.0,0.0,-3.7331,-3.6447,-3.4785,0.0,0.0,0.0,-3.2551,0.0,0.0,-3.1711,-3.1711,-3.0987,-3.077,0.0,0.0,0.0,0.0,0.0,-3.5729,0.0,0.0,0.0,0.0,0.0,-3.8111,-3.986,0.0,0.0,-3.8651,-3.8331,-3.7732,0.0,-3.7259,-3.7298,-3.7303,-3.7452,-3.6326,-3.4994,-3.5102,-3.4143,0.0,0.0,0.0,-3.2848,-3.2655,0.0,0.0,0.0,0.0,0.0,0.0,0.0,0.0,0.0,0.0,0.0,-3.3257,0.0,0.0,0.0,0.0,0.0,0.0,0.0,0.0,0.0,0.0,0.0,-3.4321,-3.5084,-3.5556,-3.5576,-3.7732,-3.8906,-3.8768,-3.9908,-4.0436,-4.0305,-4.0163,-4.0096,-4.0096,-4.0096,-4.0096,-4.0096,-4.0096,-4.0096,-4.013,-4.0561,-4.0972,-4.1432,-4.2387,-4.2981,-4.337,-4.3884,-4.4126,-4.4155,-4.408,-4.408,-4.4193,-2.5207,0.0,0.0,0.0,0.0,0.0,0.0,0.0,0.0,0.0,-3.2218,0.0,-3.5299,0.0,-3.7322,0.0,-3.7721,-3.791,-3.6799,-3.6291,0.0,-3.6831,-3.5894,0.0,0.0,0.0,0.0,-3.4278,-3.3298,-3.2814,0.0,0.0,0.0,0.0,0.0,0.0,0.0,0.0,-3.7952,0.0,0.0,-3.8334,0.0,0.0,-3.9596,-3.9404,0.0,-3.7751,-3.7206,-3.7242,-3.7242,-3.7282,-3.7775,-3.6934,-3.5794,-3.5858,-3.4903,-3.3759,-3.3557,-3.3223,0.0,-3.2884,-3.2489,0.0,-3.2162,0.0,0.0,0.0,0.0,0.0,0.0,0.0,0.0,0.0,-3.2651,0.0,0.0,-3.204,0.0,0.0,0.0,0.0,0.0,0.0,-3.309,-3.3152,-3.3876,-3.4467,0.0,0.0,-3.8274,-3.8391,-3.9771,-4.0436,-4.0305,-4.0163,-4.0096,-4.0096,-4.0096,-4.0096,-4.0096,-4.0096,-4.0248,-4.051,-4.0984,-4.1456,-4.1916,-4.2867,-4.334,-4.3513,-4.4056,-4.4298,-4.4293,-4.4253,-4.4335,-4.4607,0.0,0.0,0.0,0.0,-2.5855,0.0,0.0,0.0,-3.0276,0.0,-3.305,-3.376,-3.5367,-3.6286,-3.6712,-3.6518,-3.8039,0.0,-3.6774,-3.8271,0.0,0.0,-3.9393,-3.9741,-4.0411,0.0,0.0,0.0,0.0,0.0,0.0,0.0,0.0,0.0,-3.6494,0.0,-3.7221,-3.841,-3.8881,-3.8762,-3.8372,-3.8956,-4.01,-4.0026,-4.0044,-3.985,-3.788,-3.7312,-3.7447,-3.7317,-3.7279,-3.7373,-3.7916,-3.8021,-3.7843,-3.7136,-3.6358,-3.558,-3.4938,-3.4211,-3.3599,-3.3467,0.0,0.0,0.0,0.0,-3.2473,0.0,0.0,0.0,0.0,0.0,0.0,0.0,0.0,0.0,0.0,0.0,0.0,0.0,0.0,0.0,0.0,-3.1557,-3.1593,-3.1781,-3.2431,0.0,0.0,0.0,-3.7705,-3.8254,-3.9651,-4.0334,-4.0254,-4.0112,-4.0062,-4.0096,-4.0096,-4.0096,-4.0096,-4.0096,-4.0493,-4.1204,-4.1238,-4.2083,-4.3392,-4.3426,-4.381,-4.4338,-4.4542,-4.4468,-4.431,-4.4217,-4.4612,-4.5303,-2.8003,-2.7489,-2.7357,0.0,-2.8931,-2.8864,0.0,0.0,0.0,0.0,-3.3327,-3.4323,-3.592,-3.6384,-3.6513,-3.637,-3.7319,0.0,0.0,0.0,0.0,-3.9275,-3.8814,-3.9176,-4.0522,-3.9578,0.0,-3.8763,0.0,0.0,-3.6407,0.0,0.0,0.0,0.0,0.0,-3.7972,-3.8782,-3.8946,-3.8634,-3.837,-3.9051,0.0,0.0,-3.9255,-4.0148,-3.9959,-3.9193,-3.8301,-3.8433,-3.8525,-3.8653,-3.8957,-3.9027,-3.8973,-3.8791,-3.8157,-3.7505,-3.7323,-3.7023,-3.6506,-3.5491,-3.4925,-3.4404,0.0,0.0,0.0,0.0,0.0,0.0,0.0,0.0,0.0,0.0,0.0,0.0,0.0,0.0,0.0,-3.2019,0.0,0.0,-3.1557,-3.1651,-3.169,-3.1635,-3.2547,0.0,0.0,0.0,0.0,-3.6767,-3.8083,-3.8973,-3.9325,-3.93,-3.9571,-4.0096,-4.0096,-4.0096,-4.0096,-4.0096,-4.0493,-4.1238,-4.1779,-4.254,-4.3443,-4.4045,-4.4384,-4.4542,-4.457,-4.457,-4.4581,-4.5081,-4.5419,-4.5751,-2.8828,0.0,0.0,-2.9831,0.0,0.0,-3.0534,0.0,0.0,-3.379,-3.3277,0.0,-3.5028,-3.528,-3.5427,-3.5669,-3.7084,0.0,-3.7738,0.0,0.0,-4.0282,-3.9957,-4.0534,-4.2184,-4.0753,0.0,-4.0504,0.0,0.0,-3.7652,0.0,0.0,0.0,0.0,-3.7642,0.0,-3.9275,-3.9231,-3.8621,-3.88,0.0,0.0,-3.8611,-3.9205,-4.0538,-4.0767,-3.9782,-3.8401,-3.8815,-3.9031,-3.9301,-4.0237,-4.0525,-4.049,-4.049,-3.9875,-3.9151,-3.8873,-3.8477,-3.7937,-3.7148,-3.6574,-3.6032,-3.5329,-3.4691,-3.4318,0.0,0.0,0.0,0.0,0.0,0.0,0.0,0.0,0.0,0.0,0.0,0.0,0.0,-3.2494,0.0,-3.2002,-3.1983,-3.1983,-3.1984,0.0,0.0,0.0,0.0,0.0,-3.6711,-3.7828,-3.8471,-3.856,-3.8625,-3.9016,-3.9713,-3.9713,-3.9841,-4.0096,-4.0096,-4.0493,-4.1238,-4.2044,-4.2833,-4.3613,-4.4442,-4.4776,-4.4776,-4.4709,-4.4885,-4.523,-4.5935,-4.6177,-4.6358,0.0,0.0,0.0,0.0,0.0,0.0,0.0,-3.3451,0.0,-3.4764,0.0,-3.2156,-3.3601,-3.3872,-3.4206,-3.4832,0.0,-3.8239,-3.7709,-4.0529,-4.2069,-4.1757,-4.1772,-4.2585,-4.4262,-4.2146,-4.1298,0.0,0.0,0.0,0.0,0.0,0.0,0.0,0.0,0.0,0.0,-3.9644,-3.952,0.0,-3.9246,-3.9152,-3.8692,-3.8685,-3.9552,-4.0763,-4.0788,-3.9782,-3.8544,-3.9175,-3.9428,-3.9788,-4.1468,-4.2031,-4.205,-4.2068,-4.1506,-4.0744,-4.021,-3.9549,-3.8966,-3.8718,-3.8264,-3.7784,-3.7363,-3.6638,-3.5879,-3.5235,-3.4757,-3.4503,0.0,0.0,0.0,0.0,0.0,0.0,0.0,0.0,0.0,0.0,0.0,0.0,-3.2688,-3.2421,-3.2318,0.0,0.0,0.0,0.0,0.0,0.0,-3.6986,-3.7806,-3.8131,-3.788,0.0,-3.8536,-3.9241,-3.9302,-3.9627,-4.0146,-4.0146,-4.062,-4.1442,-4.2183,-4.3044,-4.3929,-4.4695,-4.5005,-4.4978,-4.4886,-4.5211,-4.5847,-4.6479,-4.676,-4.6992,0.0,0.0,0.0,0.0,0.0,-3.4235,-3.4953,-3.3621,-3.2609,-3.296,-3.2546,-3.2561,-3.3386,-3.4199,-3.4708,-3.4728,-3.6589,0.0,0.0,0.0,0.0,-4.2465,-4.206,-4.2585,-4.4262,-4.3287,-4.2486,0.0,-4.0935,-3.978,0.0,0.0,0.0,0.0,0.0,0.0,-3.932,-3.9298,0.0,-3.8925,-3.875,-3.8687,-3.8781,-3.9407,-3.9829,-4.0127,-4.062,-4.0799,-4.0868,-4.1252,-4.1233,-4.1139,-4.1795,-4.2395,-4.2905,-4.296,-4.2868,-4.2686,-4.2595,-4.2467,-4.2047,-4.0831,-4.0526,-4.0031,-3.8124,-3.752,-3.7131,-3.6315,-3.5439,-3.4801,-3.4772,0.0,0.0,0.0,0.0,0.0,0.0,0.0,0.0,0.0,0.0,-3.3689,0.0,0.0,0.0,0.0,0.0,0.0,0.0,0.0,0.0,0.0,-3.5573,0.0,0.0,0.0,-3.8472,-3.9368,-3.9861,-4.0218,-4.0419,-4.0419,-4.117,-4.2458,-4.2603,-4.3482,-4.478,-4.4927,-4.5005,-4.5005,-4.4978,-4.5036,-4.5241,-4.5953,-4.6618,-4.7306,0.0,0.0,0.0,0.0,0.0,0.0,0.0,-3.3847,0.0,-3.3785,-3.3062,-3.2775,-3.3472,-3.488,-3.5745,-3.5593,-3.8041,-3.9745,-4.0178,-4.1342,-4.2405,-4.333,-4.2694,0.0,-4.417,-4.3067,-4.2529,-4.2624,-4.094,-3.9582,-3.8512,0.0,0.0,0.0,0.0,-3.9469,0.0,0.0,0.0,-3.9586,-3.9766,-3.9394,-3.8799,-3.9588,-4.0157,-4.0618,-4.1354,-4.1937,-4.2322,-4.2175,-4.2011,-4.1977,-4.2659,-4.3027,-4.3214,-4.334,-4.3304,-4.3268,-4.3374,-4.3479,-4.3364,-4.2555,-4.2202,-4.1641,-3.9989,-3.9243,-3.8567,-3.7363,-3.6665,-3.5999,-3.5155,-3.3932,0.0,0.0,0.0,0.0,0.0,0.0,0.0,0.0,0.0,0.0,0.0,0.0,0.0,0.0,0.0,0.0,0.0,0.0,0.0,0.0,0.0,0.0,0.0,0.0,0.0,-3.8888,-3.9552,-4.0092,-4.051,-4.0903,-4.1467,-4.2185,-4.304,-4.3862,-4.4565,-4.5013,-4.5211,-4.5211,-4.514,-4.5353,-4.572,-4.5986,-4.6629,-4.7489,0.0,-3.341,0.0,0.0,-3.4357,0.0,-3.4623,-3.4572,-3.4734,-3.5276,-3.4219,-3.3678,-3.4435,-3.6196,-3.723,-3.6928,-3.9701,-4.1548,-4.1742,-4.2788,-4.3599,-4.3971,-4.3392,-4.3401,-4.414,-4.2963,-4.2632,0.0,-4.0851,-3.9308,-3.8531,0.0,0.0,0.0,0.0,0.0,0.0,0.0,-4.1274,-3.9892,-4.0386,-3.9921,-3.9038,-3.9845,-4.0669,-4.1493,-4.2349,-4.2947,-4.3212,-4.2796,-4.2577,-4.2619,-4.3428,-4.3528,-4.339,-4.3513,-4.3479,-4.3409,-4.3563,-4.3716,-4.3783,-4.3631,-4.3347,-4.2835,-4.1819,-4.1089,-4.0111,-3.8391,-3.7487,-3.6636,-3.5431,-3.395,0.0,0.0,0.0,0.0,0.0,0.0,0.0,0.0,0.0,0.0,-3.3609,0.0,0.0,0.0,0.0,0.0,0.0,0.0,0.0,0.0,0.0,-3.6244,-3.6811,0.0,-3.8252,-3.8785,-3.9456,-4.0158,-4.084,-4.1447,-4.1875,-4.2252,-4.3572,-4.4345,-4.4724,-4.5251,-4.5536,-4.5674,-4.5396,-4.5608,-4.6086,-4.6004,-4.6556,-4.743,0.0,0.0,0.0,0.0,0.0,0.0,0.0,-3.6278,-3.6256,-3.6182,-3.6052,-3.6262,-3.7066,-3.8722,-3.9461,-3.8652,-4.0473,-4.1932,-4.2539,-4.2696,-4.3153,-4.3968,-4.3931,-4.4008,-4.4285,-4.419,-4.3882,0.0,-4.1522,-3.9908,-3.8406,-3.7565,0.0,0.0,0.0,0.0,0.0,-4.0533,-3.9929,-3.9006,-3.8952,-3.9276,-3.9882,-4.0689,-4.1528,-4.2366,-4.3194,-4.3526,-4.3582,-4.3707,-4.3454,-4.3177,-4.3512,-4.358,-4.3597,-4.3736,-4.3686,-4.3582,-4.3599,-4.3565,-4.3566,-4.3582,-4.3662,-4.352,-4.2736,-4.2554,-4.1827,-3.9301,-3.6985,-3.5376,-3.5296,-3.4515,-3.4107,0.0,0.0,0.0,0.0,0.0,-3.6196,-3.6329,0.0,0.0,0.0,-3.3506,0.0,0.0,0.0,0.0,0.0,0.0,0.0,-3.4977,0.0,-3.6073,-3.7842,-3.836,-3.9059,-3.9946,-4.0498,-4.1164,-4.1864,-4.2047,-4.2842,-4.4053,-4.4216,-4.5139,-4.649,-4.5849,-4.6005,-4.6603,-4.584,-4.5537,-4.55,-4.5606,-4.608,-4.682,0.0,0.0,0.0,0.0,0.0,0.0,0.0,-3.7806,-3.8261,-3.8645,-3.747,-3.7026,-3.8166,-4.0028,-4.0746,-3.9667,-4.1798,-4.3092,-4.2786,-4.3169,-4.3595,-4.3986,-4.4005,-4.402,-4.4055,-4.4237,-4.4209,0.0,0.0,-4.1685,-4.0603,-3.9823,0.0,0.0,0.0,-4.1376,-4.1048,-4.1489,-4.0846,-3.9534,-3.9971,-4.0047,-4.0044,-4.1379,-4.2092,-4.2527,-4.3389,-4.3667,-4.3599,-4.3682,-4.3651,-4.3601,-4.3734,-4.3751,-4.3718,-4.3769,-4.3753,-4.3736,-4.3767,-4.3781,-4.3798,-4.3765,-4.3849,-4.3431,-4.1619,-4.2001,-4.1887,-3.8868,-3.7068,-3.6043,-3.6011,-3.4968,-3.4531,0.0,0.0,0.0,0.0,0.0,0.0,0.0,0.0,-3.4218,0.0,0.0,0.0,0.0,0.0,0.0,0.0,0.0,0.0,-3.5134,0.0,-3.661,-3.805,-3.8734,-3.9417,-4.0095,-4.1256,-4.1908,-4.2147,-4.3131,-4.4084,-4.4958,-4.4958,-4.5346,-4.5934,-4.5597,-4.5727,-4.61,-4.6256,-4.6352,-4.6378,-4.6334,-4.649,-4.6844,-3.7305,0.0,-3.5379,0.0,-3.7957,-3.8145,-3.8603,-3.9388,-4.0277,-4.126,-3.9556,-3.8718,-3.9904,-4.1543,-4.2118,-4.1022,-4.2921,-4.3893,-4.3203,-4.363,-4.3961,-4.4082,-4.4051,0.0,-4.4055,-4.4222,-4.4344,-4.4358,-4.3582,-4.2808,-4.2045,-4.1217,0.0,0.0,-4.2449,-4.2493,-4.1779,-4.239,-4.1594,-4.0034,-4.0861,-4.0827,-4.0444,-4.1901,-4.2613,-4.2924,-4.3566,-4.3736,-4.3651,-4.3599,-4.3667,-4.3753,-4.38,-4.3818,-4.3837,-4.3837,-4.382,-4.3804,-4.3851,-4.3865,-4.3862,-4.3897,-4.3913,-4.3481,-4.1772,-4.2257,-4.2248,-3.9408,-3.803,-3.7261,-3.6966,-3.5836,-3.5343,-3.6441,0.0,0.0,0.0,0.0,0.0,0.0,-3.504,-3.4023,-3.3815,-3.3793,0.0,0.0,0.0,0.0,0.0,0.0,0.0,0.0,0.0,0.0,0.0,-3.9252,-4.0061,-4.0904,-4.1934,-4.2565,-4.293,-4.4204,-4.4984,-4.5397,-4.545,-4.5623,-4.5857,-4.5667,-4.578,-4.61,-4.6439,-4.6752,-4.6952,-4.6621,-4.6664,-4.6925,-3.9248,-3.7574,-3.6329,-3.7759,-3.9418,-4.0505,-4.0306,-4.1076,-4.2232,-4.376,-4.2667,-4.2058,-4.287,-4.3632,-4.3755,-4.2925,-4.3681,-4.4135,-4.3986,-4.3926,-4.4008,0.0,0.0,-4.4185,-4.4383,-4.4397,-4.4426,-4.4501,0.0,0.0,-4.1986,0.0,-4.1446,-4.2982,-4.2854,-4.2797,-4.2779,-4.2721,-4.1681,-4.0166,-4.1049,-4.1301,-4.1277,-4.2237,-4.313,-4.3881,-4.3818,-4.3804,-4.3788,-4.3651,-4.3599,-4.3599,-4.3599,-4.3751,-4.3897,-4.3897,-4.3851,-4.3804,-4.3804,-4.3669,-4.3583,-4.3832,-4.3851,-4.3851,-4.4101,-4.4005,-4.3384,-4.1619,-4.0081,-3.8822,-3.8024,-3.7259,-3.6795,-3.687,0.0,0.0,0.0,0.0,0.0,-3.6699,-3.5168,-3.4023,-3.3815,0.0,0.0,0.0,0.0,0.0,0.0,0.0,0.0,-3.5287,-3.672,0.0,-3.9473,-4.0084,-4.1196,-4.2758,-4.2527,-4.3145,-4.4497,-4.5113,-4.538,-4.5397,-4.5554,-4.6126,-4.6943,-4.6279,-4.6452,-4.7089,-4.6312,-4.641,-4.6908,-4.6091,-4.6325,-4.7013,-3.8719,-3.808,-3.8001,-3.9509,-4.0229,-4.0887,-4.1752,-4.2662,-4.3221,-4.3126,-4.3263,-4.3498,-4.3855,-4.4102,-4.405,0.0,-4.3955,-4.4119,0.0,-4.3942,-4.4005,-4.4082,-4.4051,-4.4097,-4.4255,-4.4255,-4.4314,-4.4426,0.0,0.0,0.0,-4.3311,-4.3341,-4.3748,-4.3661,-4.3256,-4.2662,-4.269,-4.2032,-4.1068,-4.1881,-4.2179,-4.2255,-4.3148,-4.3629,-4.3837,-4.3804,-4.3736,-4.3651,-4.3548,-4.3565,-4.3582,-4.3566,-4.3599,-4.3701,-4.3701,-4.3684,-4.3667,-4.3667,-4.3617,-4.3617,-4.3786,-4.382,-4.3428,-4.1943,-4.1063,-4.0685,-4.1138,-4.0063,-3.8795,-3.7979,-3.7296,-3.7051,-3.763,-3.7935,0.0,0.0,0.0,-3.7595,-3.7275,-3.5996,-3.4976,0.0,-3.4535,0.0,0.0,0.0,0.0,0.0,0.0,0.0,0.0,-3.7631,0.0,-3.9555,-4.0207,-4.1327,-4.2876,-4.3243,-4.4152,-4.5523,-4.564,-4.5667,-4.5684,-4.5718,-4.5926,-4.6169,-4.5951,-4.6375,-4.7159,-4.6914,-4.7307,-4.791,-4.7081,-4.6966,-4.7296,-4.0597,-3.9633,-3.9252,-4.0719,-4.0784,-4.0985,-4.2029,-4.3008,-4.3546,-4.3299,-4.3784,-4.4143,-4.4177,-4.4192,0.0,-4.3931,-4.4042,-4.4058,-4.3897,-4.4039,-4.4097,-4.4097,-4.4128,-4.4177,-4.4244,-4.4255,0.0,-4.4354,-4.4354,-4.4373,-4.4387,-4.43,-4.4192,-4.4064,-4.402,-4.3679,-4.3122,-4.3185,-4.269,-4.1946,-4.2791,-4.2939,-4.2739,-4.3598,-4.3899,-4.3853,-4.3853,-4.3753,-4.3599,-4.36,-4.3617,-4.3599,-4.36,-4.3634,-4.3667,-4.3599,-4.3634,-4.3684,-4.3718,-4.3667,-4.3649,-4.3865,-4.3851,-4.3414,-4.1943,-4.1184,-4.0957,-4.1501,-4.0674,-3.9645,-3.8887,-3.8207,-3.7959,-3.8571,-3.8639,-3.8663,-3.8753,0.0,-3.7959,0.0,0.0,0.0,0.0,-3.5388,-3.5377,0.0,0.0,0.0,0.0,0.0,0.0,-3.7091,-3.8435,0.0,-4.004,-4.1036,-4.218,-4.3429,-4.4325,-4.5201,-4.5998,-4.5871,-4.5795,-4.5795,-4.5846,-4.5871,-4.5871,-4.5922,-4.6477,-4.7261,-4.7014,-4.7565,-4.8355,-4.7302,-4.7134,-4.7445,-4.4125,-4.1956,0.0,0.0,-4.1138,0.0,-4.1434,-4.2333,-4.3256,-4.3998,-4.4147,-4.4135,-4.402,-4.4005,-4.3958,-4.3915,0.0,0.0,0.0,-4.4165,-4.43,-4.43,-4.4373,-4.4354,-4.43,-4.4373,-4.4358,-4.4285,-4.43,-4.4274,-4.4199,-4.4199,-4.4135,-4.402,-4.4005,-4.4005,-4.4005,-4.4005,-4.3528,-4.2869,-4.3658,-4.3509,-4.2888,-4.3677,-4.3961,-4.3897,-4.3897,-4.3783,-4.3634,-4.3754,-4.3719,-4.3651,-4.3753,-4.3804,-4.3804,-4.3651,-4.3719,-4.382,-4.3883,-4.3751,-4.3699,-4.4002,-4.3889,-4.3714,-4.3615,-4.3647,-4.3443,-4.2485,-4.1756,-4.1098,-4.0428,-3.9695,-3.9296,-3.9552,-3.9546,-3.9214,-3.8403,-3.835,-3.8037,0.0,0.0,0.0,0.0,-3.6303,-3.6157,0.0,0.0,0.0,0.0,0.0,-3.6484,-3.7863,-3.9199,-4.0197,-4.0825,-4.2292,-4.3457,-4.4319,-4.561,-4.6161,-4.6038,-4.5905,-4.5846,-4.5846,-4.5972,-4.6023,-4.6023,-4.6147,-4.6695,-4.7335,-4.6674,-4.7241,-4.8283,-4.6896,-4.6899,-4.7452,0.0,0.0,-4.2331,-4.1838,-4.1674,-4.1591,-4.1497,-4.222,-4.2844,-4.3033,-4.359,-4.3976,-4.4005,-4.3942,-4.3913,-4.3897,-4.4058,-4.4153,-4.4138,-4.4244,-4.43,-4.43,-4.4314,-4.4314,-4.43,-4.4274,-4.4244,-4.4229,-4.427,-4.4285,-4.4289,-4.4229,-4.4184,-4.4135,-4.4055,-4.4005,-4.4005,-4.4005,-4.3878,-4.3711,-4.3931,-4.3878,-4.3711,-4.3931,-4.3961,-4.3897,-4.3897,-4.3835,-4.3736,-4.3667,-4.3734,-4.3816,-4.3684,-4.38,-4.3929,-4.3786,-4.3818,-4.3851,-4.3718,-4.3701,-4.3769,-4.3851,-4.3421,-4.3077,-4.3503,-4.3155,-4.266,-4.2358,-4.1726,-4.1021,-4.0414,-3.9695,-3.9296,-3.9552,-3.9546,-3.9458,-3.9294,-3.8682,-3.834,0.0,-3.7508,-3.6848,-3.7125,-3.7076,-3.7031,0.0,0.0,0.0,0.0,-3.8092,-3.7959,-3.8902,-4.0233,-4.101,-4.1169,-4.1949,-4.3013,-4.4319,-4.5794,-4.6495,-4.6453,-4.6326,-4.6253,-4.6253,-4.6196,-4.6147,-4.6147,-4.6301,-4.6825,-4.7477,-4.6698,-4.7047,-4.7855,-4.6775,-4.6666,-4.6974,-4.3974,-4.3584,-4.3004,-4.1978,-4.1525,-4.1344,-4.1479,-4.192,-4.2507,-4.32,-4.3667,-4.3958,-4.4005,-4.3958,-4.3945,-4.3945,-4.4039,-4.4116,-4.4147,-4.4266,-4.4358,-4.4387,-4.4373,-4.4329,-4.43,-4.4244,-4.4169,-4.4119,-4.4147,-4.4162,-4.4162,-4.4135,-4.4119,-4.4119,-4.4104,-4.4085,-4.4085,-4.4131,-4.4147,-4.4131,-4.4101,-4.4036,-4.4005,-4.3976,-4.3862,-4.3765,-4.3865,-4.3835,-4.3719,-4.3734,-4.3816,-4.3881,-4.3783,-4.3862,-4.3974,-4.3883,-4.3851,-4.3835,-4.3767,-4.3718,-4.3719,-4.3719,-4.342,-4.3199,-4.349,-4.3217,-4.2887,-4.2872,-4.2261,-4.1559,-4.0956,-4.0258,-3.9749,-3.9589,-3.9589,-3.9457,-3.911,-3.8954,0.0,-3.8751,-3.8513,-3.8414,-3.8573,-3.8863,-3.9051,-3.9085,-3.8969,0.0,-4.0096,-3.9942,-4.0002,-4.033,-4.1011,-4.1525,-4.1884,-4.291,-4.4161,-4.5637,-4.641,-4.6731,-4.6684,-4.6566,-4.6471,-4.6398,-4.6326,-4.6277,-4.6319,-4.6374,-4.6905,-4.7625,-4.6885,-4.7085,-4.7705,-4.6938,-4.6731,-4.6819,-4.4565,-4.3938,-4.3058,-4.1964,-4.1334,-4.1013,-4.1245,-4.1598,-4.2307,-4.3636,-4.3915,-4.3989,-4.4005,-4.4005,-4.4005,-4.4005,-4.4005,-4.4051,-4.4124,-4.4292,-4.4426,-4.4487,-4.4426,-4.4354,-4.4285,-4.4214,-4.4119,-4.4005,-4.4005,-4.4005,-4.4005,-4.402,-4.402,-4.4039,-4.4135,-4.4199,-4.4214,-4.424,-4.427,-4.4285,-4.4195,-4.4119,-4.402,-4.3945,-4.3816,-4.3682,-4.3865,-4.3816,-4.3682,-4.3849,-4.3897,-4.3913,-4.3897,-4.3945,-4.3989,-4.3913,-4.3851,-4.3804,-4.3832,-4.3734,-4.3582,-4.3582,-4.349,-4.3418,-4.3478,-4.3296,-4.3221,-4.346,-4.2812,-4.2097,-4.1757,-4.1006,-4.03,-3.9782,-3.9688,-3.9437,-3.87,0.0,-3.9216,-3.8459,-3.9397,-4.0081,-4.0022,-4.0666,-4.1095,-4.1095,-4.0993,-4.0946,-4.099,-4.1594,-4.1887,-4.1793,-4.1679,-4.1945,-4.2591,-4.4191,-4.5641,-4.686,-4.6981,-4.6957,-4.6865,-4.6684,-4.6566,-4.6471,-4.6429,-4.6429,-4.6429,-4.6471,-4.6925,-4.7594,-4.7039,-4.7157,-4.7618,-4.7155,-4.6911,-4.6842,-4.4501,-4.4388,-4.3755,-4.202,-4.2164,-4.2039,-4.0559,-4.149,-4.2501,-4.2875,-4.3487,-4.3945,-4.3989,-4.4005,-4.4005,-4.4005,-4.4005,-4.4067,-4.427,-4.434,-4.4397,-4.4411,-4.4397,-4.4344,-4.4214,-4.4085,-4.402,-4.4005,-4.4005,-4.4005,-4.4005,-4.4119,-4.4169,-4.4169,-4.4184,-4.4229,-4.427,-4.4097,-4.4147,-4.4285,-4.4101,-4.4104,-4.4169,-4.4039,-4.3974,-4.3942,-4.3974,-4.3958,-4.3942,-4.3913,-4.3945,-4.3974,-4.3913,-4.3945,-4.3989,-4.3913,-4.3851,-4.3788,-4.3684,-4.3582,-4.3532,-4.3532,-4.3001,-4.2688,-4.3349,-4.2451,-4.1864,-4.3222,-4.234,-4.1574,-4.244,-4.1349,-4.0389,-4.0564,-4.0101,-3.9625,-3.9442,0.0,-3.8676,-3.9075,-3.9124,-3.9339,-3.9933,-4.0666,-4.1095,-4.1095,-4.1079,-4.1287,-4.1791,-4.2027,-4.2322,-4.2701,-4.2623,-4.2599,-4.2609,-4.4191,-4.5126,-4.5375,-4.6595,-4.7156,-4.7133,-4.6888,-4.6754,-4.6731,-4.6613,-4.6566,-4.659,-4.6684,-4.682,-4.6932,-4.6831,-4.6936,-4.7089,-4.69,-4.6888,-4.6957,-4.4542,-4.4473,-4.3816,-4.2067,-4.1975,-4.1679,-4.0307,-4.0769,-4.1595,-4.2563,-4.3055,-4.3475,-4.3949,-4.4005,-4.4005,-4.4005,-4.4005,-4.4085,-4.4244,-4.4314,-4.4354,-4.4397,-4.4373,-4.427,-4.4104,-4.402,-4.4005,-4.4005,-4.4005,-4.4039,-4.4119,-4.4169,-4.4214,-4.424,-4.424,-4.4255,-4.4285,-4.4192,-4.4237,-4.4325,-4.4207,-4.4162,-4.4147,-4.4036,-4.3961,-4.3915,-4.3929,-4.3945,-4.3945,-4.3913,-4.3926,-4.3989,-4.3958,-4.3961,-4.3961,-4.3942,-4.3832,-4.3667,-4.3565,-4.3497,-4.3445,-4.3497,-4.3188,-4.3005,-4.3406,-4.2598,-4.1974,-4.269,-4.1952,-4.1364,-4.2028,-4.1192,-4.0472,-4.072,-4.0164,0.0,0.0,-3.9564,-3.969,-3.998,-4.0502,-4.0966,-4.1322,-4.1967,-4.2396,-4.2396,-4.2364,-4.2459,-4.2738,-4.2739,-4.2832,-4.305,-4.2937,-4.3041,-4.3399,-4.4157,-4.491,-4.5714,-4.6345,-4.6855,-4.7249,-4.7002,-4.6911,-4.6888,-4.6772,-4.6708,-4.6708,-4.6754,-4.6842,-4.6911,-4.6911,-4.6952,-4.698,-4.6934,-4.6952,-4.6998,-4.4293,-4.4163,-4.3511,-4.1773,-4.1475,-4.1147,-4.021,-4.0262,-4.088,-4.2183,-4.2409,-4.277,-4.3602,-4.3711,-4.3801,-4.3986,-4.4005,-4.4055,-4.4184,-4.4259,-4.43,-4.434,-4.4266,-4.4162,-4.4005,-4.4005,-4.402,-4.4055,-4.402,-4.3958,-4.3901,-4.3871,-4.3804,-4.3691,-4.3882,-4.3971,-4.402,-4.4162,-4.43,-4.4368,-4.4266,-4.4158,-4.4079,-4.4036,-4.3945,-4.3851,-4.3897,-4.3929,-4.3961,-4.3929,-4.3976,-4.4039,-4.3989,-4.3942,-4.3929,-4.391,-4.3749,-4.3565,-4.3496,-4.3463,-4.3392,-4.3242,-4.317,-4.3099,-4.2966,-4.2323,-4.1791,-4.1992,-4.1417,-4.103,-4.1508,-4.0965,-4.0505,-4.0675,0.0,0.0,0.0,-4.0021,-4.042,-4.052,-4.1516,-4.2279,-4.2463,-4.3087,-4.3515,-4.3515,-4.3464,-4.3429,-4.3394,-4.3323,-4.325,-4.3251,-4.3068,-4.3356,-4.4134,-4.4315,-4.5072,-4.6362,-4.6452,-4.6805,-4.7341,-4.7143,-4.7048,-4.7043,-4.6934,-4.6865,-4.6842,-4.6842,-4.6911,-4.6998,-4.6998,-4.6998,-4.6998,-4.6998,-4.6998,-4.6998,-4.3506,-4.3333,-4.2684,-4.0844,-4.1011,-4.1065,-4.0073,-4.054,-4.1105,-4.1277,-4.1372,-4.1761,-4.269,-4.286,-4.3188,-4.3931,-4.4005,-4.4055,-4.4184,-4.4199,-4.4199,-4.4214,-4.4085,-4.402,-4.4005,-4.4005,-4.407,-4.4184,-4.407,-4.3661,-4.2992,-4.2917,-4.2541,-4.1907,-4.2616,-4.2977,-4.3146,-4.3762,-4.4147,-4.4285,-4.4097,-4.402,-4.402,-4.4005,-4.3989,-4.3989,-4.3989,-4.407,-4.4169,-4.402,-4.407,-4.4153,-4.3979,-4.3961,-4.3942,-4.3699,-4.3565,-4.3515,-4.3515,-4.3497,-4.3314,-4.258,-4.2378,-4.2178,-4.1444,-4.0653,-4.0286,-4.1022,-4.0543,-4.032,-4.1397,-4.0903,-4.0407,-4.0746,0.0,0.0,-3.9514,-3.9495,-3.9698,-4.0248,-4.0898,-4.159,-4.2347,-4.3071,-4.3515,-4.3515,-4.3497,-4.3481,-4.3412,-4.3445,-4.3445,-4.3394,-4.3251,-4.3542,-4.4267,-4.5031,-4.5771,-4.6483,-4.712,-4.7436,-4.749,-4.7341,-4.7232,-4.7178,-4.7156,-4.7088,-4.6998,-4.6998,-4.6998,-4.6998,-4.6998,-4.6998,-4.6998,-4.6998,-4.6998,-4.6998,-4.3269,-4.3086,-4.2464,-4.0552,-4.0396,-4.017,-3.9129,-3.9342,-3.9806,-4.0333,-4.0495,-4.0902,-4.1798,-4.1921,-4.2267,-4.3126,-4.3182,-4.3435,-4.4033,-4.407,-4.4119,-4.4184,-4.407,-4.4005,-4.4005,-4.4005,-4.402,-4.407,-4.402,-4.3593,-4.2843,-4.2854,-4.2426,-4.1645,-4.1961,-4.2124,-4.218,-4.2939,-4.3319,-4.3465,-4.3804,-4.3894,-4.3812,-4.3779,-4.3662,-4.3579,-4.3714,-4.3849,-4.395,-4.3929,-4.3961,-4.4011,-4.3976,-4.3862,-4.3732,-4.3582,-4.3548,-4.3548,-4.3515,-4.3463,-4.3355,-4.3095,-4.3004,-4.2787,-4.2012,-4.1607,-4.1185,-4.0506,-4.0102,-4.0102,-4.0733,-4.0141,-3.983,-4.0652,0.0,-3.9607,-3.9508,-4.0338,-4.0993,-4.1089,-4.2159,-4.2957,-4.312,-4.3365,-4.3515,-4.3515,-4.3515,-4.3497,-4.3463,-4.348,-4.3515,-4.3515,-4.3462,-4.3724,-4.4286,-4.5105,-4.5883,-4.6642,-4.6791,-4.7168,-4.772,-4.6877,-4.6532,-4.6571,-4.64,-4.6311,-4.6284,-4.6783,-4.6998,-4.6998,-4.6998,-4.6998,-4.6998,-4.6998,-4.6952,-4.6888,-4.2799,-4.2576,-4.2,-4.0056,-3.9678,-3.9357,-3.8535,-3.8544,-3.8826,-3.9392,-3.9605,-4.0025,-4.0871,-4.0994,-4.1369,-4.2245,-4.235,-4.2603,-4.3206,-4.3243,-4.3515,-4.4116,-4.4055,-4.4005,-4.4005,-4.3745,-4.363,-4.3661,-4.3358,-4.2804,-4.2054,-4.2002,-4.1542,-4.0766,-4.1051,-4.133,-4.1616,-4.2448,-4.2958,-4.3282,-4.3735,-4.383,-4.3662,-4.3647,-4.3548,-4.3391,-4.3528,-4.3699,-4.3853,-4.3881,-4.3947,-4.3995,-4.3958,-4.3798,-4.3582,-4.3531,-4.3548,-4.3565,-4.3549,-4.3497,-4.3426,-4.3185,-4.3279,-4.3171,-4.2159,-4.2121,-4.1919,-4.0561,-4.0286,-4.0347,-4.0622,-4.0214,-4.0105,-4.0974,-4.0639,-4.0283,-4.0289,-4.1172,-4.188,-4.1991,-4.2903,-4.3571,-4.3681,-4.3634,-4.3617,-4.3649,-4.3617,-4.3583,-4.3583,-4.3583,-4.36,-4.3599,-4.3822,-4.4215,-4.4763,-4.5347,-4.611,-4.7084,-4.6985,-4.7089,-4.736,-4.6506,-4.5961,-4.5746,-4.5577,-4.5449,-4.5499,-4.6284,-4.6605,-4.6641,-4.689,-4.6957,-4.6952,-4.6952,-4.6842,-4.6731,-4.2019,-4.1683,-4.1109,-3.9231,-3.8833,-3.871,-3.8523,-3.8491,-3.8473,-3.8491,-3.8664,-3.9101,-3.9893,-4.0089,-4.053,-4.1415,-4.1546,-4.159,-4.1609,-4.159,-4.2314,-4.3912,-4.3986,-4.3986,-4.3986,-4.3206,-4.2824,-4.2899,-4.1954,-4.1126,-4.0401,-4.0144,-3.9607,-3.8929,-3.9723,-4.0618,-4.1545,-4.2433,-4.3243,-4.3986,-4.4005,-4.3844,-4.3614,-4.3753,-4.3669,-4.3496,-4.358,-4.3732,-4.3897,-4.3897,-4.4026,-4.4169,-4.3963,-4.3767,-4.3599,-4.3599,-4.3548,-4.3496,-4.3582,-4.3599,-4.3398,-4.2523,-4.291,-4.3075,-4.1462,-4.1735,-4.2084,-4.126,-4.1095,-4.1144,-4.1283,-4.1339,-4.1475,-4.1759,-4.1801,-4.1842,-4.1978,-4.1829,-4.2004,-4.2809,-4.2782,-4.3024,-4.3823,-4.3835,-4.3851,-4.3989,-4.3883,-4.3788,-4.3788,-4.3788,-4.3736,-4.3617,-4.4322,-4.5059,-4.5809,-4.5883,-4.6576,-4.7881,-4.7881,-4.7324,-4.6302,-4.6302,-4.5744,-4.4814,-4.4814,-4.4711,-4.4656,-4.5481,-4.5802,-4.5891,-4.6676,-4.6911,-4.6795,-4.6795,-4.6708,-4.659,-4.0874,-4.0803,-4.0496,-3.9153,-3.8416,-3.7952,-3.7756,-3.7204,-3.7028,-3.758,-3.7778,-3.8183,-3.901,-3.8588,-3.8805,-4.0249,-4.0449,-4.1033,-4.237,-4.1906,-4.1813,-4.2296,-4.2314,-4.2563,-4.3076,-4.2385,-4.227,-4.277,-4.1969,-4.1356,-4.0945,-4.0339,-3.9611,-3.8783,-3.9065,-3.9663,-4.0508,-4.1376,-4.227,-4.3132,-4.3643,-4.3416,-4.2805,-4.3258,-4.3027,-4.2537,-4.3209,-4.3548,-4.3697,-4.3849,-4.3976,-4.4039,-4.3883,-4.3786,-4.3719,-4.3583,-4.3532,-4.3496,-4.3513,-4.3513,-4.3477,-4.3221,-4.3365,-4.3272,-4.2176,-4.2561,-4.2745,-4.137,-4.1504,-4.1741,-4.1317,-4.1283,-4.1388,-4.1568,-4.1716,-4.1815,-4.1856,-4.2287,-4.2667,-4.2806,-4.3299,-4.3667,-4.3816,-4.382,-4.382,-4.3851,-4.3684,-4.3584,-4.3534,-4.3429,-4.3684,-4.4341,-4.458,-4.5406,-4.6838,-4.6651,-4.7028,-4.797,-4.7361,-4.6842,-4.639,-4.5124,-4.4635,-4.4775,-4.4689,-4.4646,-4.4692,-4.598,-4.6166,-4.5739,-4.6429,-4.6684,-4.6661,-4.6661,-4.6566,-4.6453,-4.0322,-4.0331,-4.0035,-3.8729,-3.8038,-3.7505,-3.7084,-3.6465,-3.6248,-3.6757,-3.6863,-3.7046,-3.7589,-3.7156,-3.7262,-3.831,-3.8829,-3.9571,-4.0722,-4.0688,-4.0725,-4.1,-4.0791,-4.1144,-4.2239,-4.1549,-4.12,-4.123,-4.0763,-4.0281,-3.9768,-3.9617,-3.924,-3.8707,-3.875,-3.9237,-4.0072,-4.0612,-4.1573,-4.2777,-4.3214,-4.3227,-4.2965,-4.2979,-4.2823,-4.2627,-4.2915,-4.3307,-4.3749,-4.3878,-4.4023,-4.4101,-4.3961,-4.3897,-4.3851,-4.3701,-4.3634,-4.3526,-4.3195,-4.3103,-4.3048,-4.2684,-4.3088,-4.3345,-4.2486,-4.291,-4.3222,-4.2249,-4.24,-4.2585,-4.2158,-4.2112,-4.221,-4.2316,-4.2424,-4.2564,-4.2682,-4.3096,-4.3401,-4.336,-4.3742,-4.3992,-4.3966,-4.3886,-4.3837,-4.3804,-4.3667,-4.3695,-4.3939,-4.3575,-4.394,-4.5221,-4.4927,-4.5386,-4.6728,-4.6467,-4.6734,-4.7518,-4.6595,-4.589,-4.5387,-4.423,-4.3924,-4.4282,-4.4135,-4.427,-4.4644,-4.5777,-4.5962,-4.5584,-4.6312,-4.6566,-4.6518,-4.6518,-4.6398,-4.6253,-3.9993,-4.0044,-3.9647,-3.8177,-3.7692,-3.7247,-3.6422,-3.6017,-3.5856,-3.597,-3.5884,-3.586,-3.5994,-3.5918,-3.5944,-3.6076,-3.6992,-3.7636,-3.7802,-3.8554,-3.9291,-3.9974,-3.9477,-3.9877,-4.1345,-4.069,-3.9923,-3.9114,-3.8898,-3.8456,-3.7834,-3.8334,-3.8634,-3.8707,-3.8692,-3.9206,-4.0095,-4.0169,-4.12,-4.2816,-4.289,-4.324,-4.3652,-4.2915,-4.2982,-4.3381,-4.2769,-4.3139,-4.3929,-4.4005,-4.4162,-4.4266,-4.4124,-4.4048,-4.3989,-4.3897,-4.3835,-4.3619,-4.2735,-4.2548,-4.2364,-4.133,-4.2187,-4.3111,-4.2451,-4.2873,-4.3423,-4.3496,-4.3497,-4.3463,-4.3412,-4.3446,-4.3496,-4.3563,-4.3579,-4.3695,-4.3999,-4.4002,-4.4023,-4.4119,-4.3983,-4.3931,-4.4119,-4.3979,-4.3816,-4.3753,-4.3699,-4.3944,-4.4613,-4.3968,-4.4299,-4.5917,-4.5201,-4.5147,-4.5865,-4.5625,-4.5895,-4.6678,-4.568,-4.47,-4.3796,-4.3586,-4.348,-4.3497,-4.3422,-4.3823,-4.4534,-4.5214,-4.5451,-4.5469,-4.6265,-4.6495,-4.6398,-4.6374,-4.6204,-4.6023,-3.8322,-3.892,-3.9132,-3.8212,-3.7413,-3.6615,-3.5753,-3.4852,-3.4476,-3.5013,-3.5086,-3.5341,-3.5936,-3.5399,-3.5241,-3.5894,-3.6245,-3.7063,-3.8545,-3.8289,-3.8456,-3.9268,-3.9194,-3.931,-3.9709,-3.9661,-3.9751,-4.0024,-3.8688,-3.8518,-3.9439,-3.8294,-3.8102,-3.8692,-3.8546,-3.903,-4.0059,-4.0638,-4.1596,-4.278,-4.3568,-4.3561,-4.314,-4.3587,-4.3444,-4.3079,-4.3497,-4.3841,-4.4079,-4.4248,-4.434,-4.434,-4.4097,-4.4002,-4.3958,-4.3732,-4.3736,-4.3619,-4.2735,-4.2514,-4.2166,-4.0649,-4.0985,-4.1799,-4.2211,-4.2433,-4.2745,-4.3369,-4.3464,-4.3376,-4.3269,-4.3304,-4.3339,-4.3304,-4.3461,-4.3614,-4.3632,-4.3751,-4.3818,-4.3749,-4.3144,-4.3014,-4.3675,-4.3649,-4.3531,-4.3409,-4.3357,-4.3377,-4.3542,-4.3324,-4.3743,-4.4894,-4.4748,-4.5022,-4.581,-4.5058,-4.5056,-4.5858,-4.4785,-4.4117,-4.3778,-4.3046,-4.2956,-4.339,-4.397,-4.4276,-4.4453,-4.5682,-4.5847,-4.5382,-4.6044,-4.627,-4.6221,-4.6122,-4.6048,-4.5998,-3.7718,-3.7984,-3.7951,-3.7623,-3.6802,-3.587,-3.4921,-3.4229,-3.3913,-3.4223,-3.4225,-3.4346,-3.4765,-3.4334,-3.4235,-3.4709,-3.5221,-3.5919,-3.6883,-3.746,-3.7947,-3.8372,-3.8841,-3.9129,-3.9197,-3.9269,-3.9266,-3.9161,-3.828,-3.8012,-3.8317,-3.7801,-3.7776,-3.8183,-3.8379,-3.8841,-3.9545,-3.9878,-4.0615,-4.1679,-4.2575,-4.2883,-4.2895,-4.3212,-4.3342,-4.3373,-4.341,-4.3778,-4.4192,-4.3814,-4.3974,-4.431,-4.4067,-4.3974,-4.3926,-4.383,-4.3816,-4.3592,-4.2384,-4.2054,-4.1619,-3.9899,-3.978,-4.0249,-4.0981,-4.146,-4.1847,-4.2217,-4.2293,-4.2207,-4.2049,-4.2048,-4.2047,-4.2013,-4.2152,-4.2272,-4.2307,-4.2426,-4.2492,-4.2423,-4.2005,-4.2044,-4.2852,-4.2893,-4.2989,-4.3232,-4.3196,-4.3324,-4.3688,-4.336,-4.3743,-4.504,-4.4766,-4.4766,-4.5131,-4.4544,-4.4467,-4.4867,-4.3835,-4.3276,-4.3176,-4.3036,-4.3108,-4.333,-4.4081,-4.4559,-4.4829,-4.5487,-4.5756,-4.575,-4.6081,-4.6196,-4.6137,-4.5653,-4.5414,-4.5339,-3.7445,-3.7242,-3.6833,-3.6962,-3.6223,-3.525,-3.4253,-3.3934,-3.378,-3.3684,-3.352,-3.3437,-3.3477,-3.3393,-3.3382,-3.3495,-3.4221,-3.4767,-3.5031,-3.6562,-3.7575,-3.7823,-3.8641,-3.9101,-3.9183,-3.9183,-3.8765,-3.7894,-3.775,-3.7261,-3.6491,-3.6942,-3.7231,-3.7429,-3.8038,-3.8477,-3.8779,-3.894,-3.9516,-4.0461,-4.1367,-4.2161,-4.2801,-4.2773,-4.3238,-4.3836,-4.3259,-4.3629,-4.4223,-4.3237,-4.3487,-4.4173,-4.3853,-4.3706,-4.3659,-4.3555,-4.3503,-4.319,-4.1765,-4.1345,-4.0933,-3.9309,-3.8881,-3.8973,-3.958,-4.0338,-4.0914,-4.0978,-4.1014,-4.0929,-4.074,-4.0705,-4.0688,-4.067,-4.0849,-4.0972,-4.0911,-4.1121,-4.1207,-4.1044,-4.0994,-4.1238,-4.2026,-4.2099,-4.2393,-4.3069,-4.3086,-4.3358,-4.4068,-4.3487,-4.3779,-4.5147,-4.4619,-4.4254,-4.4144,-4.3973,-4.3856,-4.3817,-4.2972,-4.2691,-4.2895,-4.331,-4.3398,-4.3308,-4.3992,-4.4516,-4.4853,-4.4899,-4.5319,-4.5996,-4.5996,-4.5954,-4.5842,-4.5114,-4.4659,-4.4441,-3.6686,-3.6786,-3.6769,-3.6895,-3.6149,-3.52,-3.4241,-3.3934,-3.3766,-3.3633,-3.3534,-3.3495,-3.3509,-3.3495,-3.3481,-3.3509,-3.3615,-3.4371,-3.5999,-3.6332,-3.7168,-3.8728,-3.888,-3.8993,-3.9115,-3.9115,-3.8706,-3.7894,-3.7099,-3.6583,-3.6394,-3.5684,-3.5776,-3.6587,-3.7198,-3.7606,-3.795,-3.9279,-3.9985,-4.0374,-4.1972,-4.2689,-4.2872,-4.3528,-4.3881,-4.3986,-4.408,-4.4192,-4.4169,-4.3222,-4.3382,-4.3799,-4.2979,-4.2744,-4.262,-4.1818,-4.1696,-4.1619,-4.0656,-4.0473,-4.0298,-3.9248,-3.8939,-3.8899,-3.8936,-3.954,-4.0251,-4.0884,-4.1014,-4.0929,-4.074,-4.0705,-4.067,-4.0546,-4.1216,-4.1487,-4.069,-4.1321,-4.1609,-4.083,-4.074,-4.0979,-4.1614,-4.1723,-4.2068,-4.2806,-4.2899,-4.3029,-4.325,-4.3067,-4.3122,-4.3506,-4.3268,-4.3121,-4.3102,-4.3024,-4.2905,-4.2707,-4.2577,-4.3202,-4.4453,-4.3793,-4.3355,-4.316,-4.397,-4.387,-4.319,-4.3799,-4.4447,-4.5086,-4.5086,-4.4995,-4.4861,-4.4632,-4.4073,-4.361,-3.6432,-3.5943,-3.5485,-3.6031,-3.5343,-3.4556,-3.4053,-3.3868,-3.3766,-3.3671,-3.3563,-3.3509,-3.3509,-3.3509,-3.3495,-3.3452,-3.3506,-3.3872,-3.463,-3.5217,-3.6064,-3.7323,-3.7882,-3.8416,-3.8974,-3.8506,-3.7863,-3.7068,-3.6766,-3.6345,-3.5821,-3.539,-3.5408,-3.5877,-3.6546,-3.6952,-3.7211,-3.8264,-3.8777,-3.9048,-4.1122,-4.1955,-4.2103,-4.3399,-4.3913,-4.3905,-4.3537,-4.374,-4.3938,-4.2415,-4.2746,-4.3654,-4.2642,-4.2369,-4.2364,-4.1977,-4.1601,-4.1163,-4.0422,-4.0244,-4.0073,-3.9172,-3.8921,-3.8881,-3.878,-3.8995,-3.93,-3.955,-3.9575,-3.9509,-3.9395,-3.9327,-3.9276,-3.9223,-3.9964,-4.0398,-3.9948,-4.0688,-4.1087,-4.06,-4.0546,-4.0818,-4.1539,-4.1649,-4.2012,-4.2789,-4.2881,-4.29,-4.2936,-4.29,-4.29,-4.2862,-4.2861,-4.2804,-4.2728,-4.2667,-4.2781,-4.311,-4.3004,-4.3087,-4.3301,-4.3426,-4.3081,-4.2414,-4.3253,-4.3323,-4.2833,-4.3149,-4.3915,-4.4904,-4.4904,-4.452,-4.392,-4.3395,-4.321,-4.3293]}]]